<?xml version='1.0' encoding='UTF-8'?><gpx version="1.1" creator="JPX - https://github.com/jenetics/jpx" xmlns="http://www.topografix.com/GPX/1/1"><trk><trkseg><trkpt lat="45.354347899671154" lon="11.76172221325786"><ele>11.999999999999998</ele><time>2026-04-26T07:49:03Z</time></trkpt><trkpt lat="45.35433322168272" lon="11.76181539553745"><ele>12.0</ele><time>2026-04-26T07:49:09Z</time></trkpt><trkpt lat="45.354320165594196" lon="11.7619100953923"><ele>12.0</ele><time>2026-04-26T07:49:17Z</time></trkpt><trkpt lat="45.354310875865025" lon="11.762009396378053"><ele>12.0</ele><time>2026-04-26T07:49:23Z</time></trkpt><trkpt lat="45.35430116080968" lon="11.762103109149322"><ele>12.0</ele><time>2026-04-26T07:49:30Z</time></trkpt><trkpt lat="45.35427099473419" lon="11.762199225417579"><ele>11.999999999999998</ele><time>2026-04-26T07:49:36Z</time></trkpt><trkpt lat="45.35427867267832" lon="11.762291643362419"><ele>12.0</ele><time>2026-04-26T07:49:41Z</time></trkpt><trkpt lat="45.3542796959555" lon="11.76238679544598"><ele>11.714285714285714</ele><time>2026-04-26T07:49:46Z</time></trkpt><trkpt lat="45.35427315941603" lon="11.76249134169264"><ele>11.428571428571429</ele><time>2026-04-26T07:49:51Z</time></trkpt><trkpt lat="45.354263738136744" lon="11.76259675689143"><ele>11.142857142857142</ele><time>2026-04-26T07:49:56Z</time></trkpt><trkpt lat="45.35426787281114" lon="11.762690532114055"><ele>10.857142857142858</ele><time>2026-04-26T07:49:59.999Z</time></trkpt><trkpt lat="45.354264279733336" lon="11.76279235443203"><ele>10.571428571428571</ele><time>2026-04-26T07:50:03.999Z</time></trkpt><trkpt lat="45.35425611651181" lon="11.762916999437376"><ele>10.285714285714285</ele><time>2026-04-26T07:50:07.999Z</time></trkpt><trkpt lat="45.354248167028125" lon="11.763014300612603"><ele>10.0</ele><time>2026-04-26T07:50:10.999Z</time></trkpt><trkpt lat="45.35422749299872" lon="11.763112151437468"><ele>10.0</ele><time>2026-04-26T07:50:13.999Z</time></trkpt><trkpt lat="45.35422648036284" lon="11.763203377868122"><ele>10.0</ele><time>2026-04-26T07:50:16.999Z</time></trkpt><trkpt lat="45.35422218911766" lon="11.763297092932284"><ele>10.0</ele><time>2026-04-26T07:50:19.999Z</time></trkpt><trkpt lat="45.354213231004024" lon="11.763406141786293"><ele>10.0</ele><time>2026-04-26T07:50:23.999Z</time></trkpt><trkpt lat="45.35420709958437" lon="11.763495925941186"><ele>10.0</ele><time>2026-04-26T07:50:26.999Z</time></trkpt><trkpt lat="45.35420495889619" lon="11.763592163807647"><ele>10.0</ele><time>2026-04-26T07:50:29.999Z</time></trkpt><trkpt lat="45.354201620380664" lon="11.76368327314978"><ele>10.0</ele><time>2026-04-26T07:50:32.999Z</time></trkpt><trkpt lat="45.35420261454135" lon="11.763781749609633"><ele>10.0</ele><time>2026-04-26T07:50:35.999Z</time></trkpt><trkpt lat="45.35419267735612" lon="11.76387878608572"><ele>10.0</ele><time>2026-04-26T07:50:38.999Z</time></trkpt><trkpt lat="45.3542037949517" lon="11.7639802114"><ele>10.0</ele><time>2026-04-26T07:50:41.999Z</time></trkpt><trkpt lat="45.35421623924725" lon="11.76408835836438"><ele>10.0</ele><time>2026-04-26T07:50:44.999Z</time></trkpt><trkpt lat="45.35421098988223" lon="11.764210585658244"><ele>10.0</ele><time>2026-04-26T07:50:47.999Z</time></trkpt><trkpt lat="45.354236173141246" lon="11.764304388882081"><ele>10.0</ele><time>2026-04-26T07:50:50.999Z</time></trkpt><trkpt lat="45.35423801558148" lon="11.764424141695168"><ele>10.166666666666668</ele><time>2026-04-26T07:50:53.999Z</time></trkpt><trkpt lat="45.35425120890285" lon="11.764521189753603"><ele>10.333333333333334</ele><time>2026-04-26T07:50:56.999Z</time></trkpt><trkpt lat="45.35426710131107" lon="11.764631847642685"><ele>10.5</ele><time>2026-04-26T07:50:59.999Z</time></trkpt><trkpt lat="45.35428711260212" lon="11.76474596565439"><ele>10.666666666666666</ele><time>2026-04-26T07:51:02.999Z</time></trkpt><trkpt lat="45.35431245763751" lon="11.764861003588639"><ele>10.833333333333332</ele><time>2026-04-26T07:51:06Z</time></trkpt><trkpt lat="45.354308576474885" lon="11.764983208223871"><ele>11.0</ele><time>2026-04-26T07:51:09Z</time></trkpt><trkpt lat="45.35433085926828" lon="11.765098234863013"><ele>10.833333333333332</ele><time>2026-04-26T07:51:12Z</time></trkpt><trkpt lat="45.35434186794675" lon="11.765213735538246"><ele>10.666666666666666</ele><time>2026-04-26T07:51:15Z</time></trkpt><trkpt lat="45.35435285574495" lon="11.765329679009188"><ele>10.5</ele><time>2026-04-26T07:51:18Z</time></trkpt><trkpt lat="45.35437147804314" lon="11.765433234793441"><ele>10.333333333333334</ele><time>2026-04-26T07:51:21Z</time></trkpt><trkpt lat="45.35437253943442" lon="11.765542706114708"><ele>10.166666666666668</ele><time>2026-04-26T07:51:24Z</time></trkpt><trkpt lat="45.35438085474027" lon="11.765642649753495"><ele>10.0</ele><time>2026-04-26T07:51:27Z</time></trkpt><trkpt lat="45.3543961339992" lon="11.765745842166858"><ele>10.0</ele><time>2026-04-26T07:51:30Z</time></trkpt><trkpt lat="45.35442010622673" lon="11.765837154417389"><ele>10.0</ele><time>2026-04-26T07:51:33Z</time></trkpt><trkpt lat="45.354435802520044" lon="11.76594064340547"><ele>10.0</ele><time>2026-04-26T07:51:36Z</time></trkpt><trkpt lat="45.3544485309971" lon="11.766033498176427"><ele>10.0</ele><time>2026-04-26T07:51:38Z</time></trkpt><trkpt lat="45.35446610273238" lon="11.766153237277077"><ele>10.0</ele><time>2026-04-26T07:51:41Z</time></trkpt><trkpt lat="45.354481739177004" lon="11.76625719047011"><ele>10.0</ele><time>2026-04-26T07:51:44Z</time></trkpt><trkpt lat="45.35449467823558" lon="11.766365169728005"><ele>10.0</ele><time>2026-04-26T07:51:46.999Z</time></trkpt><trkpt lat="45.35451042106412" lon="11.766495496538546"><ele>10.0</ele><time>2026-04-26T07:51:49.999Z</time></trkpt><trkpt lat="45.35452519770072" lon="11.766604788750652"><ele>10.0</ele><time>2026-04-26T07:51:52.999Z</time></trkpt><trkpt lat="45.35454194714082" lon="11.766717571946606"><ele>10.0</ele><time>2026-04-26T07:51:55.999Z</time></trkpt><trkpt lat="45.354546829730275" lon="11.766840243483248"><ele>10.0</ele><time>2026-04-26T07:51:58.999Z</time></trkpt><trkpt lat="45.35455969624885" lon="11.766929968670121"><ele>10.0</ele><time>2026-04-26T07:52:00.999Z</time></trkpt><trkpt lat="45.35457264973894" lon="11.767038272706701"><ele>10.0</ele><time>2026-04-26T07:52:03.999Z</time></trkpt><trkpt lat="45.3545984878858" lon="11.767148121773305"><ele>9.833333333333334</ele><time>2026-04-26T07:52:06.999Z</time></trkpt><trkpt lat="45.35461383949851" lon="11.767243652212464"><ele>9.666666666666668</ele><time>2026-04-26T07:52:09.999Z</time></trkpt><trkpt lat="45.354626970322705" lon="11.767359631610173"><ele>9.5</ele><time>2026-04-26T07:52:12.999Z</time></trkpt><trkpt lat="45.354634413835385" lon="11.767483186837282"><ele>9.333333333333334</ele><time>2026-04-26T07:52:15.999Z</time></trkpt><trkpt lat="45.35465327324539" lon="11.76758687258096"><ele>9.166666666666666</ele><time>2026-04-26T07:52:18.999Z</time></trkpt><trkpt lat="45.354666762620944" lon="11.767693698586669"><ele>9.0</ele><time>2026-04-26T07:52:21.999Z</time></trkpt><trkpt lat="45.354687711936485" lon="11.767803803042925"><ele>9.0</ele><time>2026-04-26T07:52:24.999Z</time></trkpt><trkpt lat="45.35469761880672" lon="11.767906664623272"><ele>9.0</ele><time>2026-04-26T07:52:27.999Z</time></trkpt><trkpt lat="45.354711409419146" lon="11.768020523987028"><ele>9.0</ele><time>2026-04-26T07:52:30.999Z</time></trkpt><trkpt lat="45.35472122641239" lon="11.768124431252243"><ele>9.0</ele><time>2026-04-26T07:52:34.999Z</time></trkpt><trkpt lat="45.35474137523539" lon="11.768245548971228"><ele>9.0</ele><time>2026-04-26T07:52:37.999Z</time></trkpt><trkpt lat="45.35476280987221" lon="11.76834210747804"><ele>9.0</ele><time>2026-04-26T07:52:40.999Z</time></trkpt><trkpt lat="45.35476900295968" lon="11.768460045037362"><ele>9.000000000000002</ele><time>2026-04-26T07:52:43.999Z</time></trkpt><trkpt lat="45.35477963823866" lon="11.768549916930644"><ele>9.0</ele><time>2026-04-26T07:52:45.999Z</time></trkpt><trkpt lat="45.354797009051296" lon="11.768638290736805"><ele>9.0</ele><time>2026-04-26T07:52:48.999Z</time></trkpt><trkpt lat="45.35481140429922" lon="11.768738397320087"><ele>9.0</ele><time>2026-04-26T07:52:51.999Z</time></trkpt><trkpt lat="45.35482699850103" lon="11.76882794122062"><ele>9.0</ele><time>2026-04-26T07:52:54.999Z</time></trkpt><trkpt lat="45.35484167291759" lon="11.76893759580158"><ele>9.000000000000002</ele><time>2026-04-26T07:52:57.999Z</time></trkpt><trkpt lat="45.35484926816225" lon="11.769038938705988"><ele>9.0</ele><time>2026-04-26T07:53:00.999Z</time></trkpt><trkpt lat="45.354865207522685" lon="11.769137685681898"><ele>9.000000000000002</ele><time>2026-04-26T07:53:03.999Z</time></trkpt><trkpt lat="45.35487018655575" lon="11.769245593107271"><ele>9.0</ele><time>2026-04-26T07:53:06.999Z</time></trkpt><trkpt lat="45.35489110621106" lon="11.769341598008236"><ele>9.0</ele><time>2026-04-26T07:53:10Z</time></trkpt><trkpt lat="45.35491247136547" lon="11.769428701903388"><ele>9.0</ele><time>2026-04-26T07:53:13Z</time></trkpt><trkpt lat="45.35492892475607" lon="11.769527188030047"><ele>9.0</ele><time>2026-04-26T07:53:16Z</time></trkpt><trkpt lat="45.35493714166653" lon="11.769629590801927"><ele>9.000000000000002</ele><time>2026-04-26T07:53:19Z</time></trkpt><trkpt lat="45.35497188387799" lon="11.769744894093664"><ele>9.0</ele><time>2026-04-26T07:53:22Z</time></trkpt><trkpt lat="45.35497848660655" lon="11.769851485579572"><ele>9.142857142857144</ele><time>2026-04-26T07:53:25Z</time></trkpt><trkpt lat="45.35498612944314" lon="11.769946224741174"><ele>9.285714285714286</ele><time>2026-04-26T07:53:28Z</time></trkpt><trkpt lat="45.35499397029059" lon="11.770046492105395"><ele>9.428571428571429</ele><time>2026-04-26T07:53:31Z</time></trkpt><trkpt lat="45.354999312381715" lon="11.770166359578448"><ele>9.571428571428573</ele><time>2026-04-26T07:53:35Z</time></trkpt><trkpt lat="45.35502740540186" lon="11.770265877165384"><ele>9.714285714285715</ele><time>2026-04-26T07:53:38Z</time></trkpt><trkpt lat="45.35504477271119" lon="11.770365292664719"><ele>9.857142857142858</ele><time>2026-04-26T07:53:41Z</time></trkpt><trkpt lat="45.35505569117274" lon="11.770466908208327"><ele>10.0</ele><time>2026-04-26T07:53:44Z</time></trkpt><trkpt lat="45.355079112959935" lon="11.770577602393814"><ele>10.142857142857142</ele><time>2026-04-26T07:53:47Z</time></trkpt><trkpt lat="45.35510585806313" lon="11.770674003714328"><ele>10.285714285714286</ele><time>2026-04-26T07:53:50Z</time></trkpt><trkpt lat="45.35510244722569" lon="11.770778157085918"><ele>10.428571428571429</ele><time>2026-04-26T07:53:53Z</time></trkpt><trkpt lat="45.355114867929665" lon="11.770879695165002"><ele>10.571428571428571</ele><time>2026-04-26T07:53:56Z</time></trkpt><trkpt lat="45.3551084894889" lon="11.770969851422912"><ele>10.714285714285714</ele><time>2026-04-26T07:53:59Z</time></trkpt><trkpt lat="45.355115027934026" lon="11.771075084459055"><ele>10.857142857142858</ele><time>2026-04-26T07:54:01.999Z</time></trkpt><trkpt lat="45.35512846323027" lon="11.77117191716819"><ele>11.0</ele><time>2026-04-26T07:54:04.999Z</time></trkpt><trkpt lat="45.35512323161867" lon="11.771286353323282"><ele>11.0</ele><time>2026-04-26T07:54:07.999Z</time></trkpt><trkpt lat="45.355125339977874" lon="11.771380698617648"><ele>11.0</ele><time>2026-04-26T07:54:10.999Z</time></trkpt><trkpt lat="45.355086293427" lon="11.771481934458832"><ele>11.0</ele><time>2026-04-26T07:54:13.999Z</time></trkpt><trkpt lat="45.355062778170485" lon="11.771577755336244"><ele>11.0</ele><time>2026-04-26T07:54:16.999Z</time></trkpt><trkpt lat="45.35504435550007" lon="11.77168407934148"><ele>11.0</ele><time>2026-04-26T07:54:19.999Z</time></trkpt><trkpt lat="45.3550234086354" lon="11.771769472186397"><ele>11.0</ele><time>2026-04-26T07:54:21.999Z</time></trkpt><trkpt lat="45.35501032017015" lon="11.771911811981541"><ele>10.833333333333332</ele><time>2026-04-26T07:54:24.999Z</time></trkpt><trkpt lat="45.35498802039919" lon="11.77201193223125"><ele>10.666666666666666</ele><time>2026-04-26T07:54:26.999Z</time></trkpt><trkpt lat="45.35494865871731" lon="11.772097645902512"><ele>10.5</ele><time>2026-04-26T07:54:28.999Z</time></trkpt><trkpt lat="45.354927021391255" lon="11.772207401002428"><ele>10.333333333333334</ele><time>2026-04-26T07:54:31.999Z</time></trkpt><trkpt lat="45.35489925138286" lon="11.772316863187447"><ele>10.166666666666668</ele><time>2026-04-26T07:54:34.999Z</time></trkpt><trkpt lat="45.35487636737649" lon="11.772439039818426"><ele>10.0</ele><time>2026-04-26T07:54:37.999Z</time></trkpt><trkpt lat="45.35485192422981" lon="11.77255493445351"><ele>10.0</ele><time>2026-04-26T07:54:40.999Z</time></trkpt><trkpt lat="45.354810514257636" lon="11.772658414365374"><ele>10.0</ele><time>2026-04-26T07:54:43.999Z</time></trkpt><trkpt lat="45.354779173296926" lon="11.772778122611752"><ele>10.0</ele><time>2026-04-26T07:54:46.999Z</time></trkpt><trkpt lat="45.3547391008745" lon="11.772904506965224"><ele>10.0</ele><time>2026-04-26T07:54:49.999Z</time></trkpt><trkpt lat="45.35470355723027" lon="11.772982838215547"><ele>10.0</ele><time>2026-04-26T07:54:51.999Z</time></trkpt><trkpt lat="45.35462141689755" lon="11.773039418214585"><ele>10.0</ele><time>2026-04-26T07:54:54.999Z</time></trkpt><trkpt lat="45.354556118627656" lon="11.773054417427696"><ele>10.333333333333334</ele><time>2026-04-26T07:54:56.999Z</time></trkpt><trkpt lat="45.35449216904376" lon="11.773070878024564"><ele>10.666666666666668</ele><time>2026-04-26T07:54:58.999Z</time></trkpt><trkpt lat="45.35443033332291" lon="11.773052844979071"><ele>11.0</ele><time>2026-04-26T07:55:00.999Z</time></trkpt><trkpt lat="45.35434860582511" lon="11.77301193801872"><ele>11.333333333333334</ele><time>2026-04-26T07:55:03.999Z</time></trkpt><trkpt lat="45.354266452574834" lon="11.772981452320318"><ele>11.666666666666666</ele><time>2026-04-26T07:55:06.999Z</time></trkpt><trkpt lat="45.354187079710954" lon="11.772960527147841"><ele>12.0</ele><time>2026-04-26T07:55:09.999Z</time></trkpt><trkpt lat="45.354113363981654" lon="11.77293180952164"><ele>12.0</ele><time>2026-04-26T07:55:12.999Z</time></trkpt><trkpt lat="45.3540507705894" lon="11.772878805166675"><ele>12.0</ele><time>2026-04-26T07:55:16Z</time></trkpt><trkpt lat="45.353978473943194" lon="11.772837872248488"><ele>12.0</ele><time>2026-04-26T07:55:19Z</time></trkpt><trkpt lat="45.35391012367414" lon="11.772789291779551"><ele>12.0</ele><time>2026-04-26T07:55:22Z</time></trkpt><trkpt lat="45.35383670270019" lon="11.772743416907229"><ele>12.0</ele><time>2026-04-26T07:55:25Z</time></trkpt><trkpt lat="45.35377265173729" lon="11.772737885132313"><ele>12.0</ele><time>2026-04-26T07:55:27Z</time></trkpt><trkpt lat="45.353691180593756" lon="11.7727073743026"><ele>11.833333333333334</ele><time>2026-04-26T07:55:30Z</time></trkpt><trkpt lat="45.35360815477805" lon="11.772670359162912"><ele>11.666666666666666</ele><time>2026-04-26T07:55:33Z</time></trkpt><trkpt lat="45.35353743325058" lon="11.772629478495789"><ele>11.5</ele><time>2026-04-26T07:55:36Z</time></trkpt><trkpt lat="45.35345842916994" lon="11.772593508457664"><ele>11.333333333333332</ele><time>2026-04-26T07:55:39Z</time></trkpt><trkpt lat="45.35338346359455" lon="11.772556805752506"><ele>11.166666666666666</ele><time>2026-04-26T07:55:42Z</time></trkpt><trkpt lat="45.35330621652848" lon="11.772516915268287"><ele>11.0</ele><time>2026-04-26T07:55:45Z</time></trkpt><trkpt lat="45.35322509727692" lon="11.772492350919501"><ele>11.0</ele><time>2026-04-26T07:55:48Z</time></trkpt><trkpt lat="45.353149499356725" lon="11.772466430103451"><ele>11.0</ele><time>2026-04-26T07:55:51Z</time></trkpt><trkpt lat="45.353074333352886" lon="11.77243552910314"><ele>11.0</ele><time>2026-04-26T07:55:54Z</time></trkpt><trkpt lat="45.3529983600367" lon="11.77242819456552"><ele>11.0</ele><time>2026-04-26T07:55:57Z</time></trkpt><trkpt lat="45.352920577045815" lon="11.772391866929723"><ele>11.0</ele><time>2026-04-26T07:56:00Z</time></trkpt><trkpt lat="45.352845944925505" lon="11.772382684549092"><ele>11.0</ele><time>2026-04-26T07:56:03Z</time></trkpt><trkpt lat="45.35277270931697" lon="11.772351941118437"><ele>10.666666666666666</ele><time>2026-04-26T07:56:06Z</time></trkpt><trkpt lat="45.35269401212275" lon="11.772346053332091"><ele>10.333333333333332</ele><time>2026-04-26T07:56:09Z</time></trkpt><trkpt lat="45.35262475412959" lon="11.772346111435859"><ele>10.0</ele><time>2026-04-26T07:56:12Z</time></trkpt><trkpt lat="45.352548864222136" lon="11.772313150500073"><ele>9.666666666666666</ele><time>2026-04-26T07:56:15Z</time></trkpt><trkpt lat="45.352483823676785" lon="11.772285494577263"><ele>9.333333333333334</ele><time>2026-04-26T07:56:17.999Z</time></trkpt><trkpt lat="45.35240854092913" lon="11.7722598525473"><ele>9.0</ele><time>2026-04-26T07:56:20.999Z</time></trkpt><trkpt lat="45.35232768337724" lon="11.772236097889444"><ele>9.000000000000002</ele><time>2026-04-26T07:56:23.999Z</time></trkpt><trkpt lat="45.35225445591202" lon="11.772193951447473"><ele>9.0</ele><time>2026-04-26T07:56:26.999Z</time></trkpt><trkpt lat="45.35218127152378" lon="11.772179998659457"><ele>9.0</ele><time>2026-04-26T07:56:29.999Z</time></trkpt><trkpt lat="45.3521095875948" lon="11.772166320741048"><ele>9.0</ele><time>2026-04-26T07:56:32.999Z</time></trkpt><trkpt lat="45.35203034803332" lon="11.772149245352164"><ele>9.0</ele><time>2026-04-26T07:56:35.999Z</time></trkpt><trkpt lat="45.351966453041996" lon="11.772141969110121"><ele>9.000000000000002</ele><time>2026-04-26T07:56:37.999Z</time></trkpt><trkpt lat="45.35188782399209" lon="11.772122012487664"><ele>9.0</ele><time>2026-04-26T07:56:40.999Z</time></trkpt><trkpt lat="45.35180663951673" lon="11.772105586961843"><ele>9.166666666666666</ele><time>2026-04-26T07:56:43.999Z</time></trkpt><trkpt lat="45.35173565995013" lon="11.772082993126858"><ele>9.333333333333334</ele><time>2026-04-26T07:56:46.999Z</time></trkpt><trkpt lat="45.35166255718197" lon="11.772068235098102"><ele>9.5</ele><time>2026-04-26T07:56:49.999Z</time></trkpt><trkpt lat="45.351586931189125" lon="11.772059224578502"><ele>9.666666666666668</ele><time>2026-04-26T07:56:52.999Z</time></trkpt><trkpt lat="45.35150638838613" lon="11.772038839055034"><ele>9.833333333333334</ele><time>2026-04-26T07:56:55.999Z</time></trkpt><trkpt lat="45.35142427321018" lon="11.77202998408866"><ele>10.0</ele><time>2026-04-26T07:56:58.999Z</time></trkpt><trkpt lat="45.35134574247367" lon="11.772005877707224"><ele>10.0</ele><time>2026-04-26T07:57:01.999Z</time></trkpt><trkpt lat="45.35125915063867" lon="11.771997430161003"><ele>10.0</ele><time>2026-04-26T07:57:04.999Z</time></trkpt><trkpt lat="45.35117966785271" lon="11.77198438961197"><ele>10.0</ele><time>2026-04-26T07:57:07.999Z</time></trkpt><trkpt lat="45.35110072114611" lon="11.771957379907581"><ele>10.0</ele><time>2026-04-26T07:57:10.999Z</time></trkpt><trkpt lat="45.35101545979789" lon="11.771960671924523"><ele>10.0</ele><time>2026-04-26T07:57:13.999Z</time></trkpt><trkpt lat="45.35092530910486" lon="11.771948514984134"><ele>10.0</ele><time>2026-04-26T07:57:16.999Z</time></trkpt><trkpt lat="45.350849506334804" lon="11.771924171884436"><ele>10.0</ele><time>2026-04-26T07:57:19.999Z</time></trkpt><trkpt lat="45.350768407347815" lon="11.771914959716367"><ele>10.0</ele><time>2026-04-26T07:57:23Z</time></trkpt><trkpt lat="45.35068698662048" lon="11.77190406223947"><ele>10.0</ele><time>2026-04-26T07:57:26Z</time></trkpt><trkpt lat="45.35060603233706" lon="11.771890051203403"><ele>10.0</ele><time>2026-04-26T07:57:29Z</time></trkpt><trkpt lat="45.35052735296977" lon="11.771873497581122"><ele>10.0</ele><time>2026-04-26T07:57:32Z</time></trkpt><trkpt lat="45.350450286207156" lon="11.77186076859628"><ele>10.0</ele><time>2026-04-26T07:57:35Z</time></trkpt><trkpt lat="45.350373758920384" lon="11.771848061707034"><ele>9.571428571428571</ele><time>2026-04-26T07:57:38Z</time></trkpt><trkpt lat="45.35029400158182" lon="11.771841176221225"><ele>9.142857142857142</ele><time>2026-04-26T07:57:41Z</time></trkpt><trkpt lat="45.35023136941019" lon="11.771819574139755"><ele>8.714285714285715</ele><time>2026-04-26T07:57:44Z</time></trkpt><trkpt lat="45.35016174832476" lon="11.771800507449209"><ele>8.285714285714285</ele><time>2026-04-26T07:57:47Z</time></trkpt><trkpt lat="45.35008680286414" lon="11.771802663486664"><ele>7.857142857142858</ele><time>2026-04-26T07:57:50Z</time></trkpt><trkpt lat="45.35000777305743" lon="11.771793135125085"><ele>7.428571428571429</ele><time>2026-04-26T07:57:53Z</time></trkpt><trkpt lat="45.349933223568584" lon="11.771773395611064"><ele>7.0</ele><time>2026-04-26T07:57:56Z</time></trkpt><trkpt lat="45.34985951518777" lon="11.771757473164765"><ele>7.0</ele><time>2026-04-26T07:57:59Z</time></trkpt><trkpt lat="45.34978508822294" lon="11.771746832781329"><ele>7.0</ele><time>2026-04-26T07:58:02Z</time></trkpt><trkpt lat="45.3497173041523" lon="11.77172341362266"><ele>7.0</ele><time>2026-04-26T07:58:05Z</time></trkpt><trkpt lat="45.349644339048844" lon="11.771714849053394"><ele>7.0</ele><time>2026-04-26T07:58:08Z</time></trkpt><trkpt lat="45.34957358708243" lon="11.771718387479352"><ele>7.0</ele><time>2026-04-26T07:58:11Z</time></trkpt><trkpt lat="45.349503110672835" lon="11.771696036040801"><ele>7.0</ele><time>2026-04-26T07:58:14Z</time></trkpt><trkpt lat="45.349432641427015" lon="11.77171080150749"><ele>7.0</ele><time>2026-04-26T07:58:17Z</time></trkpt><trkpt lat="45.349339235907124" lon="11.771690583814793"><ele>7.000000000000001</ele><time>2026-04-26T07:58:20Z</time></trkpt><trkpt lat="45.34926123372082" lon="11.771680674707559"><ele>7.0</ele><time>2026-04-26T07:58:22Z</time></trkpt><trkpt lat="45.34918831727808" lon="11.771684030714477"><ele>7.0</ele><time>2026-04-26T07:58:24Z</time></trkpt><trkpt lat="45.34912343930396" lon="11.77167254024735"><ele>7.0</ele><time>2026-04-26T07:58:26Z</time></trkpt><trkpt lat="45.349055419571634" lon="11.771647571928513"><ele>7.000000000000001</ele><time>2026-04-26T07:58:28Z</time></trkpt><trkpt lat="45.348962764425224" lon="11.771617931795591"><ele>7.0</ele><time>2026-04-26T07:58:31Z</time></trkpt><trkpt lat="45.3488778294411" lon="11.77159545590609"><ele>6.833333333333334</ele><time>2026-04-26T07:58:34Z</time></trkpt><trkpt lat="45.34881154142487" lon="11.771591108527769"><ele>6.666666666666667</ele><time>2026-04-26T07:58:36Z</time></trkpt><trkpt lat="45.348721817297736" lon="11.771578625345871"><ele>6.5</ele><time>2026-04-26T07:58:38.999Z</time></trkpt><trkpt lat="45.34863311190974" lon="11.7715588133916"><ele>6.333333333333334</ele><time>2026-04-26T07:58:41.999Z</time></trkpt><trkpt lat="45.34855395453081" lon="11.771551803579642"><ele>6.166666666666667</ele><time>2026-04-26T07:58:44.999Z</time></trkpt><trkpt lat="45.3484736230649" lon="11.771537579824907"><ele>6.0</ele><time>2026-04-26T07:58:47.999Z</time></trkpt><trkpt lat="45.348392948532975" lon="11.771525517055903"><ele>6.0</ele><time>2026-04-26T07:58:50.999Z</time></trkpt><trkpt lat="45.34831249592583" lon="11.771512816130207"><ele>6.0</ele><time>2026-04-26T07:58:53.999Z</time></trkpt><trkpt lat="45.348232453438335" lon="11.771498480541425"><ele>6.0</ele><time>2026-04-26T07:58:56.999Z</time></trkpt><trkpt lat="45.348158986073734" lon="11.771467148446511"><ele>6.0</ele><time>2026-04-26T07:58:59.999Z</time></trkpt><trkpt lat="45.348089177108456" lon="11.771416464850958"><ele>6.0</ele><time>2026-04-26T07:59:02.999Z</time></trkpt><trkpt lat="45.34802377276811" lon="11.77135261514216"><ele>6.0</ele><time>2026-04-26T07:59:05.999Z</time></trkpt><trkpt lat="45.34795437949271" lon="11.771356904485005"><ele>6.5</ele><time>2026-04-26T07:59:08.999Z</time></trkpt><trkpt lat="45.347923813713535" lon="11.771472142689374"><ele>7.0</ele><time>2026-04-26T07:59:11.999Z</time></trkpt><trkpt lat="45.347963638529755" lon="11.771582757120612"><ele>7.5</ele><time>2026-04-26T07:59:14.999Z</time></trkpt><trkpt lat="45.347989422534205" lon="11.77169633036455"><ele>8.0</ele><time>2026-04-26T07:59:17.999Z</time></trkpt><trkpt lat="45.34798994564793" lon="11.771788017452518"><ele>8.5</ele><time>2026-04-26T07:59:19.999Z</time></trkpt><trkpt lat="45.34800532159238" lon="11.771905127420307"><ele>9.0</ele><time>2026-04-26T07:59:22.999Z</time></trkpt><trkpt lat="45.34801300777558" lon="11.77202828253407"><ele>9.0</ele><time>2026-04-26T07:59:25.999Z</time></trkpt><trkpt lat="45.34802307950074" lon="11.772138114136832"><ele>9.0</ele><time>2026-04-26T07:59:29Z</time></trkpt><trkpt lat="45.34804185856087" lon="11.772235541225415"><ele>9.0</ele><time>2026-04-26T07:59:32Z</time></trkpt><trkpt lat="45.34804664613741" lon="11.77234353191986"><ele>9.0</ele><time>2026-04-26T07:59:35Z</time></trkpt><trkpt lat="45.34804820312901" lon="11.7724543796813"><ele>9.0</ele><time>2026-04-26T07:59:38Z</time></trkpt><trkpt lat="45.34805676192002" lon="11.772571503283432"><ele>9.0</ele><time>2026-04-26T07:59:41Z</time></trkpt><trkpt lat="45.34807256536781" lon="11.772682519803027"><ele>9.166666666666666</ele><time>2026-04-26T07:59:44Z</time></trkpt><trkpt lat="45.348078685666295" lon="11.772806225148559"><ele>9.333333333333334</ele><time>2026-04-26T07:59:47Z</time></trkpt><trkpt lat="45.34808329461211" lon="11.772924663723732"><ele>9.5</ele><time>2026-04-26T07:59:50Z</time></trkpt><trkpt lat="45.34809629468544" lon="11.773032012990528"><ele>9.666666666666668</ele><time>2026-04-26T07:59:53Z</time></trkpt><trkpt lat="45.34810377355151" lon="11.773138597477502"><ele>9.833333333333334</ele><time>2026-04-26T07:59:56Z</time></trkpt><trkpt lat="45.34808730298275" lon="11.773256444581742"><ele>10.0</ele><time>2026-04-26T07:59:59Z</time></trkpt><trkpt lat="45.34806743866051" lon="11.773365356490991"><ele>10.0</ele><time>2026-04-26T08:00:02Z</time></trkpt><trkpt lat="45.34800614658657" lon="11.773425427922431"><ele>10.0</ele><time>2026-04-26T08:00:05Z</time></trkpt><trkpt lat="45.3479311329788" lon="11.773457355682275"><ele>10.0</ele><time>2026-04-26T08:00:08Z</time></trkpt><trkpt lat="45.34785489505187" lon="11.773514994504694"><ele>10.0</ele><time>2026-04-26T08:00:11Z</time></trkpt><trkpt lat="45.34779490253472" lon="11.773557525901643"><ele>10.0</ele><time>2026-04-26T08:00:13Z</time></trkpt><trkpt lat="45.347715293451806" lon="11.773577569339096"><ele>10.0</ele><time>2026-04-26T08:00:16Z</time></trkpt><trkpt lat="45.34764441028006" lon="11.773627077951877"><ele>10.0</ele><time>2026-04-26T08:00:19Z</time></trkpt><trkpt lat="45.34755871949178" lon="11.773654040427422"><ele>10.0</ele><time>2026-04-26T08:00:22Z</time></trkpt><trkpt lat="45.34748933106007" lon="11.773686044768427"><ele>10.0</ele><time>2026-04-26T08:00:25Z</time></trkpt><trkpt lat="45.347417368499706" lon="11.773714981627373"><ele>10.0</ele><time>2026-04-26T08:00:28Z</time></trkpt><trkpt lat="45.347332636351815" lon="11.773755653965596"><ele>10.0</ele><time>2026-04-26T08:00:31Z</time></trkpt><trkpt lat="45.347248376718674" lon="11.77376897285967"><ele>10.0</ele><time>2026-04-26T08:00:34Z</time></trkpt><trkpt lat="45.347182441708185" lon="11.77379738553013"><ele>10.333333333333334</ele><time>2026-04-26T08:00:36Z</time></trkpt><trkpt lat="45.34710582401573" lon="11.773830900316582"><ele>10.666666666666668</ele><time>2026-04-26T08:00:39Z</time></trkpt><trkpt lat="45.34702366908024" lon="11.773866247820255"><ele>11.0</ele><time>2026-04-26T08:00:41.999Z</time></trkpt><trkpt lat="45.34695126341749" lon="11.773915477668595"><ele>11.333333333333334</ele><time>2026-04-26T08:00:44.999Z</time></trkpt><trkpt lat="45.34687404255355" lon="11.77395769804687"><ele>11.666666666666666</ele><time>2026-04-26T08:00:47.999Z</time></trkpt><trkpt lat="45.34679990762496" lon="11.774010042560556"><ele>12.0</ele><time>2026-04-26T08:00:50.999Z</time></trkpt><trkpt lat="45.34672203862627" lon="11.774077955800715"><ele>12.0</ele><time>2026-04-26T08:00:53.999Z</time></trkpt><trkpt lat="45.34664969816974" lon="11.7741298958578"><ele>12.0</ele><time>2026-04-26T08:00:56.999Z</time></trkpt><trkpt lat="45.34657350710409" lon="11.774165297094711"><ele>12.0</ele><time>2026-04-26T08:00:59.999Z</time></trkpt><trkpt lat="45.346501717593625" lon="11.774216286524382"><ele>12.0</ele><time>2026-04-26T08:01:02.999Z</time></trkpt><trkpt lat="45.34642894950023" lon="11.774272002634486"><ele>12.0</ele><time>2026-04-26T08:01:05.999Z</time></trkpt><trkpt lat="45.346350865861645" lon="11.77432703386473"><ele>12.0</ele><time>2026-04-26T08:01:08.999Z</time></trkpt><trkpt lat="45.346287268723884" lon="11.774388230127654"><ele>11.666666666666666</ele><time>2026-04-26T08:01:11.999Z</time></trkpt><trkpt lat="45.34621574643298" lon="11.774457807174151"><ele>11.333333333333334</ele><time>2026-04-26T08:01:14.999Z</time></trkpt><trkpt lat="45.34615496010464" lon="11.774509219115988"><ele>11.0</ele><time>2026-04-26T08:01:17.999Z</time></trkpt><trkpt lat="45.34608664145039" lon="11.774571310633682"><ele>10.666666666666668</ele><time>2026-04-26T08:01:20.999Z</time></trkpt><trkpt lat="45.34601224160516" lon="11.774635068387926"><ele>10.333333333333334</ele><time>2026-04-26T08:01:23.999Z</time></trkpt><trkpt lat="45.34594339437455" lon="11.774707094286418"><ele>10.0</ele><time>2026-04-26T08:01:26.999Z</time></trkpt><trkpt lat="45.345883427203304" lon="11.774764811338555"><ele>10.0</ele><time>2026-04-26T08:01:29.999Z</time></trkpt><trkpt lat="45.345822242344596" lon="11.774849277163694"><ele>10.0</ele><time>2026-04-26T08:01:32.999Z</time></trkpt><trkpt lat="45.34575583506863" lon="11.774911103035075"><ele>10.0</ele><time>2026-04-26T08:01:36Z</time></trkpt><trkpt lat="45.345693257432366" lon="11.774974619589978"><ele>10.0</ele><time>2026-04-26T08:01:39Z</time></trkpt><trkpt lat="45.34561908407513" lon="11.775034770788396"><ele>10.0</ele><time>2026-04-26T08:01:42Z</time></trkpt><trkpt lat="45.34555353665547" lon="11.775099581352084"><ele>10.0</ele><time>2026-04-26T08:01:45Z</time></trkpt><trkpt lat="45.345487440390514" lon="11.77515927624967"><ele>9.833333333333334</ele><time>2026-04-26T08:01:48Z</time></trkpt><trkpt lat="45.34541716971147" lon="11.775232524611273"><ele>9.666666666666668</ele><time>2026-04-26T08:01:51Z</time></trkpt><trkpt lat="45.3453601140063" lon="11.77528866175113"><ele>9.5</ele><time>2026-04-26T08:01:54Z</time></trkpt><trkpt lat="45.34529022427151" lon="11.775352076928034"><ele>9.333333333333334</ele><time>2026-04-26T08:01:57Z</time></trkpt><trkpt lat="45.34521738282655" lon="11.775409378543271"><ele>9.166666666666666</ele><time>2026-04-26T08:02:00Z</time></trkpt><trkpt lat="45.34514729331607" lon="11.775480261339636"><ele>9.0</ele><time>2026-04-26T08:02:03Z</time></trkpt><trkpt lat="45.34508961316013" lon="11.775566632149014"><ele>9.0</ele><time>2026-04-26T08:02:06Z</time></trkpt><trkpt lat="45.34503994828447" lon="11.775657599210353"><ele>9.0</ele><time>2026-04-26T08:02:09Z</time></trkpt><trkpt lat="45.34497516251375" lon="11.77572402633707"><ele>9.0</ele><time>2026-04-26T08:02:12Z</time></trkpt><trkpt lat="45.34491343437875" lon="11.775775164310899"><ele>9.0</ele><time>2026-04-26T08:02:15Z</time></trkpt><trkpt lat="45.34487161210516" lon="11.77588022467494"><ele>9.0</ele><time>2026-04-26T08:02:18Z</time></trkpt><trkpt lat="45.34481308810418" lon="11.775953416218522"><ele>9.0</ele><time>2026-04-26T08:02:21Z</time></trkpt><trkpt lat="45.344760489641395" lon="11.776033479373176"><ele>9.166666666666666</ele><time>2026-04-26T08:02:24Z</time></trkpt><trkpt lat="45.34470332638753" lon="11.776103332602519"><ele>9.333333333333334</ele><time>2026-04-26T08:02:27Z</time></trkpt><trkpt lat="45.34465865446855" lon="11.77616840801384"><ele>9.5</ele><time>2026-04-26T08:02:29Z</time></trkpt><trkpt lat="45.344585017390926" lon="11.77623678083016"><ele>9.666666666666668</ele><time>2026-04-26T08:02:32Z</time></trkpt><trkpt lat="45.34452404801293" lon="11.776307349467249"><ele>9.833333333333334</ele><time>2026-04-26T08:02:35Z</time></trkpt><trkpt lat="45.34445517524863" lon="11.776340377880397"><ele>10.0</ele><time>2026-04-26T08:02:38Z</time></trkpt><trkpt lat="45.34439091006774" lon="11.776411599496798"><ele>10.0</ele><time>2026-04-26T08:02:41Z</time></trkpt><trkpt lat="45.34431066241147" lon="11.776463924935364"><ele>10.0</ele><time>2026-04-26T08:02:43.999Z</time></trkpt><trkpt lat="45.34423312099258" lon="11.776495352734154"><ele>10.0</ele><time>2026-04-26T08:02:46.999Z</time></trkpt><trkpt lat="45.34417552475403" lon="11.776533553028836"><ele>10.0</ele><time>2026-04-26T08:02:48.999Z</time></trkpt><trkpt lat="45.3441079174627" lon="11.77658410081581"><ele>10.0</ele><time>2026-04-26T08:02:51.999Z</time></trkpt><trkpt lat="45.3440413011391" lon="11.776635953124964"><ele>10.0</ele><time>2026-04-26T08:02:54.999Z</time></trkpt><trkpt lat="45.34399133010599" lon="11.776710968142496"><ele>10.0</ele><time>2026-04-26T08:02:57.999Z</time></trkpt><trkpt lat="45.34393710105113" lon="11.776762529423358"><ele>10.0</ele><time>2026-04-26T08:03:00.999Z</time></trkpt><trkpt lat="45.34387776213954" lon="11.776823358776355"><ele>10.0</ele><time>2026-04-26T08:03:03.999Z</time></trkpt><trkpt lat="45.343809203240426" lon="11.776888584221169"><ele>10.0</ele><time>2026-04-26T08:03:06.999Z</time></trkpt><trkpt lat="45.34374748204839" lon="11.776954182181539"><ele>10.0</ele><time>2026-04-26T08:03:09.999Z</time></trkpt><trkpt lat="45.34371358694191" lon="11.777042927437707"><ele>10.0</ele><time>2026-04-26T08:03:12.999Z</time></trkpt><trkpt lat="45.3436428623691" lon="11.777108309400926"><ele>9.833333333333334</ele><time>2026-04-26T08:03:15.999Z</time></trkpt><trkpt lat="45.34357503043693" lon="11.777173257486343"><ele>9.666666666666668</ele><time>2026-04-26T08:03:18.999Z</time></trkpt><trkpt lat="45.34351883400713" lon="11.777258123506993"><ele>9.5</ele><time>2026-04-26T08:03:21.999Z</time></trkpt><trkpt lat="45.34346391336622" lon="11.777340887000587"><ele>9.333333333333334</ele><time>2026-04-26T08:03:24.999Z</time></trkpt><trkpt lat="45.34342199120681" lon="11.777425154570109"><ele>9.166666666666666</ele><time>2026-04-26T08:03:27.999Z</time></trkpt><trkpt lat="45.343383492682314" lon="11.777516686412579"><ele>9.0</ele><time>2026-04-26T08:03:30.999Z</time></trkpt><trkpt lat="45.343340892205454" lon="11.777605571451447"><ele>9.0</ele><time>2026-04-26T08:03:33.999Z</time></trkpt><trkpt lat="45.343298274464786" lon="11.7776728648253"><ele>9.0</ele><time>2026-04-26T08:03:35.999Z</time></trkpt><trkpt lat="45.343246519909805" lon="11.77776910120203"><ele>9.0</ele><time>2026-04-26T08:03:38.999Z</time></trkpt><trkpt lat="45.34320278471787" lon="11.77786433296969"><ele>9.0</ele><time>2026-04-26T08:03:42Z</time></trkpt><trkpt lat="45.34315619667941" lon="11.777979035420168"><ele>9.0</ele><time>2026-04-26T08:03:45Z</time></trkpt><trkpt lat="45.34310728895872" lon="11.778072061801582"><ele>9.0</ele><time>2026-04-26T08:03:48Z</time></trkpt><trkpt lat="45.34307573406727" lon="11.778155404780584"><ele>8.833333333333334</ele><time>2026-04-26T08:03:51Z</time></trkpt><trkpt lat="45.34304396148625" lon="11.778261047705401"><ele>8.666666666666666</ele><time>2026-04-26T08:03:54Z</time></trkpt><trkpt lat="45.34300706241185" lon="11.778365347861266"><ele>8.5</ele><time>2026-04-26T08:03:57Z</time></trkpt><trkpt lat="45.342970291350206" lon="11.778479207411767"><ele>8.333333333333332</ele><time>2026-04-26T08:04:00Z</time></trkpt><trkpt lat="45.34293097395133" lon="11.7785731667149"><ele>8.166666666666666</ele><time>2026-04-26T08:04:03Z</time></trkpt><trkpt lat="45.34289892059194" lon="11.778686904125557"><ele>8.0</ele><time>2026-04-26T08:04:06Z</time></trkpt><trkpt lat="45.34286489782073" lon="11.778791785256375"><ele>7.999999999999999</ele><time>2026-04-26T08:04:09Z</time></trkpt><trkpt lat="45.34282005977463" lon="11.778891468986815"><ele>8.0</ele><time>2026-04-26T08:04:12Z</time></trkpt><trkpt lat="45.34277706248818" lon="11.77896560232781"><ele>8.0</ele><time>2026-04-26T08:04:14Z</time></trkpt><trkpt lat="45.34274119497031" lon="11.779080080471232"><ele>8.0</ele><time>2026-04-26T08:04:17Z</time></trkpt><trkpt lat="45.342703079115694" lon="11.779160859881092"><ele>7.999999999999999</ele><time>2026-04-26T08:04:20Z</time></trkpt><trkpt lat="45.34266430677403" lon="11.779264088977314"><ele>8.0</ele><time>2026-04-26T08:04:23Z</time></trkpt><trkpt lat="45.3426532907276" lon="11.779386949550865"><ele>8.333333333333332</ele><time>2026-04-26T08:04:26Z</time></trkpt><trkpt lat="45.3426151760524" lon="11.779478743846218"><ele>8.666666666666666</ele><time>2026-04-26T08:04:29Z</time></trkpt><trkpt lat="45.34257497831471" lon="11.779572321611177"><ele>9.0</ele><time>2026-04-26T08:04:32Z</time></trkpt><trkpt lat="45.34252335560616" lon="11.779679858166368"><ele>9.333333333333334</ele><time>2026-04-26T08:04:35Z</time></trkpt><trkpt lat="45.3424881756146" lon="11.77978112359707"><ele>9.666666666666668</ele><time>2026-04-26T08:04:38Z</time></trkpt><trkpt lat="45.34245605380693" lon="11.779880865013762"><ele>10.0</ele><time>2026-04-26T08:04:41Z</time></trkpt><trkpt lat="45.34241561532002" lon="11.779977915264077"><ele>10.0</ele><time>2026-04-26T08:04:44Z</time></trkpt><trkpt lat="45.342379764506404" lon="11.780074330379644"><ele>10.0</ele><time>2026-04-26T08:04:46.999Z</time></trkpt><trkpt lat="45.34233694847062" lon="11.7801685420542"><ele>10.0</ele><time>2026-04-26T08:04:49.999Z</time></trkpt><trkpt lat="45.34230239953347" lon="11.780268249621328"><ele>10.0</ele><time>2026-04-26T08:04:52.999Z</time></trkpt><trkpt lat="45.342256002806025" lon="11.780375458740773"><ele>10.0</ele><time>2026-04-26T08:04:55.999Z</time></trkpt><trkpt lat="45.34221900573483" lon="11.78048351133159"><ele>10.0</ele><time>2026-04-26T08:04:58.999Z</time></trkpt><trkpt lat="45.34217148013042" lon="11.780584697870522"><ele>9.833333333333334</ele><time>2026-04-26T08:05:01.999Z</time></trkpt><trkpt lat="45.342133141678474" lon="11.780680998491507"><ele>9.666666666666668</ele><time>2026-04-26T08:05:04.999Z</time></trkpt><trkpt lat="45.34209532165404" lon="11.78077978066894"><ele>9.5</ele><time>2026-04-26T08:05:07.999Z</time></trkpt><trkpt lat="45.34204622900358" lon="11.78087261165529"><ele>9.333333333333334</ele><time>2026-04-26T08:05:10.999Z</time></trkpt><trkpt lat="45.34201010361437" lon="11.780963098694658"><ele>9.166666666666666</ele><time>2026-04-26T08:05:13.999Z</time></trkpt><trkpt lat="45.34196629495335" lon="11.78104406773625"><ele>9.0</ele><time>2026-04-26T08:05:16.999Z</time></trkpt><trkpt lat="45.34192347505721" lon="11.781159248346231"><ele>9.0</ele><time>2026-04-26T08:05:19.999Z</time></trkpt><trkpt lat="45.34186855809157" lon="11.781246809994476"><ele>9.0</ele><time>2026-04-26T08:05:22.999Z</time></trkpt><trkpt lat="45.3418431294243" lon="11.781347063225269"><ele>9.0</ele><time>2026-04-26T08:05:25.999Z</time></trkpt><trkpt lat="45.3418035290695" lon="11.781429304820396"><ele>9.0</ele><time>2026-04-26T08:05:28.999Z</time></trkpt><trkpt lat="45.341756560682896" lon="11.781518041136236"><ele>9.0</ele><time>2026-04-26T08:05:31.999Z</time></trkpt><trkpt lat="45.34171820841789" lon="11.78161261462741"><ele>9.0</ele><time>2026-04-26T08:05:34.999Z</time></trkpt><trkpt lat="45.34167331537179" lon="11.781720037231365"><ele>9.0</ele><time>2026-04-26T08:05:37.999Z</time></trkpt><trkpt lat="45.341634958777945" lon="11.781816824145974"><ele>9.0</ele><time>2026-04-26T08:05:40.999Z</time></trkpt><trkpt lat="45.34159525930866" lon="11.78190774176977"><ele>9.0</ele><time>2026-04-26T08:05:43.999Z</time></trkpt><trkpt lat="45.3415446433709" lon="11.782021558447797"><ele>9.0</ele><time>2026-04-26T08:05:47Z</time></trkpt><trkpt lat="45.34149662146162" lon="11.78211775153757"><ele>9.0</ele><time>2026-04-26T08:05:50Z</time></trkpt><trkpt lat="45.34145165597641" lon="11.782219422296462"><ele>9.0</ele><time>2026-04-26T08:05:53Z</time></trkpt><trkpt lat="45.34140664003798" lon="11.782310142284942"><ele>9.0</ele><time>2026-04-26T08:05:56Z</time></trkpt><trkpt lat="45.34135206601642" lon="11.782398551512237"><ele>9.0</ele><time>2026-04-26T08:05:59Z</time></trkpt><trkpt lat="45.341283060679146" lon="11.782453609177358"><ele>9.0</ele><time>2026-04-26T08:06:02Z</time></trkpt><trkpt lat="45.34121766725477" lon="11.782510310836479"><ele>9.0</ele><time>2026-04-26T08:06:05Z</time></trkpt><trkpt lat="45.34114580386325" lon="11.782550299427735"><ele>9.0</ele><time>2026-04-26T08:06:08Z</time></trkpt><trkpt lat="45.34106990406529" lon="11.78259928636214"><ele>9.0</ele><time>2026-04-26T08:06:11Z</time></trkpt><trkpt lat="45.34099304079282" lon="11.78265534403557"><ele>9.0</ele><time>2026-04-26T08:06:14Z</time></trkpt><trkpt lat="45.34092224439931" lon="11.782671916136902"><ele>9.0</ele><time>2026-04-26T08:06:16Z</time></trkpt><trkpt lat="45.340846836691796" lon="11.782700275109846"><ele>9.0</ele><time>2026-04-26T08:06:19Z</time></trkpt><trkpt lat="45.3407634151464" lon="11.78270416003529"><ele>9.0</ele><time>2026-04-26T08:06:22Z</time></trkpt><trkpt lat="45.34068133351788" lon="11.78272520334456"><ele>9.0</ele><time>2026-04-26T08:06:25Z</time></trkpt><trkpt lat="45.3406078700009" lon="11.782748235030477"><ele>9.0</ele><time>2026-04-26T08:06:28Z</time></trkpt><trkpt lat="45.340509909833166" lon="11.782769863387529"><ele>8.833333333333334</ele><time>2026-04-26T08:06:31Z</time></trkpt><trkpt lat="45.34043814086794" lon="11.78279424536211"><ele>8.666666666666666</ele><time>2026-04-26T08:06:34Z</time></trkpt><trkpt lat="45.34035732531344" lon="11.782796019621406"><ele>8.5</ele><time>2026-04-26T08:06:37Z</time></trkpt><trkpt lat="45.34027184411539" lon="11.782798215293415"><ele>8.333333333333332</ele><time>2026-04-26T08:06:40Z</time></trkpt><trkpt lat="45.34018668797317" lon="11.782820699554385"><ele>8.166666666666666</ele><time>2026-04-26T08:06:43Z</time></trkpt><trkpt lat="45.34010456642644" lon="11.78282227138576"><ele>8.0</ele><time>2026-04-26T08:06:46Z</time></trkpt><trkpt lat="45.34001934868821" lon="11.782841492547943"><ele>8.0</ele><time>2026-04-26T08:06:49Z</time></trkpt><trkpt lat="45.33994367317871" lon="11.782833167723743"><ele>7.999999999999999</ele><time>2026-04-26T08:06:52Z</time></trkpt><trkpt lat="45.339877444697755" lon="11.782864042124162"><ele>8.0</ele><time>2026-04-26T08:06:55Z</time></trkpt><trkpt lat="45.339790079853735" lon="11.782870985305612"><ele>8.0</ele><time>2026-04-26T08:06:58Z</time></trkpt><trkpt lat="45.33972476935453" lon="11.782889347870315"><ele>7.999999999999999</ele><time>2026-04-26T08:07:00.999Z</time></trkpt><trkpt lat="45.33965250517365" lon="11.78290249437203"><ele>8.0</ele><time>2026-04-26T08:07:03.999Z</time></trkpt><trkpt lat="45.33958860787858" lon="11.782893920228126"><ele>8.0</ele><time>2026-04-26T08:07:05.999Z</time></trkpt><trkpt lat="45.33951030577347" lon="11.782894205115126"><ele>8.142857142857142</ele><time>2026-04-26T08:07:08.999Z</time></trkpt><trkpt lat="45.33944104509445" lon="11.782911078569692"><ele>8.285714285714285</ele><time>2026-04-26T08:07:11.999Z</time></trkpt><trkpt lat="45.339369873493126" lon="11.782913218970464"><ele>8.428571428571429</ele><time>2026-04-26T08:07:14.999Z</time></trkpt><trkpt lat="45.339300046735" lon="11.782920551201938"><ele>8.571428571428571</ele><time>2026-04-26T08:07:17.999Z</time></trkpt><trkpt lat="45.33923786265453" lon="11.782944246000202"><ele>8.714285714285715</ele><time>2026-04-26T08:07:19.999Z</time></trkpt><trkpt lat="45.33915950128061" lon="11.782952827715512"><ele>8.857142857142858</ele><time>2026-04-26T08:07:22.999Z</time></trkpt><trkpt lat="45.33907735782434" lon="11.782962653247218"><ele>9.0</ele><time>2026-04-26T08:07:25.999Z</time></trkpt><trkpt lat="45.339005643443436" lon="11.782971024480792"><ele>9.0</ele><time>2026-04-26T08:07:28.999Z</time></trkpt><trkpt lat="45.33893539061985" lon="11.782982814924008"><ele>9.0</ele><time>2026-04-26T08:07:31.999Z</time></trkpt><trkpt lat="45.33886236791944" lon="11.782998885738719"><ele>9.0</ele><time>2026-04-26T08:07:33.999Z</time></trkpt><trkpt lat="45.33879000492623" lon="11.783000423923935"><ele>9.0</ele><time>2026-04-26T08:07:36.999Z</time></trkpt><trkpt lat="45.33870947743214" lon="11.783014428440138"><ele>9.0</ele><time>2026-04-26T08:07:39.999Z</time></trkpt><trkpt lat="45.338642703991596" lon="11.783003130345914"><ele>9.0</ele><time>2026-04-26T08:07:41.999Z</time></trkpt><trkpt lat="45.338551870068244" lon="11.783018385314271"><ele>9.0</ele><time>2026-04-26T08:07:44.999Z</time></trkpt><trkpt lat="45.33846773092405" lon="11.7830326113117"><ele>9.0</ele><time>2026-04-26T08:07:47.999Z</time></trkpt><trkpt lat="45.33839750505094" lon="11.783038325678708"><ele>9.0</ele><time>2026-04-26T08:07:50.999Z</time></trkpt><trkpt lat="45.33833000344871" lon="11.783042581429964"><ele>9.0</ele><time>2026-04-26T08:07:54Z</time></trkpt><trkpt lat="45.338235966648845" lon="11.78304549474169"><ele>9.0</ele><time>2026-04-26T08:07:57Z</time></trkpt><trkpt lat="45.33816707771936" lon="11.783044597961656"><ele>9.0</ele><time>2026-04-26T08:08:00Z</time></trkpt><trkpt lat="45.33810036564449" lon="11.78306614622041"><ele>8.833333333333334</ele><time>2026-04-26T08:08:03Z</time></trkpt><trkpt lat="45.33802649385391" lon="11.783061831017367"><ele>8.666666666666666</ele><time>2026-04-26T08:08:06Z</time></trkpt><trkpt lat="45.337956693362386" lon="11.783074845716403"><ele>8.5</ele><time>2026-04-26T08:08:09Z</time></trkpt><trkpt lat="45.33787723661068" lon="11.783089336805713"><ele>8.333333333333332</ele><time>2026-04-26T08:08:12Z</time></trkpt><trkpt lat="45.33780273936391" lon="11.783090639790549"><ele>8.166666666666666</ele><time>2026-04-26T08:08:15Z</time></trkpt><trkpt lat="45.3377208768112" lon="11.783097739023436"><ele>8.0</ele><time>2026-04-26T08:08:18Z</time></trkpt><trkpt lat="45.337646062728275" lon="11.783100220951981"><ele>7.999999999999999</ele><time>2026-04-26T08:08:21Z</time></trkpt><trkpt lat="45.337574648650524" lon="11.783116553655827"><ele>8.0</ele><time>2026-04-26T08:08:24Z</time></trkpt><trkpt lat="45.33750891899177" lon="11.783137240337297"><ele>8.0</ele><time>2026-04-26T08:08:26Z</time></trkpt><trkpt lat="45.33742231710968" lon="11.78315222381211"><ele>8.0</ele><time>2026-04-26T08:08:29Z</time></trkpt><trkpt lat="45.33734230256378" lon="11.783149173146436"><ele>7.999999999999999</ele><time>2026-04-26T08:08:31Z</time></trkpt><trkpt lat="45.337265403772065" lon="11.783175833042941"><ele>8.0</ele><time>2026-04-26T08:08:34Z</time></trkpt><trkpt lat="45.33718980602105" lon="11.783193472741523"><ele>7.999999999999999</ele><time>2026-04-26T08:08:37Z</time></trkpt><trkpt lat="45.33711718057995" lon="11.78320157440546"><ele>8.0</ele><time>2026-04-26T08:08:40Z</time></trkpt><trkpt lat="45.33703104839016" lon="11.783208865933172"><ele>8.0</ele><time>2026-04-26T08:08:43Z</time></trkpt><trkpt lat="45.33694772017347" lon="11.78323144858827"><ele>8.0</ele><time>2026-04-26T08:08:46Z</time></trkpt><trkpt lat="45.336867526843186" lon="11.783234409065601"><ele>7.999999999999999</ele><time>2026-04-26T08:08:49Z</time></trkpt><trkpt lat="45.33678499571644" lon="11.783245009908534"><ele>8.0</ele><time>2026-04-26T08:08:52Z</time></trkpt><trkpt lat="45.336707481522055" lon="11.783276979852516"><ele>7.999999999999999</ele><time>2026-04-26T08:08:54Z</time></trkpt><trkpt lat="45.33662888185525" lon="11.783265170231786"><ele>8.0</ele><time>2026-04-26T08:08:57Z</time></trkpt><trkpt lat="45.33655356164955" lon="11.78330358825977"><ele>8.0</ele><time>2026-04-26T08:09:00Z</time></trkpt><trkpt lat="45.33647030374218" lon="11.78330347254761"><ele>8.0</ele><time>2026-04-26T08:09:03Z</time></trkpt><trkpt lat="45.33639575521415" lon="11.783304155826965"><ele>7.999999999999999</ele><time>2026-04-26T08:09:06Z</time></trkpt><trkpt lat="45.336325398724846" lon="11.783308951093478"><ele>8.0</ele><time>2026-04-26T08:09:09Z</time></trkpt><trkpt lat="45.33625485847308" lon="11.783339209779479"><ele>7.999999999999999</ele><time>2026-04-26T08:09:12Z</time></trkpt><trkpt lat="45.33617916916872" lon="11.783361500320272"><ele>8.0</ele><time>2026-04-26T08:09:14.999Z</time></trkpt><trkpt lat="45.336095167590436" lon="11.783370249568465"><ele>8.0</ele><time>2026-04-26T08:09:17.999Z</time></trkpt><trkpt lat="45.33602114067764" lon="11.783366622364685"><ele>8.0</ele><time>2026-04-26T08:09:20.999Z</time></trkpt><trkpt lat="45.33595606799612" lon="11.78337190729158"><ele>7.999999999999999</ele><time>2026-04-26T08:09:22.999Z</time></trkpt><trkpt lat="45.3358915676632" lon="11.78338237243035"><ele>8.0</ele><time>2026-04-26T08:09:25.999Z</time></trkpt><trkpt lat="45.33579604870004" lon="11.78338425338399"><ele>7.999999999999999</ele><time>2026-04-26T08:09:28.999Z</time></trkpt><trkpt lat="45.335717978949994" lon="11.783407626306484"><ele>8.0</ele><time>2026-04-26T08:09:31.999Z</time></trkpt><trkpt lat="45.33564272139736" lon="11.78344255173409"><ele>8.0</ele><time>2026-04-26T08:09:34.999Z</time></trkpt><trkpt lat="45.33557216499213" lon="11.783437822332607"><ele>8.0</ele><time>2026-04-26T08:09:37.999Z</time></trkpt><trkpt lat="45.335482901591526" lon="11.783453361816598"><ele>7.999999999999999</ele><time>2026-04-26T08:09:40.999Z</time></trkpt><trkpt lat="45.33540554471247" lon="11.78345986489531"><ele>8.0</ele><time>2026-04-26T08:09:43.999Z</time></trkpt><trkpt lat="45.335327462799754" lon="11.783467042671557"><ele>7.833333333333333</ele><time>2026-04-26T08:09:46.999Z</time></trkpt><trkpt lat="45.335245945183736" lon="11.783484763480695"><ele>7.666666666666666</ele><time>2026-04-26T08:09:49.999Z</time></trkpt><trkpt lat="45.33516161487615" lon="11.783498430193779"><ele>7.5</ele><time>2026-04-26T08:09:52.999Z</time></trkpt><trkpt lat="45.335083234440546" lon="11.783517702014368"><ele>7.333333333333334</ele><time>2026-04-26T08:09:55.999Z</time></trkpt><trkpt lat="45.33501089009797" lon="11.78351767730774"><ele>7.166666666666667</ele><time>2026-04-26T08:09:58Z</time></trkpt><trkpt lat="45.33493179527415" lon="11.783527533049773"><ele>7.0</ele><time>2026-04-26T08:10:01Z</time></trkpt><trkpt lat="45.334853008956216" lon="11.783526119439808"><ele>7.000000000000001</ele><time>2026-04-26T08:10:04Z</time></trkpt><trkpt lat="45.33477101908599" lon="11.783536893213702"><ele>7.0</ele><time>2026-04-26T08:10:07Z</time></trkpt><trkpt lat="45.334700745341266" lon="11.783550524071597"><ele>7.0</ele><time>2026-04-26T08:10:10Z</time></trkpt><trkpt lat="45.334624985148636" lon="11.783554827343638"><ele>7.0</ele><time>2026-04-26T08:10:13Z</time></trkpt><trkpt lat="45.33454686805535" lon="11.783561160673166"><ele>7.000000000000001</ele><time>2026-04-26T08:10:16Z</time></trkpt><trkpt lat="45.334474940420996" lon="11.783567781694318"><ele>7.0</ele><time>2026-04-26T08:10:19Z</time></trkpt><trkpt lat="45.33439008999418" lon="11.783577480171806"><ele>7.333333333333334</ele><time>2026-04-26T08:10:23Z</time></trkpt><trkpt lat="45.33430814561619" lon="11.783583760044001"><ele>7.666666666666667</ele><time>2026-04-26T08:10:26Z</time></trkpt><trkpt lat="45.33422478868323" lon="11.78360409410002"><ele>8.0</ele><time>2026-04-26T08:10:29Z</time></trkpt><trkpt lat="45.33415369801237" lon="11.783621363951804"><ele>8.333333333333334</ele><time>2026-04-26T08:10:32Z</time></trkpt><trkpt lat="45.33406604404572" lon="11.783643406060035"><ele>8.666666666666666</ele><time>2026-04-26T08:10:35Z</time></trkpt><trkpt lat="45.333992776764674" lon="11.783660697520178"><ele>9.0</ele><time>2026-04-26T08:10:38Z</time></trkpt><trkpt lat="45.333918365217905" lon="11.783678759591668"><ele>9.0</ele><time>2026-04-26T08:10:41Z</time></trkpt><trkpt lat="45.333855574935505" lon="11.783688938344689"><ele>9.0</ele><time>2026-04-26T08:10:44Z</time></trkpt><trkpt lat="45.33377811858823" lon="11.783746902860706"><ele>9.0</ele><time>2026-04-26T08:10:47Z</time></trkpt><trkpt lat="45.33369718030827" lon="11.783761661818081"><ele>9.0</ele><time>2026-04-26T08:10:50Z</time></trkpt><trkpt lat="45.33362564528933" lon="11.783773275268135"><ele>9.0</ele><time>2026-04-26T08:10:53Z</time></trkpt><trkpt lat="45.333544418347564" lon="11.783805259346888"><ele>9.0</ele><time>2026-04-26T08:10:56Z</time></trkpt><trkpt lat="45.33347397572867" lon="11.783826796784233"><ele>9.000000000000002</ele><time>2026-04-26T08:10:59Z</time></trkpt><trkpt lat="45.33341043993325" lon="11.783830749150095"><ele>9.0</ele><time>2026-04-26T08:11:01Z</time></trkpt><trkpt lat="45.33334545731113" lon="11.783850022032274"><ele>9.0</ele><time>2026-04-26T08:11:03Z</time></trkpt><trkpt lat="45.333270746789516" lon="11.783843968717713"><ele>9.0</ele><time>2026-04-26T08:11:06Z</time></trkpt><trkpt lat="45.33320372893645" lon="11.783849662614779"><ele>9.0</ele><time>2026-04-26T08:11:09Z</time></trkpt><trkpt lat="45.33313710609973" lon="11.78385409460096"><ele>9.000000000000002</ele><time>2026-04-26T08:11:12Z</time></trkpt><trkpt lat="45.33307287656424" lon="11.783880117496293"><ele>9.0</ele><time>2026-04-26T08:11:14.999Z</time></trkpt><trkpt lat="45.33298565297069" lon="11.783855689260163"><ele>9.571428571428573</ele><time>2026-04-26T08:11:17.999Z</time></trkpt><trkpt lat="45.33291058718075" lon="11.783901503110847"><ele>10.142857142857142</ele><time>2026-04-26T08:11:20.999Z</time></trkpt><trkpt lat="45.33284487029677" lon="11.783902352539666"><ele>10.714285714285715</ele><time>2026-04-26T08:11:23.999Z</time></trkpt><trkpt lat="45.33276529038949" lon="11.783923381112496"><ele>11.285714285714286</ele><time>2026-04-26T08:11:26.999Z</time></trkpt><trkpt lat="45.332685364526235" lon="11.783923995257068"><ele>11.857142857142858</ele><time>2026-04-26T08:11:29.999Z</time></trkpt><trkpt lat="45.332617903959076" lon="11.783914192430917"><ele>12.428571428571429</ele><time>2026-04-26T08:11:32.999Z</time></trkpt><trkpt lat="45.3325522586425" lon="11.783960492721906"><ele>13.0</ele><time>2026-04-26T08:11:35.999Z</time></trkpt><trkpt lat="45.33248435756593" lon="11.784016486248916"><ele>13.0</ele><time>2026-04-26T08:11:38.999Z</time></trkpt><trkpt lat="45.33240982816949" lon="11.783992386140685"><ele>13.0</ele><time>2026-04-26T08:11:41.999Z</time></trkpt><trkpt lat="45.33233176418234" lon="11.784008543509454"><ele>13.0</ele><time>2026-04-26T08:11:44.999Z</time></trkpt><trkpt lat="45.33226803929751" lon="11.78398730491092"><ele>13.0</ele><time>2026-04-26T08:11:46.999Z</time></trkpt><trkpt lat="45.33220782040425" lon="11.783940922395095"><ele>13.0</ele><time>2026-04-26T08:11:48.999Z</time></trkpt><trkpt lat="45.33214083872112" lon="11.783916597981689"><ele>13.0</ele><time>2026-04-26T08:11:51.999Z</time></trkpt><trkpt lat="45.33206281719507" lon="11.783927651278901"><ele>13.0</ele><time>2026-04-26T08:11:54.999Z</time></trkpt><trkpt lat="45.33200110278445" lon="11.783946707324713"><ele>13.142857142857142</ele><time>2026-04-26T08:11:56.999Z</time></trkpt><trkpt lat="45.33192744747531" lon="11.783959101908014"><ele>13.285714285714286</ele><time>2026-04-26T08:11:59.999Z</time></trkpt><trkpt lat="45.331846715186174" lon="11.783983836040926"><ele>13.428571428571429</ele><time>2026-04-26T08:12:02.999Z</time></trkpt><trkpt lat="45.33176561430756" lon="11.784015930646298"><ele>13.571428571428571</ele><time>2026-04-26T08:12:06Z</time></trkpt><trkpt lat="45.33170528872801" lon="11.784043084673986"><ele>13.714285714285715</ele><time>2026-04-26T08:12:08Z</time></trkpt><trkpt lat="45.33163654795828" lon="11.784069317802278"><ele>13.857142857142858</ele><time>2026-04-26T08:12:11Z</time></trkpt><trkpt lat="45.33156574792309" lon="11.784095508089992"><ele>14.0</ele><time>2026-04-26T08:12:14Z</time></trkpt><trkpt lat="45.33149012581691" lon="11.784141438929538"><ele>14.000000000000002</ele><time>2026-04-26T08:12:17Z</time></trkpt><trkpt lat="45.33140793353967" lon="11.784177374739432"><ele>14.0</ele><time>2026-04-26T08:12:20Z</time></trkpt><trkpt lat="45.33134352793661" lon="11.78421651008026"><ele>14.0</ele><time>2026-04-26T08:12:23Z</time></trkpt><trkpt lat="45.33127449225901" lon="11.784293914259482"><ele>14.0</ele><time>2026-04-26T08:12:26Z</time></trkpt><trkpt lat="45.331188280786655" lon="11.784345942580856"><ele>14.000000000000002</ele><time>2026-04-26T08:12:29Z</time></trkpt><trkpt lat="45.33112719438091" lon="11.78440417020548"><ele>14.0</ele><time>2026-04-26T08:12:32Z</time></trkpt><trkpt lat="45.331059393489056" lon="11.784490798389163"><ele>14.333333333333334</ele><time>2026-04-26T08:12:35Z</time></trkpt><trkpt lat="45.330986157842666" lon="11.784556231627562"><ele>14.666666666666668</ele><time>2026-04-26T08:12:38Z</time></trkpt><trkpt lat="45.330939077842636" lon="11.784636025103024"><ele>15.0</ele><time>2026-04-26T08:12:41Z</time></trkpt><trkpt lat="45.33088461368162" lon="11.784729514392106"><ele>15.333333333333332</ele><time>2026-04-26T08:12:44Z</time></trkpt><trkpt lat="45.330840733307284" lon="11.784837714476929"><ele>15.666666666666666</ele><time>2026-04-26T08:12:47Z</time></trkpt><trkpt lat="45.33081649867039" lon="11.784922673704198"><ele>16.0</ele><time>2026-04-26T08:12:49Z</time></trkpt><trkpt lat="45.33079500677078" lon="11.78503750870342"><ele>15.999999999999998</ele><time>2026-04-26T08:12:52Z</time></trkpt><trkpt lat="45.33078872879589" lon="11.7851623382522"><ele>16.0</ele><time>2026-04-26T08:12:55Z</time></trkpt><trkpt lat="45.33076713384546" lon="11.78527218042775"><ele>16.0</ele><time>2026-04-26T08:12:58Z</time></trkpt><trkpt lat="45.330751733287336" lon="11.785393406386502"><ele>16.0</ele><time>2026-04-26T08:13:01Z</time></trkpt><trkpt lat="45.33073147730799" lon="11.785507635000357"><ele>15.999999999999998</ele><time>2026-04-26T08:13:04Z</time></trkpt><trkpt lat="45.33072504131715" lon="11.785624720612343"><ele>16.0</ele><time>2026-04-26T08:13:07Z</time></trkpt><trkpt lat="45.33071687142334" lon="11.785715364314685"><ele>16.333333333333332</ele><time>2026-04-26T08:13:09Z</time></trkpt><trkpt lat="45.33070777567053" lon="11.785816084939674"><ele>16.666666666666664</ele><time>2026-04-26T08:13:12Z</time></trkpt><trkpt lat="45.3307028417155" lon="11.785928421283314"><ele>17.0</ele><time>2026-04-26T08:13:15Z</time></trkpt><trkpt lat="45.330692964481194" lon="11.786026484061308"><ele>17.333333333333332</ele><time>2026-04-26T08:13:17Z</time></trkpt><trkpt lat="45.33068859822943" lon="11.786120433852009"><ele>17.666666666666668</ele><time>2026-04-26T08:13:19Z</time></trkpt><trkpt lat="45.33068337022582" lon="11.786239176455288"><ele>18.0</ele><time>2026-04-26T08:13:22Z</time></trkpt><trkpt lat="45.33067632517095" lon="11.786367738425955"><ele>18.166666666666668</ele><time>2026-04-26T08:13:24.999Z</time></trkpt><trkpt lat="45.33066841491997" lon="11.78647770089679"><ele>18.333333333333332</ele><time>2026-04-26T08:13:27.999Z</time></trkpt><trkpt lat="45.33067342554461" lon="11.786601443260157"><ele>18.5</ele><time>2026-04-26T08:13:30.999Z</time></trkpt><trkpt lat="45.33066349779658" lon="11.786724581694342"><ele>18.666666666666664</ele><time>2026-04-26T08:13:33.999Z</time></trkpt><trkpt lat="45.33066322971442" lon="11.786845469204039"><ele>18.833333333333332</ele><time>2026-04-26T08:13:36.999Z</time></trkpt><trkpt lat="45.33066379579181" lon="11.786973855300657"><ele>19.0</ele><time>2026-04-26T08:13:39.999Z</time></trkpt><trkpt lat="45.33063595241893" lon="11.78709167746619"><ele>18.333333333333332</ele><time>2026-04-26T08:13:42.999Z</time></trkpt><trkpt lat="45.330611871539375" lon="11.787204977094733"><ele>17.666666666666664</ele><time>2026-04-26T08:13:45.999Z</time></trkpt><trkpt lat="45.330574328200505" lon="11.787314771319924"><ele>17.0</ele><time>2026-04-26T08:13:48.999Z</time></trkpt><trkpt lat="45.33053015127382" lon="11.787399384818759"><ele>16.333333333333332</ele><time>2026-04-26T08:13:51.999Z</time></trkpt><trkpt lat="45.330480846362434" lon="11.78748652804872"><ele>15.666666666666666</ele><time>2026-04-26T08:13:54.999Z</time></trkpt><trkpt lat="45.330431259646524" lon="11.787584744976382"><ele>15.0</ele><time>2026-04-26T08:13:57.999Z</time></trkpt><trkpt lat="45.33035519000329" lon="11.787637490898591"><ele>14.333333333333334</ele><time>2026-04-26T08:14:00.999Z</time></trkpt><trkpt lat="45.33030287441675" lon="11.787730570241871"><ele>13.666666666666666</ele><time>2026-04-26T08:14:03.999Z</time></trkpt><trkpt lat="45.33027341215053" lon="11.787854485476489"><ele>13.0</ele><time>2026-04-26T08:14:06.999Z</time></trkpt><trkpt lat="45.330229808527804" lon="11.78794713149208"><ele>12.333333333333332</ele><time>2026-04-26T08:14:10Z</time></trkpt><trkpt lat="45.33017759513966" lon="11.788033472574783"><ele>11.666666666666666</ele><time>2026-04-26T08:14:13Z</time></trkpt><trkpt lat="45.33013658121265" lon="11.788139116959174"><ele>11.0</ele><time>2026-04-26T08:14:16Z</time></trkpt><trkpt lat="45.33008447680789" lon="11.788221886910287"><ele>11.0</ele><time>2026-04-26T08:14:19Z</time></trkpt><trkpt lat="45.33003647327243" lon="11.788304591919912"><ele>11.0</ele><time>2026-04-26T08:14:22Z</time></trkpt><trkpt lat="45.32998651978756" lon="11.788405878958491"><ele>11.0</ele><time>2026-04-26T08:14:25Z</time></trkpt><trkpt lat="45.32996227862947" lon="11.788528461877956"><ele>11.0</ele><time>2026-04-26T08:14:28Z</time></trkpt><trkpt lat="45.329926010421005" lon="11.788603971774608"><ele>11.0</ele><time>2026-04-26T08:14:30Z</time></trkpt><trkpt lat="45.32989817194846" lon="11.788723257060454"><ele>11.0</ele><time>2026-04-26T08:14:33Z</time></trkpt><trkpt lat="45.3298818144015" lon="11.788828538235848"><ele>11.0</ele><time>2026-04-26T08:14:36Z</time></trkpt><trkpt lat="45.32985203701684" lon="11.788927119877076"><ele>11.0</ele><time>2026-04-26T08:14:39Z</time></trkpt><trkpt lat="45.32982424612695" lon="11.789041320748897"><ele>11.0</ele><time>2026-04-26T08:14:42Z</time></trkpt><trkpt lat="45.32979331956458" lon="11.789154234119193"><ele>11.0</ele><time>2026-04-26T08:14:45Z</time></trkpt><trkpt lat="45.32975621538914" lon="11.789255528705372"><ele>11.0</ele><time>2026-04-26T08:14:48Z</time></trkpt><trkpt lat="45.32972316170441" lon="11.789360942769456"><ele>11.0</ele><time>2026-04-26T08:14:51Z</time></trkpt><trkpt lat="45.329693298845854" lon="11.78947860394437"><ele>11.166666666666666</ele><time>2026-04-26T08:14:54Z</time></trkpt><trkpt lat="45.32964689211391" lon="11.78957521831903"><ele>11.333333333333332</ele><time>2026-04-26T08:14:57Z</time></trkpt><trkpt lat="45.32960751320537" lon="11.78966900628308"><ele>11.5</ele><time>2026-04-26T08:15:00Z</time></trkpt><trkpt lat="45.32957225219051" lon="11.789781222643347"><ele>11.666666666666666</ele><time>2026-04-26T08:15:03Z</time></trkpt><trkpt lat="45.329539589009826" lon="11.789875337290303"><ele>11.833333333333334</ele><time>2026-04-26T08:15:06Z</time></trkpt><trkpt lat="45.32951321311455" lon="11.789994599097396"><ele>12.0</ele><time>2026-04-26T08:15:09Z</time></trkpt><trkpt lat="45.3294710520003" lon="11.790077175019139"><ele>12.166666666666666</ele><time>2026-04-26T08:15:12Z</time></trkpt><trkpt lat="45.329444282248694" lon="11.790181751145205"><ele>12.333333333333332</ele><time>2026-04-26T08:15:15Z</time></trkpt><trkpt lat="45.32940660136008" lon="11.79028484250522"><ele>12.5</ele><time>2026-04-26T08:15:18Z</time></trkpt><trkpt lat="45.329365101422134" lon="11.790381674242415"><ele>12.666666666666666</ele><time>2026-04-26T08:15:21Z</time></trkpt><trkpt lat="45.329338560466454" lon="11.79049085254427"><ele>12.833333333333332</ele><time>2026-04-26T08:15:23.999Z</time></trkpt><trkpt lat="45.32928836488935" lon="11.790608506287555"><ele>13.0</ele><time>2026-04-26T08:15:27.999Z</time></trkpt><trkpt lat="45.329258262943405" lon="11.790716846931177"><ele>12.999999999999998</ele><time>2026-04-26T08:15:30.999Z</time></trkpt><trkpt lat="45.32924758541679" lon="11.79080849491245"><ele>13.0</ele><time>2026-04-26T08:15:32.999Z</time></trkpt><trkpt lat="45.32920073840659" lon="11.790899425661413"><ele>13.0</ele><time>2026-04-26T08:15:35.999Z</time></trkpt><trkpt lat="45.32914756514728" lon="11.79094970792872"><ele>13.0</ele><time>2026-04-26T08:15:37.999Z</time></trkpt><trkpt lat="45.329104314845296" lon="11.791065367652601"><ele>12.999999999999998</ele><time>2026-04-26T08:15:40.999Z</time></trkpt><trkpt lat="45.3290594731875" lon="11.791169814780892"><ele>13.0</ele><time>2026-04-26T08:15:43.999Z</time></trkpt><trkpt lat="45.32901114728157" lon="11.791269734458094"><ele>12.833333333333332</ele><time>2026-04-26T08:15:46.999Z</time></trkpt><trkpt lat="45.328957034780224" lon="11.791363969445278"><ele>12.666666666666666</ele><time>2026-04-26T08:15:49.999Z</time></trkpt><trkpt lat="45.32892239937649" lon="11.791447326538048"><ele>12.5</ele><time>2026-04-26T08:15:51.999Z</time></trkpt><trkpt lat="45.3289038764521" lon="11.79155360246685"><ele>12.333333333333332</ele><time>2026-04-26T08:15:54.999Z</time></trkpt><trkpt lat="45.32887970985195" lon="11.791657018274991"><ele>12.166666666666666</ele><time>2026-04-26T08:15:57.999Z</time></trkpt><trkpt lat="45.32885793370714" lon="11.791760114429138"><ele>12.0</ele><time>2026-04-26T08:16:00.999Z</time></trkpt><trkpt lat="45.328822059621565" lon="11.791864316920703"><ele>13.166666666666666</ele><time>2026-04-26T08:16:03.999Z</time></trkpt><trkpt lat="45.3287938195809" lon="11.79197449817577"><ele>14.333333333333332</ele><time>2026-04-26T08:16:06.999Z</time></trkpt><trkpt lat="45.328770362006786" lon="11.792081500274266"><ele>15.5</ele><time>2026-04-26T08:16:09.999Z</time></trkpt><trkpt lat="45.32874183135823" lon="11.792198116241877"><ele>16.666666666666664</ele><time>2026-04-26T08:16:12.999Z</time></trkpt><trkpt lat="45.3287065743182" lon="11.792326631892278"><ele>17.833333333333332</ele><time>2026-04-26T08:16:16Z</time></trkpt><trkpt lat="45.32867320736851" lon="11.792451761270137"><ele>19.0</ele><time>2026-04-26T08:16:19Z</time></trkpt><trkpt lat="45.32864165058748" lon="11.792553801792282"><ele>19.0</ele><time>2026-04-26T08:16:22Z</time></trkpt><trkpt lat="45.328603288385104" lon="11.792643638082712"><ele>19.0</ele><time>2026-04-26T08:16:25Z</time></trkpt><trkpt lat="45.32858244379689" lon="11.792756833197148"><ele>19.0</ele><time>2026-04-26T08:16:28Z</time></trkpt><trkpt lat="45.3285381443066" lon="11.792865636401814"><ele>19.0</ele><time>2026-04-26T08:16:31Z</time></trkpt><trkpt lat="45.32849276241491" lon="11.792958147955432"><ele>19.0</ele><time>2026-04-26T08:16:34Z</time></trkpt><trkpt lat="45.328442507519604" lon="11.793053294605347"><ele>19.0</ele><time>2026-04-26T08:16:37Z</time></trkpt><trkpt lat="45.328417913292746" lon="11.793171534336336"><ele>18.333333333333332</ele><time>2026-04-26T08:16:40Z</time></trkpt><trkpt lat="45.32837584071274" lon="11.793272297159845"><ele>17.666666666666664</ele><time>2026-04-26T08:16:43Z</time></trkpt><trkpt lat="45.32833826478168" lon="11.793384159226976"><ele>17.0</ele><time>2026-04-26T08:16:46Z</time></trkpt><trkpt lat="45.32830318520555" lon="11.793478939482071"><ele>16.333333333333332</ele><time>2026-04-26T08:16:49Z</time></trkpt><trkpt lat="45.32827002595171" lon="11.793597741635413"><ele>15.666666666666666</ele><time>2026-04-26T08:16:52Z</time></trkpt><trkpt lat="45.32823971050265" lon="11.79369188321448"><ele>15.0</ele><time>2026-04-26T08:16:55Z</time></trkpt><trkpt lat="45.32821384924039" lon="11.793792467103358"><ele>14.666666666666666</ele><time>2026-04-26T08:16:58Z</time></trkpt><trkpt lat="45.32817782963946" lon="11.793889749935074"><ele>14.333333333333332</ele><time>2026-04-26T08:17:01Z</time></trkpt><trkpt lat="45.32815490238734" lon="11.793999837585007"><ele>14.0</ele><time>2026-04-26T08:17:04Z</time></trkpt><trkpt lat="45.32811577311665" lon="11.79410468106914"><ele>13.666666666666666</ele><time>2026-04-26T08:17:07Z</time></trkpt><trkpt lat="45.328084896799446" lon="11.794203588756883"><ele>13.333333333333332</ele><time>2026-04-26T08:17:10Z</time></trkpt><trkpt lat="45.32806005151572" lon="11.794297942056868"><ele>13.0</ele><time>2026-04-26T08:17:13Z</time></trkpt><trkpt lat="45.32803501336693" lon="11.79439903536932"><ele>12.833333333333332</ele><time>2026-04-26T08:17:16Z</time></trkpt><trkpt lat="45.32800987470901" lon="11.794507199562267"><ele>12.666666666666666</ele><time>2026-04-26T08:17:19Z</time></trkpt><trkpt lat="45.32795447757782" lon="11.794603071530794"><ele>12.5</ele><time>2026-04-26T08:17:22Z</time></trkpt><trkpt lat="45.327910426971684" lon="11.79470606376153"><ele>12.333333333333332</ele><time>2026-04-26T08:17:25Z</time></trkpt><trkpt lat="45.327876021887036" lon="11.794806493355845"><ele>12.166666666666666</ele><time>2026-04-26T08:17:28Z</time></trkpt><trkpt lat="45.3278536742839" lon="11.794906452726487"><ele>12.0</ele><time>2026-04-26T08:17:31Z</time></trkpt><trkpt lat="45.32780407180542" lon="11.795004847280946"><ele>12.0</ele><time>2026-04-26T08:17:34Z</time></trkpt><trkpt lat="45.32776051477374" lon="11.795075636441112"><ele>12.0</ele><time>2026-04-26T08:17:37Z</time></trkpt><trkpt lat="45.327742098408066" lon="11.795181423063639"><ele>12.0</ele><time>2026-04-26T08:17:40Z</time></trkpt><trkpt lat="45.32770885168361" lon="11.795265159077228"><ele>12.0</ele><time>2026-04-26T08:17:41.999Z</time></trkpt><trkpt lat="45.32767334827583" lon="11.795367379395241"><ele>12.0</ele><time>2026-04-26T08:17:44.999Z</time></trkpt><trkpt lat="45.327638944068525" lon="11.795472943355973"><ele>12.0</ele><time>2026-04-26T08:17:47.999Z</time></trkpt><trkpt lat="45.32760610917191" lon="11.79558539458108"><ele>12.0</ele><time>2026-04-26T08:17:50.999Z</time></trkpt><trkpt lat="45.327643974166065" lon="11.795695278772474"><ele>12.0</ele><time>2026-04-26T08:17:53.999Z</time></trkpt><trkpt lat="45.32773088997925" lon="11.795750559774545"><ele>12.0</ele><time>2026-04-26T08:17:56.999Z</time></trkpt><trkpt lat="45.32777954362327" lon="11.79582324922472"><ele>12.0</ele><time>2026-04-26T08:17:59.999Z</time></trkpt><trkpt lat="45.32785329565221" lon="11.795885041158085"><ele>12.0</ele><time>2026-04-26T08:18:02.999Z</time></trkpt><trkpt lat="45.327927157230754" lon="11.795921872254667"><ele>12.0</ele><time>2026-04-26T08:18:05.999Z</time></trkpt><trkpt lat="45.32799460185818" lon="11.795991605792231"><ele>11.333333333333334</ele><time>2026-04-26T08:18:08.999Z</time></trkpt><trkpt lat="45.328057095736575" lon="11.79602373065803"><ele>10.666666666666666</ele><time>2026-04-26T08:18:10.999Z</time></trkpt><trkpt lat="45.32813349659923" lon="11.796067522643353"><ele>10.0</ele><time>2026-04-26T08:18:13.999Z</time></trkpt><trkpt lat="45.32821587109448" lon="11.796105075620556"><ele>9.333333333333332</ele><time>2026-04-26T08:18:16.999Z</time></trkpt><trkpt lat="45.32828839364627" lon="11.796160126493064"><ele>8.666666666666666</ele><time>2026-04-26T08:18:19.999Z</time></trkpt><trkpt lat="45.32835731188672" lon="11.796215057940953"><ele>8.0</ele><time>2026-04-26T08:18:23Z</time></trkpt><trkpt lat="45.328421561525644" lon="11.79625856801301"><ele>7.999999999999999</ele><time>2026-04-26T08:18:26Z</time></trkpt><trkpt lat="45.328478880148715" lon="11.7963220305155"><ele>8.0</ele><time>2026-04-26T08:18:29Z</time></trkpt><trkpt lat="45.32854766433818" lon="11.796377462303065"><ele>8.0</ele><time>2026-04-26T08:18:32Z</time></trkpt><trkpt lat="45.32861298429641" lon="11.796447215276794"><ele>8.0</ele><time>2026-04-26T08:18:35Z</time></trkpt><trkpt lat="45.328681763890614" lon="11.796497478818205"><ele>7.999999999999999</ele><time>2026-04-26T08:18:38Z</time></trkpt><trkpt lat="45.32873674676095" lon="11.796580686341597"><ele>8.0</ele><time>2026-04-26T08:18:41Z</time></trkpt><trkpt lat="45.32878615992122" lon="11.796644550706354"><ele>7.999999999999999</ele><time>2026-04-26T08:18:43Z</time></trkpt><trkpt lat="45.328836972690475" lon="11.796707996321164"><ele>8.0</ele><time>2026-04-26T08:18:45Z</time></trkpt><trkpt lat="45.32888947535333" lon="11.796813106198432"><ele>8.0</ele><time>2026-04-26T08:18:48Z</time></trkpt><trkpt lat="45.328947071018504" lon="11.796902883831335"><ele>8.0</ele><time>2026-04-26T08:18:51Z</time></trkpt><trkpt lat="45.32900434133475" lon="11.796984942818023"><ele>7.999999999999999</ele><time>2026-04-26T08:18:54Z</time></trkpt><trkpt lat="45.32902760965852" lon="11.797091489359936"><ele>8.0</ele><time>2026-04-26T08:18:58Z</time></trkpt><trkpt lat="45.32909791264466" lon="11.797147085868554"><ele>8.166666666666666</ele><time>2026-04-26T08:19:02Z</time></trkpt><trkpt lat="45.32914985702799" lon="11.797198374424797"><ele>8.333333333333332</ele><time>2026-04-26T08:19:04Z</time></trkpt><trkpt lat="45.329212622174595" lon="11.79722463218098"><ele>8.5</ele><time>2026-04-26T08:19:06Z</time></trkpt><trkpt lat="45.32929379704021" lon="11.79725346716731"><ele>8.666666666666666</ele><time>2026-04-26T08:19:09Z</time></trkpt><trkpt lat="45.329379434788216" lon="11.79729054104577"><ele>8.833333333333334</ele><time>2026-04-26T08:19:12Z</time></trkpt><trkpt lat="45.32946464804996" lon="11.79729666476424"><ele>9.0</ele><time>2026-04-26T08:19:15Z</time></trkpt><trkpt lat="45.329536674428404" lon="11.797361129218615"><ele>9.0</ele><time>2026-04-26T08:19:18Z</time></trkpt><trkpt lat="45.32961183770028" lon="11.797408047187952"><ele>9.0</ele><time>2026-04-26T08:19:21Z</time></trkpt><trkpt lat="45.329684816038935" lon="11.7974460103262"><ele>9.0</ele><time>2026-04-26T08:19:24Z</time></trkpt><trkpt lat="45.32975038157421" lon="11.797458926912554"><ele>9.0</ele><time>2026-04-26T08:19:26Z</time></trkpt><trkpt lat="45.32982957775099" lon="11.797505816828668"><ele>9.0</ele><time>2026-04-26T08:19:29Z</time></trkpt><trkpt lat="45.329899883906705" lon="11.797571655512453"><ele>9.0</ele><time>2026-04-26T08:19:32Z</time></trkpt><trkpt lat="45.32998267284081" lon="11.797589552231441"><ele>9.0</ele><time>2026-04-26T08:19:35Z</time></trkpt><trkpt lat="45.330056984165154" lon="11.797622526553246"><ele>9.0</ele><time>2026-04-26T08:19:38Z</time></trkpt><trkpt lat="45.33013515469315" lon="11.797661293227065"><ele>9.0</ele><time>2026-04-26T08:19:41Z</time></trkpt><trkpt lat="45.33020683654764" lon="11.797706554635077"><ele>9.0</ele><time>2026-04-26T08:19:43.999Z</time></trkpt><trkpt lat="45.33028097055516" lon="11.797743436197884"><ele>9.0</ele><time>2026-04-26T08:19:46.999Z</time></trkpt><trkpt lat="45.330355247456225" lon="11.797773455795587"><ele>9.0</ele><time>2026-04-26T08:19:49.999Z</time></trkpt><trkpt lat="45.33042480472093" lon="11.797815772983604"><ele>9.0</ele><time>2026-04-26T08:19:52.999Z</time></trkpt><trkpt lat="45.33050352577402" lon="11.797849403981939"><ele>9.0</ele><time>2026-04-26T08:19:55.999Z</time></trkpt><trkpt lat="45.33058184626573" lon="11.797894722351668"><ele>9.0</ele><time>2026-04-26T08:19:58.999Z</time></trkpt><trkpt lat="45.330667607000414" lon="11.797929014864827"><ele>9.0</ele><time>2026-04-26T08:20:01.999Z</time></trkpt><trkpt lat="45.33073994532833" lon="11.797987848589488"><ele>9.0</ele><time>2026-04-26T08:20:04.999Z</time></trkpt><trkpt lat="45.33082993673188" lon="11.79801773059716"><ele>9.0</ele><time>2026-04-26T08:20:07.999Z</time></trkpt><trkpt lat="45.330889560812864" lon="11.798058963611807"><ele>9.0</ele><time>2026-04-26T08:20:09.999Z</time></trkpt><trkpt lat="45.33096914294475" lon="11.798082808650681"><ele>9.0</ele><time>2026-04-26T08:20:12.999Z</time></trkpt><trkpt lat="45.331055858014395" lon="11.798112267511252"><ele>9.0</ele><time>2026-04-26T08:20:15.999Z</time></trkpt><trkpt lat="45.33113547994841" lon="11.798139464028596"><ele>9.0</ele><time>2026-04-26T08:20:18.999Z</time></trkpt><trkpt lat="45.33122479765371" lon="11.79816730452053"><ele>9.0</ele><time>2026-04-26T08:20:21.999Z</time></trkpt><trkpt lat="45.33130552298083" lon="11.798204855632967"><ele>9.0</ele><time>2026-04-26T08:20:24.999Z</time></trkpt><trkpt lat="45.33136156822471" lon="11.798161122793454"><ele>8.833333333333334</ele><time>2026-04-26T08:20:26.999Z</time></trkpt><trkpt lat="45.33142042943278" lon="11.798111616255246"><ele>8.666666666666666</ele><time>2026-04-26T08:20:29Z</time></trkpt><trkpt lat="45.33148155341827" lon="11.798045172020252"><ele>8.5</ele><time>2026-04-26T08:20:32Z</time></trkpt><trkpt lat="45.33154380742067" lon="11.797955172323608"><ele>8.333333333333332</ele><time>2026-04-26T08:20:35Z</time></trkpt><trkpt lat="45.33161528051401" lon="11.797869400361305"><ele>8.166666666666666</ele><time>2026-04-26T08:20:38Z</time></trkpt><trkpt lat="45.331659259839775" lon="11.797794432601984"><ele>8.0</ele><time>2026-04-26T08:20:41Z</time></trkpt><trkpt lat="45.33170754814734" lon="11.79770636973827"><ele>8.166666666666666</ele><time>2026-04-26T08:20:44Z</time></trkpt><trkpt lat="45.33175873931385" lon="11.797652909961963"><ele>8.333333333333332</ele><time>2026-04-26T08:20:46Z</time></trkpt><trkpt lat="45.33182825575583" lon="11.79758042754931"><ele>8.5</ele><time>2026-04-26T08:20:49Z</time></trkpt><trkpt lat="45.33189529938798" lon="11.797500768935363"><ele>8.666666666666666</ele><time>2026-04-26T08:20:52Z</time></trkpt><trkpt lat="45.33195643938436" lon="11.797435621666962"><ele>8.833333333333334</ele><time>2026-04-26T08:20:55Z</time></trkpt><trkpt lat="45.33200399166033" lon="11.797358312324203"><ele>9.0</ele><time>2026-04-26T08:20:58Z</time></trkpt><trkpt lat="45.33206906180215" lon="11.797290393487886"><ele>9.0</ele><time>2026-04-26T08:21:01Z</time></trkpt><trkpt lat="45.332118211452574" lon="11.797210058473707"><ele>9.0</ele><time>2026-04-26T08:21:04Z</time></trkpt><trkpt lat="45.33217625063967" lon="11.797135049847125"><ele>9.0</ele><time>2026-04-26T08:21:07Z</time></trkpt><trkpt lat="45.33223706606144" lon="11.797060158318358"><ele>9.0</ele><time>2026-04-26T08:21:10Z</time></trkpt><trkpt lat="45.33230060979013" lon="11.796984330923765"><ele>9.0</ele><time>2026-04-26T08:21:13Z</time></trkpt><trkpt lat="45.33235292883554" lon="11.796903179280202"><ele>9.0</ele><time>2026-04-26T08:21:16Z</time></trkpt><trkpt lat="45.33240638252366" lon="11.79682419037283"><ele>9.333333333333334</ele><time>2026-04-26T08:21:19Z</time></trkpt><trkpt lat="45.3324567406038" lon="11.796737096316702"><ele>9.666666666666666</ele><time>2026-04-26T08:21:22Z</time></trkpt><trkpt lat="45.33250883742309" lon="11.796658040679004"><ele>10.0</ele><time>2026-04-26T08:21:25Z</time></trkpt><trkpt lat="45.33258699917809" lon="11.796628349975188"><ele>10.333333333333332</ele><time>2026-04-26T08:21:28Z</time></trkpt><trkpt lat="45.332645931607004" lon="11.796559916122469"><ele>10.666666666666666</ele><time>2026-04-26T08:21:31Z</time></trkpt><trkpt lat="45.33272046559513" lon="11.79649806173609"><ele>11.0</ele><time>2026-04-26T08:21:34Z</time></trkpt><trkpt lat="45.33278540553038" lon="11.796437419571456"><ele>11.0</ele><time>2026-04-26T08:21:37Z</time></trkpt><trkpt lat="45.33284831770485" lon="11.796379885796842"><ele>11.0</ele><time>2026-04-26T08:21:40Z</time></trkpt><trkpt lat="45.33292231699763" lon="11.796314454114412"><ele>11.0</ele><time>2026-04-26T08:21:42.999Z</time></trkpt><trkpt lat="45.332977809255524" lon="11.796244761635988"><ele>11.0</ele><time>2026-04-26T08:21:45.999Z</time></trkpt><trkpt lat="45.33305155569043" lon="11.796188984624534"><ele>11.0</ele><time>2026-04-26T08:21:48.999Z</time></trkpt><trkpt lat="45.33311166054462" lon="11.79612715418184"><ele>11.0</ele><time>2026-04-26T08:21:51.999Z</time></trkpt><trkpt lat="45.33317485669252" lon="11.796052958022127"><ele>10.5</ele><time>2026-04-26T08:21:54.999Z</time></trkpt><trkpt lat="45.333253626302906" lon="11.795999640904506"><ele>10.0</ele><time>2026-04-26T08:21:57.999Z</time></trkpt><trkpt lat="45.33332856108889" lon="11.79593737980466"><ele>9.5</ele><time>2026-04-26T08:22:00.999Z</time></trkpt><trkpt lat="45.33338612661326" lon="11.795882425991016"><ele>9.0</ele><time>2026-04-26T08:22:03.999Z</time></trkpt><trkpt lat="45.33344903407524" lon="11.795823573077648"><ele>8.5</ele><time>2026-04-26T08:22:06.999Z</time></trkpt><trkpt lat="45.33352211500996" lon="11.79576584652801"><ele>8.0</ele><time>2026-04-26T08:22:09.999Z</time></trkpt><trkpt lat="45.33359533556024" lon="11.7957167188937"><ele>7.999999999999999</ele><time>2026-04-26T08:22:12.999Z</time></trkpt><trkpt lat="45.33367474309705" lon="11.795670505612383"><ele>8.0</ele><time>2026-04-26T08:22:15.999Z</time></trkpt><trkpt lat="45.33374568126926" lon="11.795612985847882"><ele>8.0</ele><time>2026-04-26T08:22:18.999Z</time></trkpt><trkpt lat="45.33382546711654" lon="11.795563227766614"><ele>8.0</ele><time>2026-04-26T08:22:21.999Z</time></trkpt><trkpt lat="45.33388404628767" lon="11.79550509675397"><ele>7.999999999999999</ele><time>2026-04-26T08:22:24.999Z</time></trkpt><trkpt lat="45.333957906920126" lon="11.795469083487314"><ele>8.0</ele><time>2026-04-26T08:22:27.999Z</time></trkpt><trkpt lat="45.33401960345557" lon="11.795407496600903"><ele>8.0</ele><time>2026-04-26T08:22:30.999Z</time></trkpt><trkpt lat="45.334065584797926" lon="11.795335286006818"><ele>7.999999999999999</ele><time>2026-04-26T08:22:34Z</time></trkpt><trkpt lat="45.33412705637693" lon="11.79531068645123"><ele>8.0</ele><time>2026-04-26T08:22:36Z</time></trkpt><trkpt lat="45.33418584125559" lon="11.79524805799481"><ele>8.0</ele><time>2026-04-26T08:22:39Z</time></trkpt><trkpt lat="45.33427306490244" lon="11.795205604099134"><ele>7.999999999999999</ele><time>2026-04-26T08:22:42Z</time></trkpt><trkpt lat="45.334341083721256" lon="11.795146500611644"><ele>8.0</ele><time>2026-04-26T08:22:45Z</time></trkpt><trkpt lat="45.334393911434915" lon="11.795092202064303"><ele>8.0</ele><time>2026-04-26T08:22:48Z</time></trkpt><trkpt lat="45.33447136225101" lon="11.795038299867699"><ele>7.999999999999999</ele><time>2026-04-26T08:22:51Z</time></trkpt><trkpt lat="45.33454274039259" lon="11.794974500281759"><ele>8.0</ele><time>2026-04-26T08:22:54Z</time></trkpt><trkpt lat="45.334605406830335" lon="11.794918891532319"><ele>8.0</ele><time>2026-04-26T08:22:57Z</time></trkpt><trkpt lat="45.33467569040731" lon="11.794872911699986"><ele>8.0</ele><time>2026-04-26T08:23:00Z</time></trkpt><trkpt lat="45.33474809887616" lon="11.794811681341338"><ele>7.999999999999999</ele><time>2026-04-26T08:23:03Z</time></trkpt><trkpt lat="45.33481421026338" lon="11.794739536735191"><ele>8.0</ele><time>2026-04-26T08:23:06Z</time></trkpt><trkpt lat="45.33488440125036" lon="11.794683125690165"><ele>8.166666666666666</ele><time>2026-04-26T08:23:09Z</time></trkpt><trkpt lat="45.3349466979158" lon="11.794613397152835"><ele>8.333333333333332</ele><time>2026-04-26T08:23:12Z</time></trkpt><trkpt lat="45.33501180620347" lon="11.794541755717296"><ele>8.5</ele><time>2026-04-26T08:23:15Z</time></trkpt><trkpt lat="45.33507785885931" lon="11.794482391891908"><ele>8.666666666666666</ele><time>2026-04-26T08:23:18Z</time></trkpt><trkpt lat="45.335140420000286" lon="11.794412808182615"><ele>8.833333333333334</ele><time>2026-04-26T08:23:21Z</time></trkpt><trkpt lat="45.33520127845538" lon="11.794344683908568"><ele>9.0</ele><time>2026-04-26T08:23:24Z</time></trkpt><trkpt lat="45.33526621995969" lon="11.794278874995143"><ele>9.0</ele><time>2026-04-26T08:23:27Z</time></trkpt><trkpt lat="45.33533608894484" lon="11.794212682171445"><ele>9.0</ele><time>2026-04-26T08:23:30Z</time></trkpt><trkpt lat="45.33539444380863" lon="11.794152574503851"><ele>9.0</ele><time>2026-04-26T08:23:33Z</time></trkpt><trkpt lat="45.3354430535867" lon="11.794076057086734"><ele>9.0</ele><time>2026-04-26T08:23:36Z</time></trkpt><trkpt lat="45.33550789996897" lon="11.794020789740634"><ele>9.0</ele><time>2026-04-26T08:23:38.999Z</time></trkpt><trkpt lat="45.335568434965055" lon="11.793946288326623"><ele>9.0</ele><time>2026-04-26T08:23:41.999Z</time></trkpt><trkpt lat="45.3356052343211" lon="11.793853084736858"><ele>9.0</ele><time>2026-04-26T08:23:44.999Z</time></trkpt><trkpt lat="45.33562095296691" lon="11.793764333991334"><ele>9.0</ele><time>2026-04-26T08:23:46.999Z</time></trkpt><trkpt lat="45.335588582804334" lon="11.793683292501951"><ele>9.0</ele><time>2026-04-26T08:23:48.999Z</time></trkpt><trkpt lat="45.335528435975704" lon="11.793606376747592"><ele>9.0</ele><time>2026-04-26T08:23:51.999Z</time></trkpt><trkpt lat="45.335470399469266" lon="11.793516144047608"><ele>9.0</ele><time>2026-04-26T08:23:54.999Z</time></trkpt><trkpt lat="45.3354095963095" lon="11.793417079209547"><ele>9.0</ele><time>2026-04-26T08:23:57.999Z</time></trkpt><trkpt lat="45.33535388626525" lon="11.79335067006769"><ele>9.5</ele><time>2026-04-26T08:24:00.999Z</time></trkpt><trkpt lat="45.33529258949472" lon="11.79327821699064"><ele>10.0</ele><time>2026-04-26T08:24:03.999Z</time></trkpt><trkpt lat="45.335232515175555" lon="11.793219706696737"><ele>10.5</ele><time>2026-04-26T08:24:06.999Z</time></trkpt><trkpt lat="45.33516723559464" lon="11.793147912311778"><ele>11.0</ele><time>2026-04-26T08:24:09.999Z</time></trkpt><trkpt lat="45.33509748247164" lon="11.793073329548601"><ele>11.5</ele><time>2026-04-26T08:24:12.999Z</time></trkpt><trkpt lat="45.335034374744204" lon="11.792992235437913"><ele>12.0</ele><time>2026-04-26T08:24:15.999Z</time></trkpt><trkpt lat="45.33497551911298" lon="11.792898144347477"><ele>12.0</ele><time>2026-04-26T08:24:18.999Z</time></trkpt><trkpt lat="45.33491177698619" lon="11.792826302960373"><ele>12.0</ele><time>2026-04-26T08:24:21.999Z</time></trkpt><trkpt lat="45.3348522450566" lon="11.792758052338165"><ele>12.0</ele><time>2026-04-26T08:24:24.999Z</time></trkpt><trkpt lat="45.33479610779116" lon="11.79269377724339"><ele>12.0</ele><time>2026-04-26T08:24:27.999Z</time></trkpt><trkpt lat="45.33472137607588" lon="11.792622697719999"><ele>12.0</ele><time>2026-04-26T08:24:30.999Z</time></trkpt><trkpt lat="45.33464909327091" lon="11.792555802360445"><ele>12.0</ele><time>2026-04-26T08:24:33.999Z</time></trkpt><trkpt lat="45.33460136096122" lon="11.792490555136549"><ele>12.333333333333334</ele><time>2026-04-26T08:24:35.999Z</time></trkpt><trkpt lat="45.33454277006305" lon="11.792432885127479"><ele>12.666666666666668</ele><time>2026-04-26T08:24:38.999Z</time></trkpt><trkpt lat="45.33449838652546" lon="11.79235701465439"><ele>13.0</ele><time>2026-04-26T08:24:42Z</time></trkpt><trkpt lat="45.33446642240245" lon="11.792244202829156"><ele>13.333333333333334</ele><time>2026-04-26T08:24:45Z</time></trkpt><trkpt lat="45.33440593130966" lon="11.7921666554875"><ele>13.666666666666668</ele><time>2026-04-26T08:24:48Z</time></trkpt><trkpt lat="45.33435118778069" lon="11.792118952895859"><ele>14.0</ele><time>2026-04-26T08:24:50Z</time></trkpt><trkpt lat="45.33426801015762" lon="11.792118585328621"><ele>14.0</ele><time>2026-04-26T08:24:53Z</time></trkpt><trkpt lat="45.33419422112038" lon="11.79212234797086"><ele>14.0</ele><time>2026-04-26T08:24:56Z</time></trkpt><trkpt lat="45.334107220371095" lon="11.792101807617797"><ele>14.0</ele><time>2026-04-26T08:24:59Z</time></trkpt><trkpt lat="45.33403455931024" lon="11.79205349398141"><ele>14.0</ele><time>2026-04-26T08:25:02Z</time></trkpt><trkpt lat="45.33397034736679" lon="11.792030808805727"><ele>14.0</ele><time>2026-04-26T08:25:04Z</time></trkpt><trkpt lat="45.33390509748511" lon="11.792001356750328"><ele>14.0</ele><time>2026-04-26T08:25:07Z</time></trkpt><trkpt lat="45.33383682003815" lon="11.79198787603563"><ele>14.0</ele><time>2026-04-26T08:25:10Z</time></trkpt><trkpt lat="45.3337648632688" lon="11.7919510687457"><ele>13.500000000000002</ele><time>2026-04-26T08:25:13Z</time></trkpt><trkpt lat="45.3336737739592" lon="11.79192449923931"><ele>13.0</ele><time>2026-04-26T08:25:16Z</time></trkpt><trkpt lat="45.33358937779257" lon="11.791886867976606"><ele>12.5</ele><time>2026-04-26T08:25:19Z</time></trkpt><trkpt lat="45.33351704308438" lon="11.791846476990854"><ele>12.0</ele><time>2026-04-26T08:25:24Z</time></trkpt><trkpt lat="45.33342789141515" lon="11.791808084815461"><ele>11.5</ele><time>2026-04-26T08:25:27Z</time></trkpt><trkpt lat="45.33333758272333" lon="11.791783020938157"><ele>11.0</ele><time>2026-04-26T08:25:30Z</time></trkpt><trkpt lat="45.33326159310497" lon="11.791747338873302"><ele>10.833333333333332</ele><time>2026-04-26T08:25:33Z</time></trkpt><trkpt lat="45.33318462933079" lon="11.791737659713187"><ele>10.666666666666666</ele><time>2026-04-26T08:25:36Z</time></trkpt><trkpt lat="45.33310905689491" lon="11.791690757972338"><ele>10.5</ele><time>2026-04-26T08:25:39Z</time></trkpt><trkpt lat="45.33304098914416" lon="11.791651756044395"><ele>10.333333333333334</ele><time>2026-04-26T08:25:42Z</time></trkpt><trkpt lat="45.33296633831969" lon="11.791592435634303"><ele>10.166666666666668</ele><time>2026-04-26T08:25:45Z</time></trkpt><trkpt lat="45.33288459981414" lon="11.791543027039328"><ele>10.0</ele><time>2026-04-26T08:25:48Z</time></trkpt><trkpt lat="45.3328000488761" lon="11.791506137665284"><ele>9.666666666666668</ele><time>2026-04-26T08:25:50.999Z</time></trkpt><trkpt lat="45.33273091272209" lon="11.791481751769156"><ele>9.333333333333334</ele><time>2026-04-26T08:25:53.999Z</time></trkpt><trkpt lat="45.33266479372073" lon="11.791456697941264"><ele>9.0</ele><time>2026-04-26T08:25:56.999Z</time></trkpt><trkpt lat="45.33259799893354" lon="11.791413662387045"><ele>8.666666666666666</ele><time>2026-04-26T08:25:59.999Z</time></trkpt><trkpt lat="45.33260902925309" lon="11.791286380702791"><ele>8.333333333333332</ele><time>2026-04-26T08:26:02.999Z</time></trkpt><trkpt lat="45.332668523390346" lon="11.791187965401718"><ele>8.0</ele><time>2026-04-26T08:26:05.999Z</time></trkpt><trkpt lat="45.33274529741952" lon="11.791112278022101"><ele>7.999999999999999</ele><time>2026-04-26T08:26:08.999Z</time></trkpt><trkpt lat="45.33281206821004" lon="11.791045951845508"><ele>8.0</ele><time>2026-04-26T08:26:11.999Z</time></trkpt><trkpt lat="45.33287077052461" lon="11.790974656208977"><ele>8.0</ele><time>2026-04-26T08:26:14.999Z</time></trkpt><trkpt lat="45.33293491771365" lon="11.79090928978628"><ele>8.0</ele><time>2026-04-26T08:26:17.999Z</time></trkpt><trkpt lat="45.33298945551205" lon="11.7908059806136"><ele>7.999999999999999</ele><time>2026-04-26T08:26:20.999Z</time></trkpt><trkpt lat="45.3330454377727" lon="11.790720652290009"><ele>8.0</ele><time>2026-04-26T08:26:23.999Z</time></trkpt><trkpt lat="45.333089365239054" lon="11.790632259406609"><ele>7.999999999999999</ele><time>2026-04-26T08:26:26.999Z</time></trkpt><trkpt lat="45.33314671926716" lon="11.790548552482681"><ele>8.0</ele><time>2026-04-26T08:26:29.999Z</time></trkpt><trkpt lat="45.33319515522283" lon="11.790460803185985"><ele>8.0</ele><time>2026-04-26T08:26:32.999Z</time></trkpt><trkpt lat="45.33326254540556" lon="11.790374178211886"><ele>8.0</ele><time>2026-04-26T08:26:35.999Z</time></trkpt><trkpt lat="45.33332398081288" lon="11.790297641132984"><ele>7.999999999999999</ele><time>2026-04-26T08:26:38.999Z</time></trkpt><trkpt lat="45.333402895765396" lon="11.790242558333487"><ele>8.0</ele><time>2026-04-26T08:26:41.999Z</time></trkpt><trkpt lat="45.33345803310179" lon="11.790180757685011"><ele>7.857142857142857</ele><time>2026-04-26T08:26:44.999Z</time></trkpt><trkpt lat="45.333475657755955" lon="11.79008649379475"><ele>7.7142857142857135</ele><time>2026-04-26T08:26:47Z</time></trkpt><trkpt lat="45.333542566642556" lon="11.790005968826094"><ele>7.571428571428571</ele><time>2026-04-26T08:26:50Z</time></trkpt><trkpt lat="45.33359886860644" lon="11.789930543920448"><ele>7.428571428571429</ele><time>2026-04-26T08:26:53Z</time></trkpt><trkpt lat="45.33366451911224" lon="11.789896674884732"><ele>7.285714285714286</ele><time>2026-04-26T08:26:55Z</time></trkpt><trkpt lat="45.333696063630526" lon="11.789812922041538"><ele>7.142857142857142</ele><time>2026-04-26T08:26:57Z</time></trkpt><trkpt lat="45.33375703982132" lon="11.78974204868072"><ele>7.0</ele><time>2026-04-26T08:27:00Z</time></trkpt><trkpt lat="45.33381636772254" lon="11.7896390119812"><ele>7.000000000000001</ele><time>2026-04-26T08:27:03Z</time></trkpt><trkpt lat="45.33388457901851" lon="11.789585834767141"><ele>7.0</ele><time>2026-04-26T08:27:06Z</time></trkpt><trkpt lat="45.33394051183642" lon="11.789496414196774"><ele>7.0</ele><time>2026-04-26T08:27:09Z</time></trkpt><trkpt lat="45.3339849357664" lon="11.789405089255583"><ele>7.0</ele><time>2026-04-26T08:27:12Z</time></trkpt><trkpt lat="45.33405330950607" lon="11.789328780761092"><ele>7.000000000000001</ele><time>2026-04-26T08:27:15Z</time></trkpt><trkpt lat="45.334116963475" lon="11.789247696553474"><ele>7.0</ele><time>2026-04-26T08:27:18Z</time></trkpt><trkpt lat="45.3341673510216" lon="11.789165440277722"><ele>7.166666666666667</ele><time>2026-04-26T08:27:21Z</time></trkpt><trkpt lat="45.33423788761311" lon="11.7891210713352"><ele>7.333333333333334</ele><time>2026-04-26T08:27:24Z</time></trkpt><trkpt lat="45.33430388627893" lon="11.789075914672303"><ele>7.5</ele><time>2026-04-26T08:27:27Z</time></trkpt><trkpt lat="45.334359202042215" lon="11.788979419513026"><ele>7.666666666666666</ele><time>2026-04-26T08:27:30Z</time></trkpt><trkpt lat="45.33441429849737" lon="11.788899744651312"><ele>7.833333333333333</ele><time>2026-04-26T08:27:33Z</time></trkpt><trkpt lat="45.3344806411288" lon="11.788829907814717"><ele>8.0</ele><time>2026-04-26T08:27:36Z</time></trkpt><trkpt lat="45.33453500852027" lon="11.788738610294102"><ele>8.0</ele><time>2026-04-26T08:27:39Z</time></trkpt><trkpt lat="45.334575313740295" lon="11.788669619321048"><ele>7.999999999999999</ele><time>2026-04-26T08:27:41Z</time></trkpt><trkpt lat="45.33462305900701" lon="11.788587308856366"><ele>8.0</ele><time>2026-04-26T08:27:44Z</time></trkpt><trkpt lat="45.33468521110134" lon="11.788548398579698"><ele>8.0</ele><time>2026-04-26T08:27:46Z</time></trkpt><trkpt lat="45.33473005575314" lon="11.788449285421025"><ele>7.999999999999999</ele><time>2026-04-26T08:27:49Z</time></trkpt><trkpt lat="45.33478166023493" lon="11.788362995770326"><ele>8.0</ele><time>2026-04-26T08:27:52Z</time></trkpt><trkpt lat="45.33483271747201" lon="11.788277622830195"><ele>8.0</ele><time>2026-04-26T08:27:55Z</time></trkpt><trkpt lat="45.3348983060697" lon="11.788210871995894"><ele>7.999999999999999</ele><time>2026-04-26T08:27:57.999Z</time></trkpt><trkpt lat="45.33493147862027" lon="11.788096764811689"><ele>8.0</ele><time>2026-04-26T08:28:00.999Z</time></trkpt><trkpt lat="45.334993187773854" lon="11.788017068795932"><ele>8.0</ele><time>2026-04-26T08:28:03.999Z</time></trkpt><trkpt lat="45.33504031004956" lon="11.787936347942772"><ele>8.0</ele><time>2026-04-26T08:28:06.999Z</time></trkpt><trkpt lat="45.33508603538455" lon="11.78784383576221"><ele>7.999999999999999</ele><time>2026-04-26T08:28:09.999Z</time></trkpt><trkpt lat="45.33515084954899" lon="11.78776750817679"><ele>8.0</ele><time>2026-04-26T08:28:12.999Z</time></trkpt><trkpt lat="45.33520227804442" lon="11.787672345097063"><ele>7.999999999999999</ele><time>2026-04-26T08:28:15.999Z</time></trkpt><trkpt lat="45.33525337268319" lon="11.787589904981516"><ele>8.0</ele><time>2026-04-26T08:28:18.999Z</time></trkpt><trkpt lat="45.33529931633525" lon="11.787495963916207"><ele>8.0</ele><time>2026-04-26T08:28:21.999Z</time></trkpt><trkpt lat="45.33535921604911" lon="11.787424836223785"><ele>8.0</ele><time>2026-04-26T08:28:24.999Z</time></trkpt><trkpt lat="45.33540726835765" lon="11.787330075094744"><ele>7.999999999999999</ele><time>2026-04-26T08:28:27.999Z</time></trkpt><trkpt lat="45.33546140467492" lon="11.787250960529501"><ele>8.0</ele><time>2026-04-26T08:28:30.999Z</time></trkpt><trkpt lat="45.33551551397904" lon="11.787167513464414"><ele>7.999999999999999</ele><time>2026-04-26T08:28:33.999Z</time></trkpt><trkpt lat="45.33557838592396" lon="11.787092796104488"><ele>8.0</ele><time>2026-04-26T08:28:36.999Z</time></trkpt><trkpt lat="45.33564178492648" lon="11.787023899306032"><ele>8.0</ele><time>2026-04-26T08:28:39.999Z</time></trkpt><trkpt lat="45.335687937460946" lon="11.78691832876043"><ele>8.0</ele><time>2026-04-26T08:28:42.999Z</time></trkpt><trkpt lat="45.33573417796992" lon="11.786837995449268"><ele>7.999999999999999</ele><time>2026-04-26T08:28:45.999Z</time></trkpt><trkpt lat="45.33577802301713" lon="11.786749101498343"><ele>8.0</ele><time>2026-04-26T08:28:48.999Z</time></trkpt><trkpt lat="45.33583136733512" lon="11.786662118729506"><ele>7.999999999999999</ele><time>2026-04-26T08:28:52Z</time></trkpt><trkpt lat="45.335885727616606" lon="11.786576865090423"><ele>8.0</ele><time>2026-04-26T08:28:55Z</time></trkpt><trkpt lat="45.33595080534342" lon="11.786584163362097"><ele>8.0</ele><time>2026-04-26T08:28:58Z</time></trkpt><trkpt lat="45.33601229116466" lon="11.786667088108295"><ele>8.0</ele><time>2026-04-26T08:29:01Z</time></trkpt><trkpt lat="45.33606340658342" lon="11.786769552391574"><ele>7.999999999999999</ele><time>2026-04-26T08:29:04Z</time></trkpt><trkpt lat="45.336112767605655" lon="11.786851403175561"><ele>8.0</ele><time>2026-04-26T08:29:07Z</time></trkpt><trkpt lat="45.336158976479766" lon="11.786950234293043"><ele>7.999999999999999</ele><time>2026-04-26T08:29:10Z</time></trkpt><trkpt lat="45.33622641147583" lon="11.78702494260279"><ele>8.0</ele><time>2026-04-26T08:29:13Z</time></trkpt><trkpt lat="45.336275787883395" lon="11.78710276384445"><ele>8.0</ele><time>2026-04-26T08:29:16Z</time></trkpt><trkpt lat="45.33631417663428" lon="11.787202150661566"><ele>8.0</ele><time>2026-04-26T08:29:19Z</time></trkpt><trkpt lat="45.33636697337108" lon="11.787289799221945"><ele>7.999999999999999</ele><time>2026-04-26T08:29:22Z</time></trkpt><trkpt lat="45.336417764927134" lon="11.787375270672175"><ele>8.0</ele><time>2026-04-26T08:29:25Z</time></trkpt><trkpt lat="45.336461428586425" lon="11.787452078803527"><ele>8.0</ele><time>2026-04-26T08:29:28Z</time></trkpt><trkpt lat="45.33649587370513" lon="11.787533093439034"><ele>7.999999999999999</ele><time>2026-04-26T08:29:30Z</time></trkpt><trkpt lat="45.33655084757015" lon="11.787631878866321"><ele>8.0</ele><time>2026-04-26T08:29:33Z</time></trkpt><trkpt lat="45.3366033726683" lon="11.787707943323946"><ele>8.0</ele><time>2026-04-26T08:29:36Z</time></trkpt><trkpt lat="45.33666234448469" lon="11.787771899839422"><ele>7.999999999999999</ele><time>2026-04-26T08:29:39Z</time></trkpt><trkpt lat="45.336689825739576" lon="11.787864339937896"><ele>8.0</ele><time>2026-04-26T08:29:42Z</time></trkpt><trkpt lat="45.336739285195875" lon="11.787939380105266"><ele>8.0</ele><time>2026-04-26T08:29:45Z</time></trkpt><trkpt lat="45.33678945294413" lon="11.788014719238575"><ele>7.999999999999999</ele><time>2026-04-26T08:29:48Z</time></trkpt><trkpt lat="45.33684248435015" lon="11.788103452457102"><ele>8.0</ele><time>2026-04-26T08:29:51Z</time></trkpt><trkpt lat="45.33689115485847" lon="11.78820611356497"><ele>8.0</ele><time>2026-04-26T08:29:54Z</time></trkpt><trkpt lat="45.33693854926912" lon="11.78830830215667"><ele>8.0</ele><time>2026-04-26T08:29:57Z</time></trkpt><trkpt lat="45.336994359803754" lon="11.788384363811216"><ele>7.999999999999999</ele><time>2026-04-26T08:30:00Z</time></trkpt><trkpt lat="45.33703769752569" lon="11.788482200960516"><ele>8.0</ele><time>2026-04-26T08:30:03Z</time></trkpt><trkpt lat="45.33708566757498" lon="11.788545305069944"><ele>7.999999999999999</ele><time>2026-04-26T08:30:06Z</time></trkpt><trkpt lat="45.33715175194724" lon="11.7886088139983"><ele>8.0</ele><time>2026-04-26T08:30:08.999Z</time></trkpt><trkpt lat="45.33719054762738" lon="11.788694103428615"><ele>8.0</ele><time>2026-04-26T08:30:11.999Z</time></trkpt><trkpt lat="45.337236584317246" lon="11.788779233682675"><ele>8.0</ele><time>2026-04-26T08:30:14.999Z</time></trkpt><trkpt lat="45.33728886817173" lon="11.788866386690383"><ele>7.999999999999999</ele><time>2026-04-26T08:30:17.999Z</time></trkpt><trkpt lat="45.33733514970941" lon="11.788950163086291"><ele>8.0</ele><time>2026-04-26T08:30:20.999Z</time></trkpt><trkpt lat="45.337391646373966" lon="11.789029066023371"><ele>7.999999999999999</ele><time>2026-04-26T08:30:23.999Z</time></trkpt><trkpt lat="45.33744057301108" lon="11.789107228398265"><ele>8.0</ele><time>2026-04-26T08:30:26.999Z</time></trkpt><trkpt lat="45.33748800592933" lon="11.789194393642928"><ele>8.0</ele><time>2026-04-26T08:30:29.999Z</time></trkpt><trkpt lat="45.337538838431804" lon="11.789273315199193"><ele>8.0</ele><time>2026-04-26T08:30:32.999Z</time></trkpt><trkpt lat="45.33758611123351" lon="11.789357827430903"><ele>7.999999999999999</ele><time>2026-04-26T08:30:35.999Z</time></trkpt><trkpt lat="45.33763407405763" lon="11.789442533526953"><ele>8.0</ele><time>2026-04-26T08:30:38.999Z</time></trkpt><trkpt lat="45.33767883563854" lon="11.78952192507741"><ele>7.999999999999999</ele><time>2026-04-26T08:30:41.999Z</time></trkpt><trkpt lat="45.337729507826246" lon="11.78961039571896"><ele>8.0</ele><time>2026-04-26T08:30:44.999Z</time></trkpt><trkpt lat="45.337785143043135" lon="11.789680083690053"><ele>8.0</ele><time>2026-04-26T08:30:47.999Z</time></trkpt><trkpt lat="45.33782934784408" lon="11.789780756619466"><ele>8.0</ele><time>2026-04-26T08:30:50.999Z</time></trkpt><trkpt lat="45.33789045861829" lon="11.789872175309416"><ele>7.999999999999999</ele><time>2026-04-26T08:30:53.999Z</time></trkpt><trkpt lat="45.337941812969106" lon="11.789961643186397"><ele>8.0</ele><time>2026-04-26T08:30:56.999Z</time></trkpt><trkpt lat="45.33798919275893" lon="11.790036646985303"><ele>7.999999999999999</ele><time>2026-04-26T08:31:00Z</time></trkpt><trkpt lat="45.338024260502415" lon="11.790131855117322"><ele>8.0</ele><time>2026-04-26T08:31:03Z</time></trkpt><trkpt lat="45.33804496816949" lon="11.790238174453371"><ele>8.0</ele><time>2026-04-26T08:31:06Z</time></trkpt><trkpt lat="45.33809079252569" lon="11.790334843109601"><ele>8.0</ele><time>2026-04-26T08:31:09Z</time></trkpt><trkpt lat="45.338156763511826" lon="11.790403968517833"><ele>7.999999999999999</ele><time>2026-04-26T08:31:12Z</time></trkpt><trkpt lat="45.33822138262178" lon="11.790472777224853"><ele>8.0</ele><time>2026-04-26T08:31:15Z</time></trkpt><trkpt lat="45.338290259446005" lon="11.790529870316874"><ele>8.166666666666666</ele><time>2026-04-26T08:31:18Z</time></trkpt><trkpt lat="45.33834227422586" lon="11.790612494952846"><ele>8.333333333333332</ele><time>2026-04-26T08:31:21Z</time></trkpt><trkpt lat="45.33840541083932" lon="11.790695106170885"><ele>8.5</ele><time>2026-04-26T08:31:24Z</time></trkpt><trkpt lat="45.3384539500921" lon="11.790780077938294"><ele>8.666666666666666</ele><time>2026-04-26T08:31:27Z</time></trkpt><trkpt lat="45.33848950593064" lon="11.7908718504969"><ele>8.833333333333334</ele><time>2026-04-26T08:31:30Z</time></trkpt><trkpt lat="45.338549965259496" lon="11.790945224262991"><ele>9.0</ele><time>2026-04-26T08:31:33Z</time></trkpt><trkpt lat="45.3385933132584" lon="11.791026614720204"><ele>9.0</ele><time>2026-04-26T08:31:36Z</time></trkpt><trkpt lat="45.33864893651824" lon="11.79110693731014"><ele>9.0</ele><time>2026-04-26T08:31:39Z</time></trkpt><trkpt lat="45.33869854471262" lon="11.791190585756677"><ele>9.0</ele><time>2026-04-26T08:31:42Z</time></trkpt><trkpt lat="45.33874698328335" lon="11.79127280459839"><ele>9.0</ele><time>2026-04-26T08:31:45Z</time></trkpt><trkpt lat="45.33879530311506" lon="11.791357069080396"><ele>9.0</ele><time>2026-04-26T08:31:48Z</time></trkpt><trkpt lat="45.338847060878095" lon="11.791431641777724"><ele>9.0</ele><time>2026-04-26T08:31:51Z</time></trkpt><trkpt lat="45.338895440795746" lon="11.79151502988229"><ele>9.0</ele><time>2026-04-26T08:31:54Z</time></trkpt><trkpt lat="45.338943129529554" lon="11.791592952367797"><ele>9.0</ele><time>2026-04-26T08:31:57Z</time></trkpt><trkpt lat="45.339004252181006" lon="11.79167522717788"><ele>9.0</ele><time>2026-04-26T08:32:00Z</time></trkpt><trkpt lat="45.33905399633732" lon="11.791769142229297"><ele>9.0</ele><time>2026-04-26T08:32:03Z</time></trkpt><trkpt lat="45.339099429794786" lon="11.791852067372483"><ele>9.0</ele><time>2026-04-26T08:32:06Z</time></trkpt><trkpt lat="45.33913933616059" lon="11.791941269154142"><ele>9.0</ele><time>2026-04-26T08:32:09Z</time></trkpt><trkpt lat="45.33918686151405" lon="11.792028237924445"><ele>9.0</ele><time>2026-04-26T08:32:12Z</time></trkpt><trkpt lat="45.33922330514224" lon="11.792126616109307"><ele>9.0</ele><time>2026-04-26T08:32:14.999Z</time></trkpt><trkpt lat="45.33927149045407" lon="11.792207371936225"><ele>9.0</ele><time>2026-04-26T08:32:17.999Z</time></trkpt><trkpt lat="45.33931699817186" lon="11.792312380404201"><ele>9.0</ele><time>2026-04-26T08:32:20.999Z</time></trkpt><trkpt lat="45.33935878403615" lon="11.79240089655596"><ele>9.0</ele><time>2026-04-26T08:32:23.999Z</time></trkpt><trkpt lat="45.33939478831672" lon="11.792489113747228"><ele>9.0</ele><time>2026-04-26T08:32:26.999Z</time></trkpt><trkpt lat="45.33943017429742" lon="11.79257106519472"><ele>9.0</ele><time>2026-04-26T08:32:29.999Z</time></trkpt><trkpt lat="45.339474179464695" lon="11.79267317941266"><ele>9.0</ele><time>2026-04-26T08:32:32.999Z</time></trkpt><trkpt lat="45.33951500853882" lon="11.792775775866506"><ele>9.0</ele><time>2026-04-26T08:32:35.999Z</time></trkpt><trkpt lat="45.339560204364695" lon="11.7928782225854"><ele>9.0</ele><time>2026-04-26T08:32:38.999Z</time></trkpt><trkpt lat="45.33959617618937" lon="11.792977943671271"><ele>9.0</ele><time>2026-04-26T08:32:41.999Z</time></trkpt><trkpt lat="45.33964172949194" lon="11.79306820868681"><ele>9.0</ele><time>2026-04-26T08:32:44.999Z</time></trkpt><trkpt lat="45.339685644329855" lon="11.7931691935507"><ele>9.166666666666666</ele><time>2026-04-26T08:32:47.999Z</time></trkpt><trkpt lat="45.33972973241189" lon="11.793254922311606"><ele>9.333333333333334</ele><time>2026-04-26T08:32:50.999Z</time></trkpt><trkpt lat="45.33976678830631" lon="11.79334876663497"><ele>9.5</ele><time>2026-04-26T08:32:53.999Z</time></trkpt><trkpt lat="45.33980809775604" lon="11.793442820459173"><ele>9.666666666666668</ele><time>2026-04-26T08:32:56.999Z</time></trkpt><trkpt lat="45.33985536709417" lon="11.793533708901881"><ele>9.833333333333334</ele><time>2026-04-26T08:32:59.999Z</time></trkpt><trkpt lat="45.33990515907259" lon="11.793621453132001"><ele>10.0</ele><time>2026-04-26T08:33:02.999Z</time></trkpt><trkpt lat="45.33994800073454" lon="11.793716480542711"><ele>9.666666666666668</ele><time>2026-04-26T08:33:06Z</time></trkpt><trkpt lat="45.33999428253727" lon="11.793799599214925"><ele>9.333333333333334</ele><time>2026-04-26T08:33:09Z</time></trkpt><trkpt lat="45.34003227783362" lon="11.793902734139811"><ele>9.0</ele><time>2026-04-26T08:33:12Z</time></trkpt><trkpt lat="45.340073556384645" lon="11.793997988717324"><ele>8.666666666666666</ele><time>2026-04-26T08:33:15Z</time></trkpt><trkpt lat="45.340118281305045" lon="11.794089854339434"><ele>8.333333333333332</ele><time>2026-04-26T08:33:18Z</time></trkpt><trkpt lat="45.34015103855969" lon="11.794186938718628"><ele>8.0</ele><time>2026-04-26T08:33:21Z</time></trkpt><trkpt lat="45.34018622888215" lon="11.794281609884846"><ele>7.999999999999999</ele><time>2026-04-26T08:33:24Z</time></trkpt><trkpt lat="45.34023421340648" lon="11.794366577677902"><ele>8.0</ele><time>2026-04-26T08:33:27Z</time></trkpt><trkpt lat="45.34026777613317" lon="11.794472665853274"><ele>8.0</ele><time>2026-04-26T08:33:30Z</time></trkpt><trkpt lat="45.34031711011124" lon="11.794557629163869"><ele>8.0</ele><time>2026-04-26T08:33:33Z</time></trkpt><trkpt lat="45.340353178928254" lon="11.794656079433476"><ele>7.999999999999999</ele><time>2026-04-26T08:33:36Z</time></trkpt><trkpt lat="45.34039259656411" lon="11.794757171468666"><ele>8.0</ele><time>2026-04-26T08:33:39Z</time></trkpt><trkpt lat="45.34043459962651" lon="11.794834856395603"><ele>7.999999999999999</ele><time>2026-04-26T08:33:42Z</time></trkpt><trkpt lat="45.340471459914326" lon="11.79492844322383"><ele>8.0</ele><time>2026-04-26T08:33:45Z</time></trkpt><trkpt lat="45.340515388472305" lon="11.795022669002565"><ele>8.0</ele><time>2026-04-26T08:33:48Z</time></trkpt><trkpt lat="45.34055703284141" lon="11.795117678807593"><ele>8.0</ele><time>2026-04-26T08:33:51Z</time></trkpt><trkpt lat="45.340603573141294" lon="11.795215191569085"><ele>7.999999999999999</ele><time>2026-04-26T08:33:54Z</time></trkpt><trkpt lat="45.3406539095408" lon="11.795296968696432"><ele>8.0</ele><time>2026-04-26T08:33:57Z</time></trkpt><trkpt lat="45.34069171235712" lon="11.795384688265147"><ele>8.333333333333332</ele><time>2026-04-26T08:34:00Z</time></trkpt><trkpt lat="45.340739079862395" lon="11.795463993126845"><ele>8.666666666666666</ele><time>2026-04-26T08:34:03Z</time></trkpt><trkpt lat="45.34077470958457" lon="11.795565096691824"><ele>9.0</ele><time>2026-04-26T08:34:06Z</time></trkpt><trkpt lat="45.340819054274505" lon="11.79565340784021"><ele>9.333333333333334</ele><time>2026-04-26T08:34:09Z</time></trkpt><trkpt lat="45.340873552986345" lon="11.795735979249143"><ele>9.666666666666668</ele><time>2026-04-26T08:34:12Z</time></trkpt><trkpt lat="45.34092146652601" lon="11.795833907949755"><ele>10.0</ele><time>2026-04-26T08:34:15Z</time></trkpt><trkpt lat="45.3409665217274" lon="11.795931353198368"><ele>9.833333333333334</ele><time>2026-04-26T08:34:17.999Z</time></trkpt><trkpt lat="45.341005733528526" lon="11.796017915195202"><ele>9.666666666666668</ele><time>2026-04-26T08:34:20.999Z</time></trkpt><trkpt lat="45.341058532021634" lon="11.79610089259798"><ele>9.5</ele><time>2026-04-26T08:34:23.999Z</time></trkpt><trkpt lat="45.34109942727781" lon="11.796190103504651"><ele>9.333333333333334</ele><time>2026-04-26T08:34:26.999Z</time></trkpt><trkpt lat="45.34114384563407" lon="11.796272916669684"><ele>9.166666666666666</ele><time>2026-04-26T08:34:29.999Z</time></trkpt><trkpt lat="45.34120149602609" lon="11.79635334264147"><ele>9.0</ele><time>2026-04-26T08:34:32.999Z</time></trkpt><trkpt lat="45.341249231378235" lon="11.79646273449605"><ele>9.0</ele><time>2026-04-26T08:34:35.999Z</time></trkpt><trkpt lat="45.34129760089631" lon="11.796551024095614"><ele>9.0</ele><time>2026-04-26T08:34:38.999Z</time></trkpt><trkpt lat="45.341349858304774" lon="11.796648772655553"><ele>9.0</ele><time>2026-04-26T08:34:41.999Z</time></trkpt><trkpt lat="45.34139755859248" lon="11.796737609892709"><ele>9.0</ele><time>2026-04-26T08:34:44.999Z</time></trkpt><trkpt lat="45.34144296265153" lon="11.796830475934827"><ele>9.0</ele><time>2026-04-26T08:34:47.999Z</time></trkpt><trkpt lat="45.34148732575594" lon="11.796929744313253"><ele>9.0</ele><time>2026-04-26T08:34:50.999Z</time></trkpt><trkpt lat="45.341536791944876" lon="11.797029947773146"><ele>8.833333333333334</ele><time>2026-04-26T08:34:53.999Z</time></trkpt><trkpt lat="45.341585801071844" lon="11.797129080021977"><ele>8.666666666666666</ele><time>2026-04-26T08:34:56.999Z</time></trkpt><trkpt lat="45.34163377490632" lon="11.797218802483062"><ele>8.5</ele><time>2026-04-26T08:34:59.999Z</time></trkpt><trkpt lat="45.34168837229032" lon="11.797318024258413"><ele>8.333333333333332</ele><time>2026-04-26T08:35:02.999Z</time></trkpt><trkpt lat="45.34174314214107" lon="11.797406604354268"><ele>8.166666666666666</ele><time>2026-04-26T08:35:05.999Z</time></trkpt><trkpt lat="45.341782941745244" lon="11.79749777858866"><ele>8.0</ele><time>2026-04-26T08:35:08.999Z</time></trkpt><trkpt lat="45.34183447021895" lon="11.797598374839307"><ele>8.333333333333332</ele><time>2026-04-26T08:35:12Z</time></trkpt><trkpt lat="45.34187973542439" lon="11.797688341566461"><ele>8.666666666666666</ele><time>2026-04-26T08:35:15Z</time></trkpt><trkpt lat="45.34192798408582" lon="11.79778197391358"><ele>9.0</ele><time>2026-04-26T08:35:18Z</time></trkpt><trkpt lat="45.34196871400987" lon="11.797861553070861"><ele>9.333333333333334</ele><time>2026-04-26T08:35:21Z</time></trkpt><trkpt lat="45.34202151753646" lon="11.79796060700529"><ele>9.666666666666668</ele><time>2026-04-26T08:35:24Z</time></trkpt><trkpt lat="45.34206519419193" lon="11.798052359420064"><ele>10.0</ele><time>2026-04-26T08:35:27Z</time></trkpt><trkpt lat="45.34211510834531" lon="11.798141018531943"><ele>10.0</ele><time>2026-04-26T08:35:30Z</time></trkpt><trkpt lat="45.342161665678944" lon="11.79822516963276"><ele>10.0</ele><time>2026-04-26T08:35:33Z</time></trkpt><trkpt lat="45.34220221673678" lon="11.798325814221311"><ele>10.0</ele><time>2026-04-26T08:35:36Z</time></trkpt><trkpt lat="45.342257005485976" lon="11.798404726644048"><ele>10.0</ele><time>2026-04-26T08:35:39Z</time></trkpt><trkpt lat="45.34230472191793" lon="11.798489697672434"><ele>10.0</ele><time>2026-04-26T08:35:42Z</time></trkpt><trkpt lat="45.342359104067796" lon="11.798573681706829"><ele>10.0</ele><time>2026-04-26T08:35:45Z</time></trkpt><trkpt lat="45.34241743066506" lon="11.798667501759002"><ele>9.714285714285714</ele><time>2026-04-26T08:35:48Z</time></trkpt><trkpt lat="45.34247041261183" lon="11.798728059329685"><ele>9.428571428571429</ele><time>2026-04-26T08:35:51Z</time></trkpt><trkpt lat="45.342527234274165" lon="11.798768056266963"><ele>9.142857142857142</ele><time>2026-04-26T08:35:53Z</time></trkpt><trkpt lat="45.34257927507486" lon="11.798848835663089"><ele>8.857142857142858</ele><time>2026-04-26T08:35:56Z</time></trkpt><trkpt lat="45.342641827842826" lon="11.798908612442306"><ele>8.571428571428571</ele><time>2026-04-26T08:35:59Z</time></trkpt><trkpt lat="45.34267953652901" lon="11.799002436088175"><ele>8.285714285714285</ele><time>2026-04-26T08:36:02Z</time></trkpt><trkpt lat="45.34273414267784" lon="11.799067356536163"><ele>8.0</ele><time>2026-04-26T08:36:05Z</time></trkpt><trkpt lat="45.342796401361895" lon="11.799149074988563"><ele>7.999999999999999</ele><time>2026-04-26T08:36:08Z</time></trkpt><trkpt lat="45.34286105460035" lon="11.799219218138672"><ele>8.0</ele><time>2026-04-26T08:36:11Z</time></trkpt><trkpt lat="45.342912109781004" lon="11.799297341367245"><ele>8.0</ele><time>2026-04-26T08:36:14Z</time></trkpt><trkpt lat="45.34298906118996" lon="11.799362460299454"><ele>8.0</ele><time>2026-04-26T08:36:17Z</time></trkpt><trkpt lat="45.343052420524124" lon="11.799413661752798"><ele>7.999999999999999</ele><time>2026-04-26T08:36:19.999Z</time></trkpt><trkpt lat="45.34311486930743" lon="11.799471089806461"><ele>8.0</ele><time>2026-04-26T08:36:22.999Z</time></trkpt><trkpt lat="45.343167185861795" lon="11.799546184915988"><ele>8.333333333333332</ele><time>2026-04-26T08:36:25.999Z</time></trkpt><trkpt lat="45.343226347389006" lon="11.7995947398152"><ele>8.666666666666666</ele><time>2026-04-26T08:36:28.999Z</time></trkpt><trkpt lat="45.34329980366306" lon="11.799652515149363"><ele>9.0</ele><time>2026-04-26T08:36:31.999Z</time></trkpt><trkpt lat="45.343363913063826" lon="11.799705554340767"><ele>9.333333333333334</ele><time>2026-04-26T08:36:34.999Z</time></trkpt><trkpt lat="45.34342763035647" lon="11.799756268841316"><ele>9.666666666666668</ele><time>2026-04-26T08:36:37.999Z</time></trkpt><trkpt lat="45.34348725682148" lon="11.799831231035554"><ele>10.0</ele><time>2026-04-26T08:36:40.999Z</time></trkpt><trkpt lat="45.34355739946112" lon="11.799869371819684"><ele>10.0</ele><time>2026-04-26T08:36:43.999Z</time></trkpt><trkpt lat="45.34362454528916" lon="11.799916682482218"><ele>10.0</ele><time>2026-04-26T08:36:46.999Z</time></trkpt><trkpt lat="45.34369302273333" lon="11.799966717665509"><ele>10.0</ele><time>2026-04-26T08:36:49.999Z</time></trkpt><trkpt lat="45.343766194686864" lon="11.800004893911831"><ele>10.0</ele><time>2026-04-26T08:36:52.999Z</time></trkpt><trkpt lat="45.34384294079402" lon="11.80004273178245"><ele>10.0</ele><time>2026-04-26T08:36:55.999Z</time></trkpt><trkpt lat="45.343916276354754" lon="11.800077782928723"><ele>10.0</ele><time>2026-04-26T08:36:58.999Z</time></trkpt><trkpt lat="45.343992102582554" lon="11.800096967242386"><ele>10.0</ele><time>2026-04-26T08:37:01.999Z</time></trkpt><trkpt lat="45.344076137224654" lon="11.800102200781767"><ele>10.0</ele><time>2026-04-26T08:37:04.999Z</time></trkpt><trkpt lat="45.344152857860635" lon="11.800142785903597"><ele>10.0</ele><time>2026-04-26T08:37:07.999Z</time></trkpt><trkpt lat="45.344220945333056" lon="11.800219090797997"><ele>10.0</ele><time>2026-04-26T08:37:10.999Z</time></trkpt><trkpt lat="45.34427686352697" lon="11.800289736908692"><ele>10.0</ele><time>2026-04-26T08:37:13.999Z</time></trkpt><trkpt lat="45.344332186271146" lon="11.800366906697962"><ele>10.0</ele><time>2026-04-26T08:37:17Z</time></trkpt><trkpt lat="45.34439192155858" lon="11.800435292725327"><ele>10.0</ele><time>2026-04-26T08:37:20Z</time></trkpt><trkpt lat="45.3444494065636" lon="11.800503734287785"><ele>10.0</ele><time>2026-04-26T08:37:23Z</time></trkpt><trkpt lat="45.3445221000291" lon="11.800555348507018"><ele>10.0</ele><time>2026-04-26T08:37:26Z</time></trkpt><trkpt lat="45.34458145136894" lon="11.800621698581015"><ele>10.0</ele><time>2026-04-26T08:37:29Z</time></trkpt><trkpt lat="45.344645345287674" lon="11.800674183224993"><ele>10.0</ele><time>2026-04-26T08:37:32Z</time></trkpt><trkpt lat="45.34470789443027" lon="11.800689374744154"><ele>10.0</ele><time>2026-04-26T08:37:34Z</time></trkpt><trkpt lat="45.34478024238187" lon="11.800759752541087"><ele>10.0</ele><time>2026-04-26T08:37:37Z</time></trkpt><trkpt lat="45.344853895669495" lon="11.800799163808913"><ele>10.0</ele><time>2026-04-26T08:37:40Z</time></trkpt><trkpt lat="45.34492226252333" lon="11.800852608527698"><ele>10.0</ele><time>2026-04-26T08:37:43Z</time></trkpt><trkpt lat="45.34501087390699" lon="11.80089421890727"><ele>10.0</ele><time>2026-04-26T08:37:46Z</time></trkpt><trkpt lat="45.34506297319973" lon="11.800949094641453"><ele>10.0</ele><time>2026-04-26T08:37:48Z</time></trkpt><trkpt lat="45.345139697898375" lon="11.800995530080053"><ele>10.0</ele><time>2026-04-26T08:37:51Z</time></trkpt><trkpt lat="45.34521302817052" lon="11.801060094058561"><ele>10.0</ele><time>2026-04-26T08:37:54Z</time></trkpt><trkpt lat="45.34528749900154" lon="11.801108043355073"><ele>10.0</ele><time>2026-04-26T08:37:57Z</time></trkpt><trkpt lat="45.34534679214123" lon="11.801163698207693"><ele>10.0</ele><time>2026-04-26T08:38:00Z</time></trkpt><trkpt lat="45.345422663862855" lon="11.801209424623325"><ele>10.0</ele><time>2026-04-26T08:38:03Z</time></trkpt><trkpt lat="45.345487630566154" lon="11.801257224124026"><ele>10.0</ele><time>2026-04-26T08:38:06Z</time></trkpt><trkpt lat="45.34555553076525" lon="11.80130674685445"><ele>10.0</ele><time>2026-04-26T08:38:09Z</time></trkpt><trkpt lat="45.345626357427555" lon="11.801374548326"><ele>10.0</ele><time>2026-04-26T08:38:12Z</time></trkpt><trkpt lat="45.34569531071165" lon="11.801419204650212"><ele>10.0</ele><time>2026-04-26T08:38:15Z</time></trkpt><trkpt lat="45.34576685815321" lon="11.801466667633346"><ele>10.0</ele><time>2026-04-26T08:38:18Z</time></trkpt><trkpt lat="45.345829109015426" lon="11.801534450025606"><ele>10.0</ele><time>2026-04-26T08:38:21Z</time></trkpt><trkpt lat="45.34590301650217" lon="11.801559375264251"><ele>10.0</ele><time>2026-04-26T08:38:23.999Z</time></trkpt><trkpt lat="45.34596766643395" lon="11.801605729837677"><ele>10.0</ele><time>2026-04-26T08:38:26.999Z</time></trkpt><trkpt lat="45.34603734592453" lon="11.80167301522615"><ele>10.0</ele><time>2026-04-26T08:38:29.999Z</time></trkpt><trkpt lat="45.3461104193277" lon="11.80172396237967"><ele>10.0</ele><time>2026-04-26T08:38:32.999Z</time></trkpt><trkpt lat="45.346177920544726" lon="11.801774093163953"><ele>10.0</ele><time>2026-04-26T08:38:35.999Z</time></trkpt><trkpt lat="45.34625187379945" lon="11.801820871891387"><ele>10.0</ele><time>2026-04-26T08:38:38.999Z</time></trkpt><trkpt lat="45.3463256305493" lon="11.80187482113261"><ele>10.0</ele><time>2026-04-26T08:38:41.999Z</time></trkpt><trkpt lat="45.346381707551274" lon="11.801934754543852"><ele>10.0</ele><time>2026-04-26T08:38:44.999Z</time></trkpt><trkpt lat="45.346448657821306" lon="11.801979274215833"><ele>10.166666666666668</ele><time>2026-04-26T08:38:47.999Z</time></trkpt><trkpt lat="45.346521069753344" lon="11.802014121681422"><ele>10.333333333333334</ele><time>2026-04-26T08:38:50.999Z</time></trkpt><trkpt lat="45.34659696714763" lon="11.802062399394401"><ele>10.5</ele><time>2026-04-26T08:38:53.999Z</time></trkpt><trkpt lat="45.3466630244108" lon="11.802111400183291"><ele>10.666666666666666</ele><time>2026-04-26T08:38:56.999Z</time></trkpt><trkpt lat="45.34672602285772" lon="11.80216398827606"><ele>10.833333333333332</ele><time>2026-04-26T08:38:59.999Z</time></trkpt><trkpt lat="45.346792665628776" lon="11.802209473532862"><ele>11.0</ele><time>2026-04-26T08:39:02.999Z</time></trkpt><trkpt lat="45.346859534401815" lon="11.802261501823713"><ele>11.0</ele><time>2026-04-26T08:39:05.999Z</time></trkpt><trkpt lat="45.34692704959933" lon="11.802309646748412"><ele>11.0</ele><time>2026-04-26T08:39:08.999Z</time></trkpt><trkpt lat="45.34699996523353" lon="11.802360232951685"><ele>11.0</ele><time>2026-04-26T08:39:11.999Z</time></trkpt><trkpt lat="45.347066406103096" lon="11.802416235032513"><ele>11.0</ele><time>2026-04-26T08:39:14.999Z</time></trkpt><trkpt lat="45.347127016325224" lon="11.802482855830208"><ele>11.0</ele><time>2026-04-26T08:39:17.999Z</time></trkpt><trkpt lat="45.347205281853824" lon="11.802526369230831"><ele>11.0</ele><time>2026-04-26T08:39:20.999Z</time></trkpt><trkpt lat="45.34727799591753" lon="11.802569517592588"><ele>11.0</ele><time>2026-04-26T08:39:24Z</time></trkpt><trkpt lat="45.34734990136615" lon="11.802620702409381"><ele>11.0</ele><time>2026-04-26T08:39:27Z</time></trkpt><trkpt lat="45.347421062483754" lon="11.80266794879842"><ele>11.0</ele><time>2026-04-26T08:39:30Z</time></trkpt><trkpt lat="45.34749053828537" lon="11.802725585939173"><ele>11.0</ele><time>2026-04-26T08:39:33Z</time></trkpt><trkpt lat="45.347569779141594" lon="11.802767734723767"><ele>11.0</ele><time>2026-04-26T08:39:36Z</time></trkpt><trkpt lat="45.34763752741523" lon="11.802802897469794"><ele>11.0</ele><time>2026-04-26T08:39:39Z</time></trkpt><trkpt lat="45.34770386390929" lon="11.802848207690063"><ele>11.0</ele><time>2026-04-26T08:39:42Z</time></trkpt><trkpt lat="45.347770216978184" lon="11.802886630225117"><ele>11.0</ele><time>2026-04-26T08:39:45Z</time></trkpt><trkpt lat="45.34784808807752" lon="11.80293332025946"><ele>11.0</ele><time>2026-04-26T08:39:48Z</time></trkpt><trkpt lat="45.34791943167102" lon="11.802980959265168"><ele>11.0</ele><time>2026-04-26T08:39:51Z</time></trkpt><trkpt lat="45.34798379030225" lon="11.803029255590799"><ele>11.0</ele><time>2026-04-26T08:39:54Z</time></trkpt><trkpt lat="45.348050888479136" lon="11.803065213248658"><ele>11.0</ele><time>2026-04-26T08:39:57Z</time></trkpt><trkpt lat="45.34811985853694" lon="11.80311618964538"><ele>11.333333333333332</ele><time>2026-04-26T08:40:00Z</time></trkpt><trkpt lat="45.34819293505401" lon="11.803160514462224"><ele>11.666666666666666</ele><time>2026-04-26T08:40:03Z</time></trkpt><trkpt lat="45.34826564468751" lon="11.803191653126175"><ele>12.0</ele><time>2026-04-26T08:40:06Z</time></trkpt><trkpt lat="45.34833498630646" lon="11.803238973407367"><ele>12.333333333333332</ele><time>2026-04-26T08:40:09Z</time></trkpt><trkpt lat="45.3484064250356" lon="11.803293263365155"><ele>12.666666666666666</ele><time>2026-04-26T08:40:12Z</time></trkpt><trkpt lat="45.34847810355207" lon="11.803324973861542"><ele>13.0</ele><time>2026-04-26T08:40:15Z</time></trkpt><trkpt lat="45.348553404958" lon="11.803355533821774"><ele>12.999999999999998</ele><time>2026-04-26T08:40:18Z</time></trkpt><trkpt lat="45.34863190645991" lon="11.803400355104674"><ele>13.0</ele><time>2026-04-26T08:40:21Z</time></trkpt><trkpt lat="45.34869303788991" lon="11.803451019155"><ele>13.0</ele><time>2026-04-26T08:40:24Z</time></trkpt><trkpt lat="45.348782015102685" lon="11.80349610403337"><ele>13.0</ele><time>2026-04-26T08:40:27Z</time></trkpt><trkpt lat="45.34884700931863" lon="11.803519178270788"><ele>12.999999999999998</ele><time>2026-04-26T08:40:28.999Z</time></trkpt><trkpt lat="45.34891574651253" lon="11.803573676827122"><ele>13.0</ele><time>2026-04-26T08:40:31.999Z</time></trkpt><trkpt lat="45.348983808667306" lon="11.803625468974003"><ele>12.857142857142856</ele><time>2026-04-26T08:40:34.999Z</time></trkpt><trkpt lat="45.34906663515589" lon="11.803663394646092"><ele>12.714285714285715</ele><time>2026-04-26T08:40:37.999Z</time></trkpt><trkpt lat="45.349135628809876" lon="11.803729982843382"><ele>12.571428571428571</ele><time>2026-04-26T08:40:40.999Z</time></trkpt><trkpt lat="45.349199510583965" lon="11.80374159266564"><ele>12.428571428571427</ele><time>2026-04-26T08:40:42.999Z</time></trkpt><trkpt lat="45.349268754106006" lon="11.803784209522341"><ele>12.285714285714285</ele><time>2026-04-26T08:40:45.999Z</time></trkpt><trkpt lat="45.349336532759615" lon="11.803820018339453"><ele>12.142857142857142</ele><time>2026-04-26T08:40:48.999Z</time></trkpt><trkpt lat="45.349386268689805" lon="11.803882591266593"><ele>12.0</ele><time>2026-04-26T08:40:51.999Z</time></trkpt><trkpt lat="45.349467110448366" lon="11.80392338791759"><ele>12.0</ele><time>2026-04-26T08:40:54.999Z</time></trkpt><trkpt lat="45.34953984115211" lon="11.803951900571393"><ele>12.0</ele><time>2026-04-26T08:40:57.999Z</time></trkpt><trkpt lat="45.349619617727164" lon="11.803992652845782"><ele>12.0</ele><time>2026-04-26T08:41:00.999Z</time></trkpt><trkpt lat="45.34968560657466" lon="11.804032393843956"><ele>12.0</ele><time>2026-04-26T08:41:03.999Z</time></trkpt><trkpt lat="45.34975382633844" lon="11.804090741310558"><ele>12.0</ele><time>2026-04-26T08:41:06.999Z</time></trkpt><trkpt lat="45.349837296513165" lon="11.804127939846094"><ele>12.0</ele><time>2026-04-26T08:41:09.999Z</time></trkpt><trkpt lat="45.34990016033811" lon="11.80416087281577"><ele>11.666666666666666</ele><time>2026-04-26T08:41:12.999Z</time></trkpt><trkpt lat="45.349968988529426" lon="11.804208656537561"><ele>11.333333333333334</ele><time>2026-04-26T08:41:15.999Z</time></trkpt><trkpt lat="45.35004643640205" lon="11.804265862036965"><ele>11.0</ele><time>2026-04-26T08:41:18.999Z</time></trkpt><trkpt lat="45.35010298597742" lon="11.804319594550273"><ele>10.666666666666668</ele><time>2026-04-26T08:41:21.999Z</time></trkpt><trkpt lat="45.350169531000276" lon="11.80436978044444"><ele>10.333333333333334</ele><time>2026-04-26T08:41:24.999Z</time></trkpt><trkpt lat="45.3502446235822" lon="11.804415292539208"><ele>10.0</ele><time>2026-04-26T08:41:28Z</time></trkpt><trkpt lat="45.35030445608127" lon="11.80448296880497"><ele>10.0</ele><time>2026-04-26T08:41:31Z</time></trkpt><trkpt lat="45.350377161786184" lon="11.804543520752002"><ele>10.0</ele><time>2026-04-26T08:41:34Z</time></trkpt><trkpt lat="45.35044332215878" lon="11.804612483538635"><ele>10.0</ele><time>2026-04-26T08:41:37Z</time></trkpt><trkpt lat="45.35050606206415" lon="11.8046681202391"><ele>10.0</ele><time>2026-04-26T08:41:40Z</time></trkpt><trkpt lat="45.35057665352616" lon="11.804719905889318"><ele>10.0</ele><time>2026-04-26T08:41:43Z</time></trkpt><trkpt lat="45.35065489553946" lon="11.804772809182962"><ele>10.0</ele><time>2026-04-26T08:41:46Z</time></trkpt><trkpt lat="45.35070900438011" lon="11.80482609670115"><ele>10.0</ele><time>2026-04-26T08:41:49Z</time></trkpt><trkpt lat="45.350776270915354" lon="11.80488398130278"><ele>10.0</ele><time>2026-04-26T08:41:52Z</time></trkpt><trkpt lat="45.35083581660692" lon="11.804968320526031"><ele>10.0</ele><time>2026-04-26T08:41:55Z</time></trkpt><trkpt lat="45.350898352471326" lon="11.805028283023844"><ele>10.0</ele><time>2026-04-26T08:41:58Z</time></trkpt><trkpt lat="45.35095395482925" lon="11.805094496778482"><ele>10.0</ele><time>2026-04-26T08:42:01Z</time></trkpt><trkpt lat="45.35101813318897" lon="11.805122734728764"><ele>10.0</ele><time>2026-04-26T08:42:04Z</time></trkpt><trkpt lat="45.35108553228327" lon="11.805189408227056"><ele>10.0</ele><time>2026-04-26T08:42:08Z</time></trkpt><trkpt lat="45.351150583969776" lon="11.805204322051905"><ele>10.0</ele><time>2026-04-26T08:42:12Z</time></trkpt><trkpt lat="45.35121934255096" lon="11.805252503589287"><ele>10.0</ele><time>2026-04-26T08:42:15Z</time></trkpt><trkpt lat="45.35127077093632" lon="11.805337632638265"><ele>10.0</ele><time>2026-04-26T08:42:18Z</time></trkpt><trkpt lat="45.35133592478238" lon="11.805399848474377"><ele>10.0</ele><time>2026-04-26T08:42:21Z</time></trkpt><trkpt lat="45.35138838156202" lon="11.805452672506586"><ele>10.0</ele><time>2026-04-26T08:42:24Z</time></trkpt><trkpt lat="45.35145738997012" lon="11.805487546102665"><ele>10.0</ele><time>2026-04-26T08:42:27Z</time></trkpt><trkpt lat="45.351535272042234" lon="11.805530545196152"><ele>9.714285714285714</ele><time>2026-04-26T08:42:29.999Z</time></trkpt><trkpt lat="45.351594932830785" lon="11.805590565256834"><ele>9.428571428571429</ele><time>2026-04-26T08:42:32.999Z</time></trkpt><trkpt lat="45.35166246639816" lon="11.805643769190537"><ele>9.142857142857142</ele><time>2026-04-26T08:42:35.999Z</time></trkpt><trkpt lat="45.35172508282512" lon="11.805691183794535"><ele>8.857142857142858</ele><time>2026-04-26T08:42:38.999Z</time></trkpt><trkpt lat="45.35179202375554" lon="11.805746629602309"><ele>8.571428571428571</ele><time>2026-04-26T08:42:41.999Z</time></trkpt><trkpt lat="45.35185367592893" lon="11.805791226008544"><ele>8.285714285714285</ele><time>2026-04-26T08:42:44.999Z</time></trkpt><trkpt lat="45.351916887531495" lon="11.805864786069533"><ele>8.0</ele><time>2026-04-26T08:42:47.999Z</time></trkpt><trkpt lat="45.35197542478136" lon="11.805900344778014"><ele>8.0</ele><time>2026-04-26T08:42:49.999Z</time></trkpt><trkpt lat="45.35203105016748" lon="11.805956592925385"><ele>7.999999999999999</ele><time>2026-04-26T08:42:52.999Z</time></trkpt><trkpt lat="45.35209488033382" lon="11.806014733626359"><ele>8.0</ele><time>2026-04-26T08:42:55.999Z</time></trkpt><trkpt lat="45.3521522930125" lon="11.806066967304027"><ele>8.0</ele><time>2026-04-26T08:42:58.999Z</time></trkpt><trkpt lat="45.35221765504208" lon="11.80613350840328"><ele>7.999999999999999</ele><time>2026-04-26T08:43:01.999Z</time></trkpt><trkpt lat="45.352286008353204" lon="11.806174192531582"><ele>8.0</ele><time>2026-04-26T08:43:04.999Z</time></trkpt><trkpt lat="45.35235201308204" lon="11.80623076573891"><ele>8.0</ele><time>2026-04-26T08:43:07.999Z</time></trkpt><trkpt lat="45.35241776141233" lon="11.806278171798887"><ele>7.666666666666666</ele><time>2026-04-26T08:43:10.999Z</time></trkpt><trkpt lat="45.35247767303899" lon="11.806342320781095"><ele>7.333333333333333</ele><time>2026-04-26T08:43:13.999Z</time></trkpt><trkpt lat="45.352539948583946" lon="11.806389421213948"><ele>7.0</ele><time>2026-04-26T08:43:16.999Z</time></trkpt><trkpt lat="45.35261217440304" lon="11.80643641541258"><ele>6.666666666666666</ele><time>2026-04-26T08:43:19.999Z</time></trkpt><trkpt lat="45.35267883343831" lon="11.806508114841185"><ele>6.333333333333333</ele><time>2026-04-26T08:43:22.999Z</time></trkpt><trkpt lat="45.35274682460113" lon="11.806568075869919"><ele>6.0</ele><time>2026-04-26T08:43:25.999Z</time></trkpt><trkpt lat="45.35281093763455" lon="11.80661854509566"><ele>5.999999999999999</ele><time>2026-04-26T08:43:28.999Z</time></trkpt><trkpt lat="45.35287287543297" lon="11.806644730997583"><ele>6.0</ele><time>2026-04-26T08:43:31.999Z</time></trkpt><trkpt lat="45.35292989400863" lon="11.806707627625308"><ele>6.0</ele><time>2026-04-26T08:43:35Z</time></trkpt><trkpt lat="45.35300179250854" lon="11.806755867458103"><ele>6.0</ele><time>2026-04-26T08:43:38Z</time></trkpt><trkpt lat="45.35306470964491" lon="11.806815051596342"><ele>6.0</ele><time>2026-04-26T08:43:41Z</time></trkpt><trkpt lat="45.35312917552363" lon="11.806877989773312"><ele>5.999999999999999</ele><time>2026-04-26T08:43:44Z</time></trkpt><trkpt lat="45.35319163708496" lon="11.806936894570267"><ele>6.0</ele><time>2026-04-26T08:43:47Z</time></trkpt><trkpt lat="45.35325301255735" lon="11.80699580791127"><ele>6.333333333333333</ele><time>2026-04-26T08:43:50Z</time></trkpt><trkpt lat="45.35332170400987" lon="11.807040998711967"><ele>6.666666666666666</ele><time>2026-04-26T08:43:53Z</time></trkpt><trkpt lat="45.35339594871702" lon="11.807094995657476"><ele>7.0</ele><time>2026-04-26T08:43:56Z</time></trkpt><trkpt lat="45.353453531204146" lon="11.807166364767578"><ele>7.333333333333333</ele><time>2026-04-26T08:43:59Z</time></trkpt><trkpt lat="45.35352296398919" lon="11.807226641815912"><ele>7.666666666666666</ele><time>2026-04-26T08:44:02Z</time></trkpt><trkpt lat="45.35358484510586" lon="11.80728838659454"><ele>8.0</ele><time>2026-04-26T08:44:05Z</time></trkpt><trkpt lat="45.35364504702959" lon="11.80734816511138"><ele>7.999999999999999</ele><time>2026-04-26T08:44:08Z</time></trkpt><trkpt lat="45.35372280205436" lon="11.807406987426745"><ele>8.0</ele><time>2026-04-26T08:44:11Z</time></trkpt><trkpt lat="45.353789246117785" lon="11.807458032587467"><ele>8.0</ele><time>2026-04-26T08:44:14Z</time></trkpt><trkpt lat="45.353855575465346" lon="11.807515128398313"><ele>8.0</ele><time>2026-04-26T08:44:17Z</time></trkpt><trkpt lat="45.35392525298879" lon="11.80756793985222"><ele>7.999999999999999</ele><time>2026-04-26T08:44:20Z</time></trkpt><trkpt lat="45.35399688496722" lon="11.807625570288979"><ele>8.0</ele><time>2026-04-26T08:44:23Z</time></trkpt><trkpt lat="45.35407295762098" lon="11.80767709711157"><ele>8.5</ele><time>2026-04-26T08:44:26Z</time></trkpt><trkpt lat="45.35414045354651" lon="11.807716527044024"><ele>9.0</ele><time>2026-04-26T08:44:29Z</time></trkpt><trkpt lat="45.354210969161585" lon="11.807770836634582"><ele>9.5</ele><time>2026-04-26T08:44:32Z</time></trkpt><trkpt lat="45.35427533056304" lon="11.807838344600714"><ele>10.0</ele><time>2026-04-26T08:44:35Z</time></trkpt><trkpt lat="45.35434008437152" lon="11.807901583209704"><ele>10.5</ele><time>2026-04-26T08:44:38Z</time></trkpt><trkpt lat="45.35440856084865" lon="11.80794500395692"><ele>11.0</ele><time>2026-04-26T08:44:40.999Z</time></trkpt><trkpt lat="45.3544694345616" lon="11.808019819705445"><ele>11.0</ele><time>2026-04-26T08:44:43.999Z</time></trkpt><trkpt lat="45.35453243225969" lon="11.808081018629288"><ele>11.0</ele><time>2026-04-26T08:44:46.999Z</time></trkpt><trkpt lat="45.354607349495815" lon="11.808129373452848"><ele>11.0</ele><time>2026-04-26T08:44:49.999Z</time></trkpt><trkpt lat="45.35467576405651" lon="11.80817268634429"><ele>11.0</ele><time>2026-04-26T08:44:52.999Z</time></trkpt><trkpt lat="45.35472951307884" lon="11.80827571666215"><ele>11.0</ele><time>2026-04-26T08:44:55.999Z</time></trkpt><trkpt lat="45.35479466380999" lon="11.808343154404568"><ele>11.0</ele><time>2026-04-26T08:44:58.999Z</time></trkpt><trkpt lat="45.35482443871298" lon="11.808433237397976"><ele>11.166666666666666</ele><time>2026-04-26T08:45:01.999Z</time></trkpt><trkpt lat="45.35483375340937" lon="11.808557037083444"><ele>11.333333333333332</ele><time>2026-04-26T08:45:04.999Z</time></trkpt><trkpt lat="45.35483436891444" lon="11.808656833226374"><ele>11.5</ele><time>2026-04-26T08:45:07.999Z</time></trkpt><trkpt lat="45.35481530730827" lon="11.808761873421588"><ele>11.666666666666666</ele><time>2026-04-26T08:45:10.999Z</time></trkpt><trkpt lat="45.35476754544872" lon="11.808852633993142"><ele>11.833333333333334</ele><time>2026-04-26T08:45:13.999Z</time></trkpt><trkpt lat="45.35473220255033" lon="11.808946422051282"><ele>12.0</ele><time>2026-04-26T08:45:16.999Z</time></trkpt><trkpt lat="45.35471592161744" lon="11.809057735258856"><ele>12.0</ele><time>2026-04-26T08:45:19.999Z</time></trkpt><trkpt lat="45.35463278135729" lon="11.809081981141029"><ele>12.0</ele><time>2026-04-26T08:45:21.999Z</time></trkpt><trkpt lat="45.35457541749497" lon="11.809120140039811"><ele>12.0</ele><time>2026-04-26T08:45:23.999Z</time></trkpt><trkpt lat="45.35457934339236" lon="11.80921921187954"><ele>12.0</ele><time>2026-04-26T08:45:25.999Z</time></trkpt><trkpt lat="45.35456283396623" lon="11.80934804196751"><ele>12.0</ele><time>2026-04-26T08:45:28.999Z</time></trkpt><trkpt lat="45.35456289837234" lon="11.809440373724245"><ele>12.0</ele><time>2026-04-26T08:45:30.999Z</time></trkpt><trkpt lat="45.35454575012613" lon="11.809552759983571"><ele>11.5</ele><time>2026-04-26T08:45:33.999Z</time></trkpt><trkpt lat="45.35450502944462" lon="11.809669500399673"><ele>11.0</ele><time>2026-04-26T08:45:36.999Z</time></trkpt><trkpt lat="45.35445972729225" lon="11.8097795777441"><ele>10.5</ele><time>2026-04-26T08:45:40Z</time></trkpt><trkpt lat="45.35440892851334" lon="11.809882157692924"><ele>10.0</ele><time>2026-04-26T08:45:43Z</time></trkpt><trkpt lat="45.35437073451703" lon="11.809955854679446"><ele>9.5</ele><time>2026-04-26T08:45:45Z</time></trkpt><trkpt lat="45.354323575711554" lon="11.810035712398431"><ele>9.0</ele><time>2026-04-26T08:45:47Z</time></trkpt><trkpt lat="45.35426581817201" lon="11.810098577220648"><ele>9.166666666666666</ele><time>2026-04-26T08:45:49Z</time></trkpt><trkpt lat="45.354210255834936" lon="11.810214267438065"><ele>9.333333333333334</ele><time>2026-04-26T08:45:52Z</time></trkpt><trkpt lat="45.35416314636975" lon="11.810280140353914"><ele>9.5</ele><time>2026-04-26T08:45:54Z</time></trkpt><trkpt lat="45.35410529379838" lon="11.810372229656686"><ele>9.666666666666668</ele><time>2026-04-26T08:45:57Z</time></trkpt><trkpt lat="45.35405448998348" lon="11.810433958500898"><ele>9.833333333333334</ele><time>2026-04-26T08:45:59Z</time></trkpt><trkpt lat="45.354020342208905" lon="11.810509279691145"><ele>10.0</ele><time>2026-04-26T08:46:01Z</time></trkpt><trkpt lat="45.35397560135768" lon="11.810606319924883"><ele>10.0</ele><time>2026-04-26T08:46:04Z</time></trkpt><trkpt lat="45.35392091195567" lon="11.81067882639529"><ele>10.0</ele><time>2026-04-26T08:46:07Z</time></trkpt><trkpt lat="45.3538981491192" lon="11.81076448557745"><ele>10.0</ele><time>2026-04-26T08:46:09Z</time></trkpt><trkpt lat="45.35383510073439" lon="11.810861382521377"><ele>10.0</ele><time>2026-04-26T08:46:12Z</time></trkpt><trkpt lat="45.353811042647905" lon="11.81094477629798"><ele>10.0</ele><time>2026-04-26T08:46:14Z</time></trkpt><trkpt lat="45.353757092568806" lon="11.811019143198509"><ele>10.0</ele><time>2026-04-26T08:46:17Z</time></trkpt><trkpt lat="45.35373277007714" lon="11.811120648676043"><ele>10.0</ele><time>2026-04-26T08:46:20Z</time></trkpt><trkpt lat="45.35367251560474" lon="11.811194520159104"><ele>10.166666666666668</ele><time>2026-04-26T08:46:23Z</time></trkpt><trkpt lat="45.35362451787235" lon="11.811288390704956"><ele>10.333333333333334</ele><time>2026-04-26T08:46:26Z</time></trkpt><trkpt lat="45.35358665849328" lon="11.811389839603738"><ele>10.5</ele><time>2026-04-26T08:46:29Z</time></trkpt><trkpt lat="45.3535405136665" lon="11.81147980954502"><ele>10.666666666666666</ele><time>2026-04-26T08:46:32Z</time></trkpt><trkpt lat="45.353499190398274" lon="11.811568064278394"><ele>10.833333333333332</ele><time>2026-04-26T08:46:35Z</time></trkpt><trkpt lat="45.35346272079507" lon="11.811649585160295"><ele>11.0</ele><time>2026-04-26T08:46:38Z</time></trkpt><trkpt lat="45.35341230502566" lon="11.81174292633304"><ele>11.0</ele><time>2026-04-26T08:46:41Z</time></trkpt><trkpt lat="45.35337997755871" lon="11.811843141526165"><ele>11.0</ele><time>2026-04-26T08:46:44Z</time></trkpt><trkpt lat="45.353345748992524" lon="11.811938725032276"><ele>11.0</ele><time>2026-04-26T08:46:47Z</time></trkpt><trkpt lat="45.3533061364623" lon="11.81202689989593"><ele>11.0</ele><time>2026-04-26T08:46:50Z</time></trkpt><trkpt lat="45.353275085917545" lon="11.812106329815528"><ele>11.0</ele><time>2026-04-26T08:46:53Z</time></trkpt><trkpt lat="45.353233434620336" lon="11.8121777032235"><ele>11.0</ele><time>2026-04-26T08:46:55.999Z</time></trkpt><trkpt lat="45.35320028907487" lon="11.812276985718672"><ele>11.0</ele><time>2026-04-26T08:46:58.999Z</time></trkpt><trkpt lat="45.353167884837134" lon="11.812357750321988"><ele>11.0</ele><time>2026-04-26T08:47:01.999Z</time></trkpt><trkpt lat="45.353138521826416" lon="11.812447516286783"><ele>11.0</ele><time>2026-04-26T08:47:04.999Z</time></trkpt><trkpt lat="45.35310082245117" lon="11.812533297834932"><ele>11.0</ele><time>2026-04-26T08:47:07.999Z</time></trkpt><trkpt lat="45.353060563973905" lon="11.812612504249307"><ele>11.0</ele><time>2026-04-26T08:47:10.999Z</time></trkpt><trkpt lat="45.35302712823502" lon="11.812702748399024"><ele>11.0</ele><time>2026-04-26T08:47:13.999Z</time></trkpt><trkpt lat="45.352987977434786" lon="11.812796891574093"><ele>11.0</ele><time>2026-04-26T08:47:16.999Z</time></trkpt><trkpt lat="45.35294202583071" lon="11.812884420329496"><ele>11.0</ele><time>2026-04-26T08:47:19.999Z</time></trkpt><trkpt lat="45.35293364061683" lon="11.812988791808266"><ele>10.833333333333332</ele><time>2026-04-26T08:47:22.999Z</time></trkpt><trkpt lat="45.352910381208495" lon="11.813102722618984"><ele>10.666666666666666</ele><time>2026-04-26T08:47:25.999Z</time></trkpt><trkpt lat="45.35288344956288" lon="11.813209844521104"><ele>10.5</ele><time>2026-04-26T08:47:28.999Z</time></trkpt><trkpt lat="45.35283306599642" lon="11.81329522746818"><ele>10.333333333333334</ele><time>2026-04-26T08:47:32.999Z</time></trkpt><trkpt lat="45.35278644153393" lon="11.813383137924822"><ele>10.166666666666668</ele><time>2026-04-26T08:47:35.999Z</time></trkpt><trkpt lat="45.35274824198517" lon="11.813487453950659"><ele>10.0</ele><time>2026-04-26T08:47:38.999Z</time></trkpt><trkpt lat="45.35269530059295" lon="11.813564209621346"><ele>10.0</ele><time>2026-04-26T08:47:41.999Z</time></trkpt><trkpt lat="45.3526481048868" lon="11.813653835298608"><ele>10.0</ele><time>2026-04-26T08:47:44.999Z</time></trkpt><trkpt lat="45.35260893379324" lon="11.813749940366234"><ele>10.0</ele><time>2026-04-26T08:47:48Z</time></trkpt><trkpt lat="45.35257027088232" lon="11.813861158042037"><ele>10.0</ele><time>2026-04-26T08:47:51Z</time></trkpt><trkpt lat="45.35253956584809" lon="11.81396198436905"><ele>10.0</ele><time>2026-04-26T08:47:54Z</time></trkpt><trkpt lat="45.35250317698932" lon="11.814060977974536"><ele>10.0</ele><time>2026-04-26T08:47:57Z</time></trkpt><trkpt lat="45.35246884771545" lon="11.814158068161706"><ele>10.0</ele><time>2026-04-26T08:48:00Z</time></trkpt><trkpt lat="45.35242404088102" lon="11.814253265378834"><ele>10.0</ele><time>2026-04-26T08:48:03Z</time></trkpt><trkpt lat="45.352383249927925" lon="11.814324554307914"><ele>10.0</ele><time>2026-04-26T08:48:05Z</time></trkpt><trkpt lat="45.35234852660543" lon="11.814422700143654"><ele>10.0</ele><time>2026-04-26T08:48:08Z</time></trkpt><trkpt lat="45.3523232395101" lon="11.814519825038124"><ele>10.0</ele><time>2026-04-26T08:48:11Z</time></trkpt><trkpt lat="45.35229063433834" lon="11.81462806394393"><ele>10.0</ele><time>2026-04-26T08:48:14Z</time></trkpt><trkpt lat="45.3522461358096" lon="11.814727755454793"><ele>10.0</ele><time>2026-04-26T08:48:17Z</time></trkpt><trkpt lat="45.352221245992226" lon="11.814829683249874"><ele>10.0</ele><time>2026-04-26T08:48:20Z</time></trkpt><trkpt lat="45.3521846563322" lon="11.81492454405692"><ele>10.0</ele><time>2026-04-26T08:48:23Z</time></trkpt><trkpt lat="45.35215379255399" lon="11.815019846401245"><ele>10.0</ele><time>2026-04-26T08:48:26Z</time></trkpt><trkpt lat="45.352113440310305" lon="11.815121180553408"><ele>10.0</ele><time>2026-04-26T08:48:29Z</time></trkpt><trkpt lat="45.35207148434316" lon="11.815213403448286"><ele>10.0</ele><time>2026-04-26T08:48:32Z</time></trkpt><trkpt lat="45.35204566425592" lon="11.815301155077487"><ele>10.166666666666668</ele><time>2026-04-26T08:48:35Z</time></trkpt><trkpt lat="45.351994680597194" lon="11.815403170364718"><ele>10.333333333333334</ele><time>2026-04-26T08:48:38Z</time></trkpt><trkpt lat="45.35195115302412" lon="11.81548996893796"><ele>10.5</ele><time>2026-04-26T08:48:41Z</time></trkpt><trkpt lat="45.3519058563682" lon="11.815581205192007"><ele>10.666666666666666</ele><time>2026-04-26T08:48:44Z</time></trkpt><trkpt lat="45.35187971396418" lon="11.815681629893954"><ele>10.833333333333332</ele><time>2026-04-26T08:48:47Z</time></trkpt><trkpt lat="45.351850073076434" lon="11.81579106919502"><ele>11.0</ele><time>2026-04-26T08:48:50Z</time></trkpt><trkpt lat="45.35182003742024" lon="11.815886291887196"><ele>11.0</ele><time>2026-04-26T08:48:53Z</time></trkpt><trkpt lat="45.35179209537748" lon="11.815991194624534"><ele>11.0</ele><time>2026-04-26T08:48:56Z</time></trkpt><trkpt lat="45.35176456507174" lon="11.816089519791488"><ele>11.0</ele><time>2026-04-26T08:48:58.999Z</time></trkpt><trkpt lat="45.35172634869551" lon="11.816176340999778"><ele>11.0</ele><time>2026-04-26T08:49:01.999Z</time></trkpt><trkpt lat="45.351683966932406" lon="11.816278626721553"><ele>11.0</ele><time>2026-04-26T08:49:04.999Z</time></trkpt><trkpt lat="45.351642107040995" lon="11.816365497748997"><ele>11.0</ele><time>2026-04-26T08:49:07.999Z</time></trkpt><trkpt lat="45.351597927148134" lon="11.816467617401605"><ele>11.0</ele><time>2026-04-26T08:49:10.999Z</time></trkpt><trkpt lat="45.35156228591301" lon="11.816563982011303"><ele>11.0</ele><time>2026-04-26T08:49:13.999Z</time></trkpt><trkpt lat="45.351525469863134" lon="11.816660856491003"><ele>11.0</ele><time>2026-04-26T08:49:16.999Z</time></trkpt><trkpt lat="45.351492580197736" lon="11.816749989558135"><ele>11.0</ele><time>2026-04-26T08:49:19.999Z</time></trkpt><trkpt lat="45.35143743642536" lon="11.816845372193868"><ele>11.0</ele><time>2026-04-26T08:49:22.999Z</time></trkpt><trkpt lat="45.351377335977226" lon="11.816919193103198"><ele>11.0</ele><time>2026-04-26T08:49:25.999Z</time></trkpt><trkpt lat="45.35133408585868" lon="11.817016289162252"><ele>11.0</ele><time>2026-04-26T08:49:28.999Z</time></trkpt><trkpt lat="45.3512743817408" lon="11.817110948074395"><ele>11.0</ele><time>2026-04-26T08:49:31.999Z</time></trkpt><trkpt lat="45.35122220950561" lon="11.81719109493532"><ele>11.0</ele><time>2026-04-26T08:49:34.999Z</time></trkpt><trkpt lat="45.351167828949954" lon="11.817279796316896"><ele>11.0</ele><time>2026-04-26T08:49:37.999Z</time></trkpt><trkpt lat="45.35111675466295" lon="11.817362911973955"><ele>11.0</ele><time>2026-04-26T08:49:40.999Z</time></trkpt><trkpt lat="45.351062553495005" lon="11.81744695191237"><ele>11.0</ele><time>2026-04-26T08:49:43.999Z</time></trkpt><trkpt lat="45.351014570052925" lon="11.817539567936416"><ele>11.0</ele><time>2026-04-26T08:49:46.999Z</time></trkpt><trkpt lat="45.35096826871149" lon="11.817646270858424"><ele>11.0</ele><time>2026-04-26T08:49:49.999Z</time></trkpt><trkpt lat="45.35093970704508" lon="11.817745626752465"><ele>11.0</ele><time>2026-04-26T08:49:53Z</time></trkpt><trkpt lat="45.35090605158021" lon="11.817825606446581"><ele>11.0</ele><time>2026-04-26T08:49:56Z</time></trkpt><trkpt lat="45.3508677534379" lon="11.817928143713416"><ele>11.0</ele><time>2026-04-26T08:49:59Z</time></trkpt><trkpt lat="45.35081426722095" lon="11.81802927581675"><ele>11.0</ele><time>2026-04-26T08:50:03Z</time></trkpt><trkpt lat="45.350785499415274" lon="11.818120607651807"><ele>11.0</ele><time>2026-04-26T08:50:06Z</time></trkpt><trkpt lat="45.35072893781552" lon="11.818216488511814"><ele>11.0</ele><time>2026-04-26T08:50:09Z</time></trkpt><trkpt lat="45.35068815652334" lon="11.818310396450473"><ele>11.0</ele><time>2026-04-26T08:50:12Z</time></trkpt><trkpt lat="45.3506642595541" lon="11.818419566824335"><ele>11.0</ele><time>2026-04-26T08:50:15Z</time></trkpt><trkpt lat="45.350670714935305" lon="11.81853964765518"><ele>11.0</ele><time>2026-04-26T08:50:18Z</time></trkpt><trkpt lat="45.35071492099064" lon="11.818627553067165"><ele>11.0</ele><time>2026-04-26T08:50:21Z</time></trkpt><trkpt lat="45.350761535287695" lon="11.818711718707743"><ele>10.833333333333332</ele><time>2026-04-26T08:50:24Z</time></trkpt><trkpt lat="45.35082437033763" lon="11.818784284650484"><ele>10.666666666666666</ele><time>2026-04-26T08:50:27Z</time></trkpt><trkpt lat="45.350876030052746" lon="11.818860136994589"><ele>10.5</ele><time>2026-04-26T08:50:30Z</time></trkpt><trkpt lat="45.35094205021893" lon="11.818915432736045"><ele>10.333333333333334</ele><time>2026-04-26T08:50:33Z</time></trkpt><trkpt lat="45.35100586236091" lon="11.818967969050933"><ele>10.166666666666668</ele><time>2026-04-26T08:50:36Z</time></trkpt><trkpt lat="45.351068828932725" lon="11.819043193262868"><ele>10.0</ele><time>2026-04-26T08:50:39Z</time></trkpt><trkpt lat="45.351142815278756" lon="11.81909377945748"><ele>10.0</ele><time>2026-04-26T08:50:42Z</time></trkpt><trkpt lat="45.35120368657079" lon="11.81914062258571"><ele>10.0</ele><time>2026-04-26T08:50:45Z</time></trkpt><trkpt lat="45.351271243816534" lon="11.81918733502132"><ele>10.0</ele><time>2026-04-26T08:50:48Z</time></trkpt><trkpt lat="45.35132891890172" lon="11.819237513728886"><ele>10.0</ele><time>2026-04-26T08:50:51Z</time></trkpt><trkpt lat="45.35139611245831" lon="11.8192993576093"><ele>10.0</ele><time>2026-04-26T08:50:54Z</time></trkpt><trkpt lat="45.35145533549207" lon="11.819340537331117"><ele>10.0</ele><time>2026-04-26T08:50:57Z</time></trkpt><trkpt lat="45.35152293760345" lon="11.819390739049938"><ele>10.0</ele><time>2026-04-26T08:51:00Z</time></trkpt><trkpt lat="45.351596134388146" lon="11.81941440278017"><ele>10.0</ele><time>2026-04-26T08:51:03Z</time></trkpt><trkpt lat="45.351659785718645" lon="11.819475830860311"><ele>10.0</ele><time>2026-04-26T08:51:06Z</time></trkpt><trkpt lat="45.3517179386752" lon="11.819555681886586"><ele>10.0</ele><time>2026-04-26T08:51:08.999Z</time></trkpt><trkpt lat="45.351789250461636" lon="11.819601876686082"><ele>10.0</ele><time>2026-04-26T08:51:11.999Z</time></trkpt><trkpt lat="45.35185257089526" lon="11.819660583574239"><ele>10.0</ele><time>2026-04-26T08:51:14.999Z</time></trkpt><trkpt lat="45.35191285926133" lon="11.819722284174864"><ele>10.0</ele><time>2026-04-26T08:51:17.999Z</time></trkpt><trkpt lat="45.351984659067355" lon="11.819768955361514"><ele>10.0</ele><time>2026-04-26T08:51:20.999Z</time></trkpt><trkpt lat="45.352050248425606" lon="11.81983247488999"><ele>10.0</ele><time>2026-04-26T08:51:23.999Z</time></trkpt><trkpt lat="45.35212556200894" lon="11.819887258681362"><ele>10.0</ele><time>2026-04-26T08:51:26.999Z</time></trkpt><trkpt lat="45.35218724648718" lon="11.819930870575948"><ele>10.0</ele><time>2026-04-26T08:51:29.999Z</time></trkpt><trkpt lat="45.35224939260472" lon="11.819977421322612"><ele>10.0</ele><time>2026-04-26T08:51:32.999Z</time></trkpt><trkpt lat="45.352325008797145" lon="11.819974661316776"><ele>10.0</ele><time>2026-04-26T08:51:35.999Z</time></trkpt><trkpt lat="45.3523927023463" lon="11.820031057011537"><ele>10.166666666666668</ele><time>2026-04-26T08:51:38.999Z</time></trkpt><trkpt lat="45.35244945640485" lon="11.820117115571778"><ele>10.333333333333334</ele><time>2026-04-26T08:51:41.999Z</time></trkpt><trkpt lat="45.352514921303175" lon="11.820173721951011"><ele>10.5</ele><time>2026-04-26T08:51:44.999Z</time></trkpt><trkpt lat="45.35257819161097" lon="11.820208054131252"><ele>10.666666666666666</ele><time>2026-04-26T08:51:46.999Z</time></trkpt><trkpt lat="45.35263656294377" lon="11.82028397897907"><ele>10.833333333333332</ele><time>2026-04-26T08:51:49.999Z</time></trkpt><trkpt lat="45.352741951175254" lon="11.820285764876552"><ele>11.0</ele><time>2026-04-26T08:51:52.999Z</time></trkpt><trkpt lat="45.35279998847915" lon="11.82034072739607"><ele>10.833333333333332</ele><time>2026-04-26T08:51:55.999Z</time></trkpt><trkpt lat="45.352868866756864" lon="11.820406344467612"><ele>10.666666666666666</ele><time>2026-04-26T08:51:59Z</time></trkpt><trkpt lat="45.352941010033916" lon="11.820446143287487"><ele>10.5</ele><time>2026-04-26T08:52:02Z</time></trkpt><trkpt lat="45.353009272457676" lon="11.820514219435974"><ele>10.333333333333334</ele><time>2026-04-26T08:52:05Z</time></trkpt><trkpt lat="45.35307943505324" lon="11.82056113527045"><ele>10.166666666666668</ele><time>2026-04-26T08:52:08Z</time></trkpt><trkpt lat="45.3531450681505" lon="11.82062066047172"><ele>10.0</ele><time>2026-04-26T08:52:11Z</time></trkpt><trkpt lat="45.35320885861822" lon="11.820666569575808"><ele>10.0</ele><time>2026-04-26T08:52:14Z</time></trkpt><trkpt lat="45.35328420008054" lon="11.820726477952736"><ele>10.0</ele><time>2026-04-26T08:52:17Z</time></trkpt><trkpt lat="45.35334986106259" lon="11.820768715418257"><ele>10.0</ele><time>2026-04-26T08:52:20Z</time></trkpt><trkpt lat="45.35342330279942" lon="11.820803779688974"><ele>10.0</ele><time>2026-04-26T08:52:23Z</time></trkpt><trkpt lat="45.353494105895656" lon="11.820849947960191"><ele>10.0</ele><time>2026-04-26T08:52:26Z</time></trkpt><trkpt lat="45.35355613367511" lon="11.82088121772017"><ele>10.0</ele><time>2026-04-26T08:52:29Z</time></trkpt><trkpt lat="45.353619346389735" lon="11.820932016592389"><ele>9.666666666666668</ele><time>2026-04-26T08:52:32Z</time></trkpt><trkpt lat="45.35369270617039" lon="11.820994431813231"><ele>9.333333333333334</ele><time>2026-04-26T08:52:35Z</time></trkpt><trkpt lat="45.35375756219727" lon="11.821023981317907"><ele>9.0</ele><time>2026-04-26T08:52:38Z</time></trkpt><trkpt lat="45.35382406346275" lon="11.821094164650328"><ele>8.666666666666666</ele><time>2026-04-26T08:52:41Z</time></trkpt><trkpt lat="45.353894684298496" lon="11.82113155195178"><ele>8.333333333333332</ele><time>2026-04-26T08:52:44Z</time></trkpt><trkpt lat="45.35396386963381" lon="11.821167321641374"><ele>8.0</ele><time>2026-04-26T08:52:47Z</time></trkpt><trkpt lat="45.35402828531986" lon="11.821226904170087"><ele>7.999999999999999</ele><time>2026-04-26T08:52:50Z</time></trkpt><trkpt lat="45.354102477177435" lon="11.821284331105247"><ele>8.0</ele><time>2026-04-26T08:52:53Z</time></trkpt><trkpt lat="45.354171932117374" lon="11.82131967665141"><ele>8.0</ele><time>2026-04-26T08:52:56Z</time></trkpt><trkpt lat="45.35423623604556" lon="11.82136544108065"><ele>8.0</ele><time>2026-04-26T08:52:59Z</time></trkpt><trkpt lat="45.354309503446714" lon="11.821405542346557"><ele>7.999999999999999</ele><time>2026-04-26T08:53:02Z</time></trkpt><trkpt lat="45.35438599241182" lon="11.821446556963826"><ele>8.0</ele><time>2026-04-26T08:53:05Z</time></trkpt><trkpt lat="45.35445750673537" lon="11.821497804876362"><ele>7.999999999999999</ele><time>2026-04-26T08:53:08Z</time></trkpt><trkpt lat="45.354522956097995" lon="11.821543647583082"><ele>8.0</ele><time>2026-04-26T08:53:11Z</time></trkpt><trkpt lat="45.35460321791226" lon="11.821579619216674"><ele>8.0</ele><time>2026-04-26T08:53:14Z</time></trkpt><trkpt lat="45.35467588287678" lon="11.821632802761451"><ele>8.0</ele><time>2026-04-26T08:53:16.999Z</time></trkpt><trkpt lat="45.35475239335581" lon="11.82166923710029"><ele>7.999999999999999</ele><time>2026-04-26T08:53:19.999Z</time></trkpt><trkpt lat="45.35482090453284" lon="11.821716874034225"><ele>8.0</ele><time>2026-04-26T08:53:22.999Z</time></trkpt><trkpt lat="45.35489127482417" lon="11.821740459773098"><ele>7.999999999999999</ele><time>2026-04-26T08:53:25.999Z</time></trkpt><trkpt lat="45.35495559445954" lon="11.821813540168547"><ele>8.0</ele><time>2026-04-26T08:53:28.999Z</time></trkpt><trkpt lat="45.355029875096236" lon="11.821830207022392"><ele>8.0</ele><time>2026-04-26T08:53:31.999Z</time></trkpt><trkpt lat="45.35509417561762" lon="11.821871476717977"><ele>8.0</ele><time>2026-04-26T08:53:34.999Z</time></trkpt><trkpt lat="45.35516726727765" lon="11.821926852488478"><ele>7.999999999999999</ele><time>2026-04-26T08:53:37.999Z</time></trkpt><trkpt lat="45.35523730305634" lon="11.821969044456443"><ele>8.0</ele><time>2026-04-26T08:53:40.999Z</time></trkpt><trkpt lat="45.355312160093156" lon="11.822012971770237"><ele>7.999999999999999</ele><time>2026-04-26T08:53:43.999Z</time></trkpt><trkpt lat="45.35538262766401" lon="11.822046975749661"><ele>8.0</ele><time>2026-04-26T08:53:46.999Z</time></trkpt><trkpt lat="45.35544940189742" lon="11.822087593186703"><ele>8.0</ele><time>2026-04-26T08:53:49.999Z</time></trkpt><trkpt lat="45.355517156992256" lon="11.822128419449704"><ele>8.0</ele><time>2026-04-26T08:53:52.999Z</time></trkpt><trkpt lat="45.355593599905774" lon="11.822188426100158"><ele>7.999999999999999</ele><time>2026-04-26T08:53:55.999Z</time></trkpt><trkpt lat="45.35565671425016" lon="11.822232504305372"><ele>8.0</ele><time>2026-04-26T08:53:58.999Z</time></trkpt><trkpt lat="45.3557335375006" lon="11.82227865009506"><ele>8.333333333333332</ele><time>2026-04-26T08:54:01.999Z</time></trkpt><trkpt lat="45.355812585806945" lon="11.82230405157725"><ele>8.666666666666666</ele><time>2026-04-26T08:54:05Z</time></trkpt><trkpt lat="45.35588855422054" lon="11.822334038806796"><ele>9.0</ele><time>2026-04-26T08:54:08Z</time></trkpt><trkpt lat="45.35595312070569" lon="11.822409061025697"><ele>9.333333333333334</ele><time>2026-04-26T08:54:11Z</time></trkpt><trkpt lat="45.35601299446478" lon="11.82248846497066"><ele>9.666666666666668</ele><time>2026-04-26T08:54:14Z</time></trkpt><trkpt lat="45.35608291060217" lon="11.82255110736256"><ele>10.0</ele><time>2026-04-26T08:54:17Z</time></trkpt><trkpt lat="45.356140329154464" lon="11.822590474054794"><ele>10.0</ele><time>2026-04-26T08:54:19Z</time></trkpt><trkpt lat="45.356220857771866" lon="11.82264861956053"><ele>10.0</ele><time>2026-04-26T08:54:22Z</time></trkpt><trkpt lat="45.35630500277433" lon="11.82267266190384"><ele>10.0</ele><time>2026-04-26T08:54:25Z</time></trkpt><trkpt lat="45.356382276887615" lon="11.82270491378355"><ele>10.0</ele><time>2026-04-26T08:54:28Z</time></trkpt><trkpt lat="45.35645157757649" lon="11.822743728841077"><ele>10.0</ele><time>2026-04-26T08:54:31Z</time></trkpt><trkpt lat="45.35652862357393" lon="11.822779274904054"><ele>10.0</ele><time>2026-04-26T08:54:34Z</time></trkpt><trkpt lat="45.3566004858519" lon="11.822827072041857"><ele>10.166666666666668</ele><time>2026-04-26T08:54:37Z</time></trkpt><trkpt lat="45.356671764487736" lon="11.822872322644686"><ele>10.333333333333334</ele><time>2026-04-26T08:54:40Z</time></trkpt><trkpt lat="45.35673668197867" lon="11.82288948143724"><ele>10.5</ele><time>2026-04-26T08:54:43Z</time></trkpt><trkpt lat="45.356811966670605" lon="11.82291952237095"><ele>10.666666666666666</ele><time>2026-04-26T08:54:46Z</time></trkpt><trkpt lat="45.35688858831818" lon="11.822940540616344"><ele>10.833333333333332</ele><time>2026-04-26T08:54:49Z</time></trkpt><trkpt lat="45.35696211003524" lon="11.822976883788758"><ele>11.0</ele><time>2026-04-26T08:54:52Z</time></trkpt><trkpt lat="45.35703348155666" lon="11.823007184903528"><ele>11.0</ele><time>2026-04-26T08:54:55Z</time></trkpt><trkpt lat="45.35711501128771" lon="11.823022661621486"><ele>11.0</ele><time>2026-04-26T08:54:58Z</time></trkpt><trkpt lat="45.35718404245478" lon="11.82305853492608"><ele>11.0</ele><time>2026-04-26T08:55:01Z</time></trkpt><trkpt lat="45.35726802937187" lon="11.823088775653336"><ele>11.0</ele><time>2026-04-26T08:55:04Z</time></trkpt><trkpt lat="45.35734745731726" lon="11.823119216978098"><ele>11.0</ele><time>2026-04-26T08:55:07Z</time></trkpt><trkpt lat="45.35742056107401" lon="11.823135944261274"><ele>11.0</ele><time>2026-04-26T08:55:10Z</time></trkpt><trkpt lat="45.357495385841304" lon="11.823158924722353"><ele>11.0</ele><time>2026-04-26T08:55:12.999Z</time></trkpt><trkpt lat="45.35756939290573" lon="11.823182554564822"><ele>11.0</ele><time>2026-04-26T08:55:15.999Z</time></trkpt><trkpt lat="45.35764226874802" lon="11.823206474510235"><ele>11.0</ele><time>2026-04-26T08:55:18.999Z</time></trkpt><trkpt lat="45.35771495396515" lon="11.823226022801217"><ele>11.0</ele><time>2026-04-26T08:55:21.999Z</time></trkpt><trkpt lat="45.35778969145839" lon="11.823241137924427"><ele>11.0</ele><time>2026-04-26T08:55:24.999Z</time></trkpt><trkpt lat="45.357864478815785" lon="11.823249453200953"><ele>11.0</ele><time>2026-04-26T08:55:27.999Z</time></trkpt><trkpt lat="45.35794170952646" lon="11.823260540005977"><ele>11.0</ele><time>2026-04-26T08:55:30.999Z</time></trkpt><trkpt lat="45.35801772412878" lon="11.823279515936953"><ele>11.0</ele><time>2026-04-26T08:55:33.999Z</time></trkpt><trkpt lat="45.35808653074447" lon="11.823286583127684"><ele>11.0</ele><time>2026-04-26T08:55:36.999Z</time></trkpt><trkpt lat="45.35816262177206" lon="11.823305778407544"><ele>11.0</ele><time>2026-04-26T08:55:39.999Z</time></trkpt><trkpt lat="45.358229817298984" lon="11.823340787111666"><ele>11.0</ele><time>2026-04-26T08:55:42.999Z</time></trkpt><trkpt lat="45.35829853487545" lon="11.82335178049014"><ele>11.0</ele><time>2026-04-26T08:55:45.999Z</time></trkpt><trkpt lat="45.35837445554549" lon="11.823358325365646"><ele>11.0</ele><time>2026-04-26T08:55:48.999Z</time></trkpt><trkpt lat="45.358444550652685" lon="11.823369715693126"><ele>10.833333333333332</ele><time>2026-04-26T08:55:51.999Z</time></trkpt><trkpt lat="45.35851381469984" lon="11.823383048314717"><ele>10.666666666666666</ele><time>2026-04-26T08:55:54.999Z</time></trkpt><trkpt lat="45.35858371467355" lon="11.823400716788267"><ele>10.5</ele><time>2026-04-26T08:55:57.999Z</time></trkpt><trkpt lat="45.35866028927856" lon="11.823435968548058"><ele>10.333333333333334</ele><time>2026-04-26T08:56:00.999Z</time></trkpt><trkpt lat="45.35874338667682" lon="11.823440980768812"><ele>10.166666666666668</ele><time>2026-04-26T08:56:03.999Z</time></trkpt><trkpt lat="45.35881182023429" lon="11.823448771389687"><ele>10.0</ele><time>2026-04-26T08:56:05.999Z</time></trkpt><trkpt lat="45.358888184674115" lon="11.82346092887878"><ele>10.0</ele><time>2026-04-26T08:56:08.999Z</time></trkpt><trkpt lat="45.35895292429862" lon="11.82345053413999"><ele>10.0</ele><time>2026-04-26T08:56:12Z</time></trkpt><trkpt lat="45.35903224431816" lon="11.823469626708304"><ele>10.0</ele><time>2026-04-26T08:56:15Z</time></trkpt><trkpt lat="45.35912223299068" lon="11.823495158086077"><ele>10.0</ele><time>2026-04-26T08:56:19Z</time></trkpt><trkpt lat="45.359199834393344" lon="11.823497727172496"><ele>10.0</ele><time>2026-04-26T08:56:22Z</time></trkpt><trkpt lat="45.35927025831678" lon="11.823504286259446"><ele>10.0</ele><time>2026-04-26T08:56:25Z</time></trkpt><trkpt lat="45.35934157307018" lon="11.82353420453158"><ele>10.142857142857142</ele><time>2026-04-26T08:56:28Z</time></trkpt><trkpt lat="45.35942010671239" lon="11.823555094522758"><ele>10.285714285714286</ele><time>2026-04-26T08:56:31Z</time></trkpt><trkpt lat="45.35948827026446" lon="11.823556898461584"><ele>10.428571428571429</ele><time>2026-04-26T08:56:34Z</time></trkpt><trkpt lat="45.359549449786876" lon="11.82358083909542"><ele>10.571428571428571</ele><time>2026-04-26T08:56:36Z</time></trkpt><trkpt lat="45.35962339284671" lon="11.823592359338097"><ele>10.714285714285714</ele><time>2026-04-26T08:56:39Z</time></trkpt><trkpt lat="45.3596992723951" lon="11.823598398641884"><ele>10.857142857142858</ele><time>2026-04-26T08:56:42Z</time></trkpt><trkpt lat="45.35978636979958" lon="11.823609751380332"><ele>11.0</ele><time>2026-04-26T08:56:45Z</time></trkpt><trkpt lat="45.359857889456485" lon="11.823638161378707"><ele>11.0</ele><time>2026-04-26T08:56:48Z</time></trkpt><trkpt lat="45.35993525513867" lon="11.823644979491103"><ele>11.0</ele><time>2026-04-26T08:56:51Z</time></trkpt><trkpt lat="45.360009403945746" lon="11.823648501262133"><ele>11.0</ele><time>2026-04-26T08:56:54Z</time></trkpt><trkpt lat="45.36008230478054" lon="11.8236541125119"><ele>11.0</ele><time>2026-04-26T08:56:57Z</time></trkpt><trkpt lat="45.36016268161916" lon="11.823668580569823"><ele>11.0</ele><time>2026-04-26T08:57:00Z</time></trkpt><trkpt lat="45.360229906562324" lon="11.82367947363588"><ele>11.0</ele><time>2026-04-26T08:57:03Z</time></trkpt><trkpt lat="45.360308775165684" lon="11.823705376278713"><ele>11.0</ele><time>2026-04-26T08:57:06Z</time></trkpt><trkpt lat="45.360391020090404" lon="11.823719020814732"><ele>11.0</ele><time>2026-04-26T08:57:09Z</time></trkpt><trkpt lat="45.3604654284833" lon="11.823730061550119"><ele>11.0</ele><time>2026-04-26T08:57:12Z</time></trkpt><trkpt lat="45.36055368192584" lon="11.82374474899968"><ele>11.0</ele><time>2026-04-26T08:57:15.999Z</time></trkpt><trkpt lat="45.36062217232821" lon="11.823760882224754"><ele>11.0</ele><time>2026-04-26T08:57:18.999Z</time></trkpt><trkpt lat="45.36069060863256" lon="11.823762019380641"><ele>11.0</ele><time>2026-04-26T08:57:21.999Z</time></trkpt><trkpt lat="45.360774323870665" lon="11.823787703731345"><ele>10.833333333333332</ele><time>2026-04-26T08:57:24.999Z</time></trkpt><trkpt lat="45.36085071936758" lon="11.823797831011163"><ele>10.666666666666666</ele><time>2026-04-26T08:57:27.999Z</time></trkpt><trkpt lat="45.360922287074295" lon="11.823811725711973"><ele>10.5</ele><time>2026-04-26T08:57:30.999Z</time></trkpt><trkpt lat="45.361000216057626" lon="11.823813801371678"><ele>10.333333333333334</ele><time>2026-04-26T08:57:33.999Z</time></trkpt><trkpt lat="45.3610800978295" lon="11.82380340863096"><ele>10.166666666666668</ele><time>2026-04-26T08:57:36.999Z</time></trkpt><trkpt lat="45.36117067446806" lon="11.823830207910992"><ele>10.0</ele><time>2026-04-26T08:57:39.999Z</time></trkpt><trkpt lat="45.36125415904454" lon="11.823873527402677"><ele>10.0</ele><time>2026-04-26T08:57:42.999Z</time></trkpt><trkpt lat="45.36133835020454" lon="11.823895800615478"><ele>10.0</ele><time>2026-04-26T08:57:45.999Z</time></trkpt><trkpt lat="45.361420364143484" lon="11.823903747462094"><ele>10.0</ele><time>2026-04-26T08:57:48.999Z</time></trkpt><trkpt lat="45.361504065694206" lon="11.823928166601714"><ele>10.0</ele><time>2026-04-26T08:57:51.999Z</time></trkpt><trkpt lat="45.36158364639262" lon="11.823940550667652"><ele>10.0</ele><time>2026-04-26T08:57:54.999Z</time></trkpt><trkpt lat="45.36166213040071" lon="11.823944119863484"><ele>10.0</ele><time>2026-04-26T08:57:57.999Z</time></trkpt><trkpt lat="45.36173067703244" lon="11.823968972314287"><ele>10.0</ele><time>2026-04-26T08:58:00.999Z</time></trkpt><trkpt lat="45.36181096152979" lon="11.823971249095178"><ele>10.0</ele><time>2026-04-26T08:58:03.999Z</time></trkpt><trkpt lat="45.36189815110956" lon="11.823999686321738"><ele>10.0</ele><time>2026-04-26T08:58:06.999Z</time></trkpt><trkpt lat="45.3619801992296" lon="11.823994561770181"><ele>10.0</ele><time>2026-04-26T08:58:09.999Z</time></trkpt><trkpt lat="45.362063369593464" lon="11.82401690443891"><ele>10.0</ele><time>2026-04-26T08:58:12.999Z</time></trkpt><trkpt lat="45.3621253098399" lon="11.824036954615309"><ele>10.0</ele><time>2026-04-26T08:58:14.999Z</time></trkpt><trkpt lat="45.362206207720085" lon="11.82404617826557"><ele>10.0</ele><time>2026-04-26T08:58:18Z</time></trkpt><trkpt lat="45.362280435123644" lon="11.824069340855049"><ele>10.0</ele><time>2026-04-26T08:58:21Z</time></trkpt><trkpt lat="45.362363348388996" lon="11.824096727804715"><ele>10.0</ele><time>2026-04-26T08:58:24Z</time></trkpt><trkpt lat="45.362435000194495" lon="11.824105641770497"><ele>10.0</ele><time>2026-04-26T08:58:27Z</time></trkpt><trkpt lat="45.36251133001911" lon="11.824127729763212"><ele>10.0</ele><time>2026-04-26T08:58:30Z</time></trkpt><trkpt lat="45.36259535111158" lon="11.82414057619888"><ele>10.0</ele><time>2026-04-26T08:58:33Z</time></trkpt><trkpt lat="45.36265962732277" lon="11.824157521194818"><ele>10.0</ele><time>2026-04-26T08:58:36Z</time></trkpt><trkpt lat="45.36275056315361" lon="11.8241617450475"><ele>10.0</ele><time>2026-04-26T08:58:39Z</time></trkpt><trkpt lat="45.36281609010207" lon="11.82417287410116"><ele>10.0</ele><time>2026-04-26T08:58:42Z</time></trkpt><trkpt lat="45.36288137492329" lon="11.824187682516442"><ele>10.0</ele><time>2026-04-26T08:58:45Z</time></trkpt><trkpt lat="45.36296554015753" lon="11.824211219593863"><ele>10.0</ele><time>2026-04-26T08:58:48Z</time></trkpt><trkpt lat="45.36302623626194" lon="11.824238102220736"><ele>10.0</ele><time>2026-04-26T08:58:51Z</time></trkpt><trkpt lat="45.363112887472745" lon="11.824249194453568"><ele>10.0</ele><time>2026-04-26T08:58:54Z</time></trkpt><trkpt lat="45.36320369858102" lon="11.824262832428511"><ele>10.0</ele><time>2026-04-26T08:58:57Z</time></trkpt><trkpt lat="45.36327643356613" lon="11.824272750307042"><ele>10.0</ele><time>2026-04-26T08:59:00Z</time></trkpt><trkpt lat="45.36334973998205" lon="11.82428994519269"><ele>10.0</ele><time>2026-04-26T08:59:03Z</time></trkpt><trkpt lat="45.3634411667789" lon="11.824301942395312"><ele>10.0</ele><time>2026-04-26T08:59:06Z</time></trkpt><trkpt lat="45.36351242977294" lon="11.824311103528844"><ele>10.0</ele><time>2026-04-26T08:59:09Z</time></trkpt><trkpt lat="45.363598817462105" lon="11.82432868451546"><ele>10.0</ele><time>2026-04-26T08:59:12Z</time></trkpt><trkpt lat="45.36366536742433" lon="11.824351266479335"><ele>10.0</ele><time>2026-04-26T08:59:15Z</time></trkpt><trkpt lat="45.36373747831011" lon="11.824357895614922"><ele>10.0</ele><time>2026-04-26T08:59:18Z</time></trkpt><trkpt lat="45.363812887361014" lon="11.824369462691008"><ele>10.0</ele><time>2026-04-26T08:59:21Z</time></trkpt><trkpt lat="45.36388278108562" lon="11.82437301762366"><ele>10.0</ele><time>2026-04-26T08:59:24Z</time></trkpt><trkpt lat="45.36395514562104" lon="11.82440093559856"><ele>10.0</ele><time>2026-04-26T08:59:27Z</time></trkpt><trkpt lat="45.36402739479701" lon="11.824422764733582"><ele>10.0</ele><time>2026-04-26T08:59:29.999Z</time></trkpt><trkpt lat="45.36410405563541" lon="11.824445029131489"><ele>10.0</ele><time>2026-04-26T08:59:32.999Z</time></trkpt><trkpt lat="45.3641839046606" lon="11.824460640149928"><ele>10.0</ele><time>2026-04-26T08:59:35.999Z</time></trkpt><trkpt lat="45.364259704092156" lon="11.82446641831732"><ele>10.0</ele><time>2026-04-26T08:59:38.999Z</time></trkpt><trkpt lat="45.364322708651954" lon="11.824485883054393"><ele>10.0</ele><time>2026-04-26T08:59:41.999Z</time></trkpt><trkpt lat="45.3643908137521" lon="11.824499153204316"><ele>10.0</ele><time>2026-04-26T08:59:44.999Z</time></trkpt><trkpt lat="45.36446836816453" lon="11.824515757816286"><ele>10.0</ele><time>2026-04-26T08:59:47.999Z</time></trkpt><trkpt lat="45.36455182290655" lon="11.824525463607293"><ele>10.0</ele><time>2026-04-26T08:59:50.999Z</time></trkpt><trkpt lat="45.36463223459401" lon="11.824549695837662"><ele>10.0</ele><time>2026-04-26T08:59:53.999Z</time></trkpt><trkpt lat="45.36471134087637" lon="11.824556358450806"><ele>10.0</ele><time>2026-04-26T08:59:56.999Z</time></trkpt><trkpt lat="45.36478120370255" lon="11.824554034655275"><ele>10.0</ele><time>2026-04-26T08:59:59.999Z</time></trkpt><trkpt lat="45.364858028939736" lon="11.824577594578999"><ele>10.0</ele><time>2026-04-26T09:00:02.999Z</time></trkpt><trkpt lat="45.364923117398114" lon="11.824590723832506"><ele>10.0</ele><time>2026-04-26T09:00:05.999Z</time></trkpt><trkpt lat="45.36499923099065" lon="11.824603949002702"><ele>10.333333333333334</ele><time>2026-04-26T09:00:08.999Z</time></trkpt><trkpt lat="45.365068686348074" lon="11.824645575010837"><ele>10.666666666666668</ele><time>2026-04-26T09:00:11.999Z</time></trkpt><trkpt lat="45.365155154730665" lon="11.824657962941021"><ele>11.0</ele><time>2026-04-26T09:00:14.999Z</time></trkpt><trkpt lat="45.36522728530487" lon="11.824675143528252"><ele>11.333333333333334</ele><time>2026-04-26T09:00:17.999Z</time></trkpt><trkpt lat="45.365305237448005" lon="11.824677879915308"><ele>11.666666666666666</ele><time>2026-04-26T09:00:20.999Z</time></trkpt><trkpt lat="45.36538170329572" lon="11.824693370375584"><ele>12.0</ele><time>2026-04-26T09:00:24Z</time></trkpt><trkpt lat="45.36545415336094" lon="11.824708855071622"><ele>12.0</ele><time>2026-04-26T09:00:27Z</time></trkpt><trkpt lat="45.365527740550256" lon="11.824714153725038"><ele>12.0</ele><time>2026-04-26T09:00:30Z</time></trkpt><trkpt lat="45.36560779856715" lon="11.824721571643853"><ele>12.0</ele><time>2026-04-26T09:00:33Z</time></trkpt><trkpt lat="45.36568728915213" lon="11.824723839196748"><ele>12.0</ele><time>2026-04-26T09:00:36Z</time></trkpt><trkpt lat="45.36576182899909" lon="11.824742257553531"><ele>12.0</ele><time>2026-04-26T09:00:39Z</time></trkpt><trkpt lat="45.365831575775694" lon="11.82476505130862"><ele>12.0</ele><time>2026-04-26T09:00:42Z</time></trkpt><trkpt lat="45.365913554497176" lon="11.824765308654642"><ele>11.857142857142856</ele><time>2026-04-26T09:00:45Z</time></trkpt><trkpt lat="45.36598868070489" lon="11.824779419240762"><ele>11.714285714285714</ele><time>2026-04-26T09:00:48Z</time></trkpt><trkpt lat="45.36605603153456" lon="11.824804811078051"><ele>11.571428571428571</ele><time>2026-04-26T09:00:51Z</time></trkpt><trkpt lat="45.366121002920444" lon="11.824823775588447"><ele>11.428571428571427</ele><time>2026-04-26T09:00:54Z</time></trkpt><trkpt lat="45.36618564861969" lon="11.824828767304599"><ele>11.285714285714285</ele><time>2026-04-26T09:00:56Z</time></trkpt><trkpt lat="45.36626582164453" lon="11.824829536661412"><ele>11.142857142857142</ele><time>2026-04-26T09:00:59Z</time></trkpt><trkpt lat="45.3663534666338" lon="11.824848428182865"><ele>11.0</ele><time>2026-04-26T09:01:02Z</time></trkpt><trkpt lat="45.366424823564" lon="11.824863713584369"><ele>11.0</ele><time>2026-04-26T09:01:05Z</time></trkpt><trkpt lat="45.36648650315665" lon="11.824912146688765"><ele>11.0</ele><time>2026-04-26T09:01:08Z</time></trkpt><trkpt lat="45.36654893464778" lon="11.824968902967296"><ele>11.0</ele><time>2026-04-26T09:01:11Z</time></trkpt><trkpt lat="45.366608706104586" lon="11.82504532045897"><ele>11.0</ele><time>2026-04-26T09:01:14Z</time></trkpt><trkpt lat="45.366690526767016" lon="11.825088251038892"><ele>11.0</ele><time>2026-04-26T09:01:17Z</time></trkpt><trkpt lat="45.36673888137223" lon="11.82514695145522"><ele>11.0</ele><time>2026-04-26T09:01:19Z</time></trkpt><trkpt lat="45.366791969480296" lon="11.825225281508601"><ele>11.0</ele><time>2026-04-26T09:01:22Z</time></trkpt><trkpt lat="45.36683347532418" lon="11.825315460306863"><ele>11.0</ele><time>2026-04-26T09:01:24.999Z</time></trkpt><trkpt lat="45.36685972106349" lon="11.825436658840314"><ele>11.0</ele><time>2026-04-26T09:01:27.999Z</time></trkpt><trkpt lat="45.36688178724913" lon="11.825541589802677"><ele>11.0</ele><time>2026-04-26T09:01:30.999Z</time></trkpt><trkpt lat="45.36688530900255" lon="11.825643302419802"><ele>11.0</ele><time>2026-04-26T09:01:33.999Z</time></trkpt><trkpt lat="45.36691046557356" lon="11.825751730402503"><ele>11.0</ele><time>2026-04-26T09:01:36.999Z</time></trkpt><trkpt lat="45.36692013994731" lon="11.825863183239825"><ele>11.0</ele><time>2026-04-26T09:01:39.999Z</time></trkpt><trkpt lat="45.366940280339655" lon="11.825961227699434"><ele>11.0</ele><time>2026-04-26T09:01:42.999Z</time></trkpt><trkpt lat="45.366961734768346" lon="11.826084345169345"><ele>11.0</ele><time>2026-04-26T09:01:45.999Z</time></trkpt><trkpt lat="45.366977730487534" lon="11.826187078347981"><ele>11.0</ele><time>2026-04-26T09:01:48.999Z</time></trkpt><trkpt lat="45.36698565913442" lon="11.826300238536529"><ele>11.0</ele><time>2026-04-26T09:01:51.999Z</time></trkpt><trkpt lat="45.367016282379446" lon="11.826396291222405"><ele>11.0</ele><time>2026-04-26T09:01:54.999Z</time></trkpt><trkpt lat="45.36703489133926" lon="11.826493568912179"><ele>10.857142857142858</ele><time>2026-04-26T09:01:57.999Z</time></trkpt><trkpt lat="45.367044616347904" lon="11.826594142838577"><ele>10.714285714285714</ele><time>2026-04-26T09:02:00.999Z</time></trkpt><trkpt lat="45.36706644936855" lon="11.826711200801498"><ele>10.571428571428571</ele><time>2026-04-26T09:02:03.999Z</time></trkpt><trkpt lat="45.367086428520835" lon="11.82680648227373"><ele>10.428571428571429</ele><time>2026-04-26T09:02:06.999Z</time></trkpt><trkpt lat="45.36710512967571" lon="11.82690932659819"><ele>10.285714285714286</ele><time>2026-04-26T09:02:09.999Z</time></trkpt><trkpt lat="45.36712770060074" lon="11.827003492409029"><ele>10.142857142857142</ele><time>2026-04-26T09:02:12.999Z</time></trkpt><trkpt lat="45.36714200383978" lon="11.82711238082271"><ele>10.0</ele><time>2026-04-26T09:02:15.999Z</time></trkpt><trkpt lat="45.36715513603953" lon="11.827208112904039"><ele>10.0</ele><time>2026-04-26T09:02:18.999Z</time></trkpt><trkpt lat="45.36718970154778" lon="11.827306944293811"><ele>10.0</ele><time>2026-04-26T09:02:21.999Z</time></trkpt><trkpt lat="45.36720641028424" lon="11.827413122090913"><ele>10.0</ele><time>2026-04-26T09:02:24.999Z</time></trkpt><trkpt lat="45.36723581426902" lon="11.827514077236565"><ele>10.0</ele><time>2026-04-26T09:02:28Z</time></trkpt><trkpt lat="45.36724560458272" lon="11.827625520800922"><ele>10.0</ele><time>2026-04-26T09:02:31Z</time></trkpt><trkpt lat="45.367252431104745" lon="11.827728009961783"><ele>10.0</ele><time>2026-04-26T09:02:34Z</time></trkpt><trkpt lat="45.367273456999925" lon="11.827830662668372"><ele>10.5</ele><time>2026-04-26T09:02:37Z</time></trkpt><trkpt lat="45.36729500260316" lon="11.82793754285609"><ele>11.0</ele><time>2026-04-26T09:02:40Z</time></trkpt><trkpt lat="45.367311295150685" lon="11.828039439211713"><ele>11.5</ele><time>2026-04-26T09:02:43Z</time></trkpt><trkpt lat="45.367329293983204" lon="11.828147060185302"><ele>12.0</ele><time>2026-04-26T09:02:46Z</time></trkpt><trkpt lat="45.36734863805744" lon="11.828257853396076"><ele>12.499999999999998</ele><time>2026-04-26T09:02:49Z</time></trkpt><trkpt lat="45.36735922099192" lon="11.828383519118807"><ele>13.0</ele><time>2026-04-26T09:02:52Z</time></trkpt><trkpt lat="45.36738771364602" lon="11.828467978578747"><ele>12.666666666666666</ele><time>2026-04-26T09:02:55Z</time></trkpt><trkpt lat="45.36741813948374" lon="11.828563894969925"><ele>12.333333333333332</ele><time>2026-04-26T09:02:58Z</time></trkpt><trkpt lat="45.367451221451645" lon="11.828684035578963"><ele>12.0</ele><time>2026-04-26T09:03:02Z</time></trkpt><trkpt lat="45.36746579563577" lon="11.828792545026296"><ele>11.666666666666666</ele><time>2026-04-26T09:03:05Z</time></trkpt><trkpt lat="45.367493555632514" lon="11.828893722527921"><ele>11.333333333333332</ele><time>2026-04-26T09:03:08Z</time></trkpt><trkpt lat="45.367511638698225" lon="11.828992395230069"><ele>11.0</ele><time>2026-04-26T09:03:11Z</time></trkpt><trkpt lat="45.36754195378556" lon="11.829105056580453"><ele>11.0</ele><time>2026-04-26T09:03:14Z</time></trkpt><trkpt lat="45.36757626714662" lon="11.829211212263216"><ele>11.0</ele><time>2026-04-26T09:03:17Z</time></trkpt><trkpt lat="45.367606769464125" lon="11.82931407022546"><ele>11.0</ele><time>2026-04-26T09:03:20Z</time></trkpt><trkpt lat="45.367634976070136" lon="11.829421601437916"><ele>11.0</ele><time>2026-04-26T09:03:23Z</time></trkpt><trkpt lat="45.3676642668151" lon="11.829539415898754"><ele>11.0</ele><time>2026-04-26T09:03:26Z</time></trkpt><trkpt lat="45.36771787800458" lon="11.829624271901482"><ele>11.0</ele><time>2026-04-26T09:03:29Z</time></trkpt><trkpt lat="45.36775161024408" lon="11.829725545795656"><ele>11.0</ele><time>2026-04-26T09:03:32Z</time></trkpt><trkpt lat="45.36777638436608" lon="11.829850297860832"><ele>11.0</ele><time>2026-04-26T09:03:35Z</time></trkpt><trkpt lat="45.36779423409888" lon="11.829936717125184"><ele>11.0</ele><time>2026-04-26T09:03:37Z</time></trkpt><trkpt lat="45.367811804425486" lon="11.830045344149509"><ele>11.0</ele><time>2026-04-26T09:03:39.999Z</time></trkpt><trkpt lat="45.36782129544673" lon="11.830156035610912"><ele>11.0</ele><time>2026-04-26T09:03:41.999Z</time></trkpt><trkpt lat="45.3678451409548" lon="11.830281674980494"><ele>11.0</ele><time>2026-04-26T09:03:44.999Z</time></trkpt><trkpt lat="45.36785668276101" lon="11.830386518630824"><ele>11.0</ele><time>2026-04-26T09:03:47.999Z</time></trkpt><trkpt lat="45.367899208740404" lon="11.83050229669871"><ele>11.0</ele><time>2026-04-26T09:03:52.999Z</time></trkpt><trkpt lat="45.36792155103752" lon="11.830589539866486"><ele>11.0</ele><time>2026-04-26T09:03:54.999Z</time></trkpt><trkpt lat="45.36792842395018" lon="11.830682329153202"><ele>11.0</ele><time>2026-04-26T09:03:56.999Z</time></trkpt><trkpt lat="45.367946375360255" lon="11.830780001050341"><ele>11.0</ele><time>2026-04-26T09:03:59.999Z</time></trkpt><trkpt lat="45.36796848678266" lon="11.830876031899944"><ele>11.0</ele><time>2026-04-26T09:04:01.999Z</time></trkpt><trkpt lat="45.367995103072026" lon="11.830961465840335"><ele>11.0</ele><time>2026-04-26T09:04:04.999Z</time></trkpt><trkpt lat="45.36802173398446" lon="11.831066674017585"><ele>11.333333333333332</ele><time>2026-04-26T09:04:07.999Z</time></trkpt><trkpt lat="45.36803477071428" lon="11.831173798602505"><ele>11.666666666666666</ele><time>2026-04-26T09:04:10.999Z</time></trkpt><trkpt lat="45.368048133277405" lon="11.831276376623753"><ele>12.0</ele><time>2026-04-26T09:04:13.999Z</time></trkpt><trkpt lat="45.36806809585105" lon="11.831387420661773"><ele>12.333333333333332</ele><time>2026-04-26T09:04:16.999Z</time></trkpt><trkpt lat="45.368085922021706" lon="11.831491607719219"><ele>12.666666666666666</ele><time>2026-04-26T09:04:19.999Z</time></trkpt><trkpt lat="45.36810977344581" lon="11.831581441890515"><ele>13.0</ele><time>2026-04-26T09:04:22.999Z</time></trkpt><trkpt lat="45.36812647443849" lon="11.831692953564362"><ele>13.0</ele><time>2026-04-26T09:04:25.999Z</time></trkpt><trkpt lat="45.36816573547724" lon="11.831798214365147"><ele>13.0</ele><time>2026-04-26T09:04:28.999Z</time></trkpt><trkpt lat="45.36818203158406" lon="11.831893377488528"><ele>13.0</ele><time>2026-04-26T09:04:31.999Z</time></trkpt><trkpt lat="45.368209878949614" lon="11.831973966152896"><ele>13.0</ele><time>2026-04-26T09:04:35Z</time></trkpt><trkpt lat="45.36822826214038" lon="11.832070385215786"><ele>13.0</ele><time>2026-04-26T09:04:38Z</time></trkpt><trkpt lat="45.36824741849719" lon="11.83218976129924"><ele>13.0</ele><time>2026-04-26T09:04:41Z</time></trkpt><trkpt lat="45.36826932235104" lon="11.832287337740958"><ele>13.0</ele><time>2026-04-26T09:04:44Z</time></trkpt><trkpt lat="45.36829804694494" lon="11.832379812929965"><ele>12.857142857142856</ele><time>2026-04-26T09:04:47Z</time></trkpt><trkpt lat="45.36831894299396" lon="11.832477167929412"><ele>12.714285714285715</ele><time>2026-04-26T09:04:50Z</time></trkpt><trkpt lat="45.36834391760796" lon="11.83258888342432"><ele>12.571428571428571</ele><time>2026-04-26T09:04:53Z</time></trkpt><trkpt lat="45.36836309848763" lon="11.832694808675408"><ele>12.428571428571427</ele><time>2026-04-26T09:04:56Z</time></trkpt><trkpt lat="45.36839475605169" lon="11.832794893240665"><ele>12.285714285714285</ele><time>2026-04-26T09:04:59Z</time></trkpt><trkpt lat="45.36840148084732" lon="11.83289920286174"><ele>12.142857142857142</ele><time>2026-04-26T09:05:02Z</time></trkpt><trkpt lat="45.36841264050408" lon="11.832989064244284"><ele>12.0</ele><time>2026-04-26T09:05:05Z</time></trkpt><trkpt lat="45.368431511404225" lon="11.833097535384512"><ele>12.0</ele><time>2026-04-26T09:05:08Z</time></trkpt><trkpt lat="45.368448221505176" lon="11.833188368813346"><ele>12.0</ele><time>2026-04-26T09:05:11Z</time></trkpt><trkpt lat="45.36847300113556" lon="11.833286824648814"><ele>12.0</ele><time>2026-04-26T09:05:14Z</time></trkpt><trkpt lat="45.368483622970174" lon="11.833410066907886"><ele>12.0</ele><time>2026-04-26T09:05:18Z</time></trkpt><trkpt lat="45.368533533653235" lon="11.833511686429128"><ele>12.0</ele><time>2026-04-26T09:05:21Z</time></trkpt><trkpt lat="45.3685634072789" lon="11.833615222334402"><ele>12.0</ele><time>2026-04-26T09:05:24Z</time></trkpt><trkpt lat="45.368567000555906" lon="11.833715167861035"><ele>12.0</ele><time>2026-04-26T09:05:27Z</time></trkpt><trkpt lat="45.36858714235445" lon="11.833806713138797"><ele>12.0</ele><time>2026-04-26T09:05:30Z</time></trkpt><trkpt lat="45.36862156558538" lon="11.833921761191348"><ele>12.0</ele><time>2026-04-26T09:05:33Z</time></trkpt><trkpt lat="45.3686381059095" lon="11.834028872229432"><ele>12.0</ele><time>2026-04-26T09:05:36Z</time></trkpt><trkpt lat="45.36868154840548" lon="11.83413134620622"><ele>12.0</ele><time>2026-04-26T09:05:38.999Z</time></trkpt><trkpt lat="45.368694438724276" lon="11.834238569552687"><ele>12.0</ele><time>2026-04-26T09:05:41.999Z</time></trkpt><trkpt lat="45.368717084695845" lon="11.83432607075103"><ele>11.999999999999998</ele><time>2026-04-26T09:05:44.999Z</time></trkpt><trkpt lat="45.36872300410384" lon="11.834418212367396"><ele>12.0</ele><time>2026-04-26T09:05:46.999Z</time></trkpt><trkpt lat="45.3687537856212" lon="11.834498192456008"><ele>12.0</ele><time>2026-04-26T09:05:48.999Z</time></trkpt><trkpt lat="45.36877687855911" lon="11.834604284919378"><ele>12.0</ele><time>2026-04-26T09:05:51.999Z</time></trkpt><trkpt lat="45.36880148499823" lon="11.834707778389506"><ele>12.0</ele><time>2026-04-26T09:05:54.999Z</time></trkpt><trkpt lat="45.368823294346065" lon="11.834810903585076"><ele>11.999999999999998</ele><time>2026-04-26T09:05:57.999Z</time></trkpt><trkpt lat="45.36885046663656" lon="11.834913421521046"><ele>12.0</ele><time>2026-04-26T09:06:00.999Z</time></trkpt><trkpt lat="45.36887469172011" lon="11.83499834321943"><ele>12.166666666666666</ele><time>2026-04-26T09:06:03.999Z</time></trkpt><trkpt lat="45.36889426708732" lon="11.835104588655915"><ele>12.333333333333332</ele><time>2026-04-26T09:06:06.999Z</time></trkpt><trkpt lat="45.36891413837153" lon="11.835224104194458"><ele>12.5</ele><time>2026-04-26T09:06:09.999Z</time></trkpt><trkpt lat="45.36893234513738" lon="11.835335050793626"><ele>12.666666666666666</ele><time>2026-04-26T09:06:12.999Z</time></trkpt><trkpt lat="45.36896427671184" lon="11.835425387890588"><ele>12.833333333333332</ele><time>2026-04-26T09:06:15.999Z</time></trkpt><trkpt lat="45.36898984294765" lon="11.835529155903885"><ele>13.0</ele><time>2026-04-26T09:06:18.999Z</time></trkpt><trkpt lat="45.36900816831829" lon="11.835625148264462"><ele>12.999999999999998</ele><time>2026-04-26T09:06:21.999Z</time></trkpt><trkpt lat="45.36904861024207" lon="11.835717334426674"><ele>13.0</ele><time>2026-04-26T09:06:24.999Z</time></trkpt><trkpt lat="45.36906865335056" lon="11.835834141145005"><ele>13.0</ele><time>2026-04-26T09:06:27.999Z</time></trkpt><trkpt lat="45.36908259136362" lon="11.83594884305903"><ele>13.0</ele><time>2026-04-26T09:06:30.999Z</time></trkpt><trkpt lat="45.36909961761986" lon="11.83604552789121"><ele>12.999999999999998</ele><time>2026-04-26T09:06:33.999Z</time></trkpt><trkpt lat="45.369120811132234" lon="11.836157189611095"><ele>13.0</ele><time>2026-04-26T09:06:36.999Z</time></trkpt><trkpt lat="45.369137122493235" lon="11.836260036007445"><ele>12.999999999999998</ele><time>2026-04-26T09:06:40Z</time></trkpt><trkpt lat="45.36915173001963" lon="11.836370093574805"><ele>13.0</ele><time>2026-04-26T09:06:43Z</time></trkpt><trkpt lat="45.36918983551792" lon="11.836452172604364"><ele>13.0</ele><time>2026-04-26T09:06:46Z</time></trkpt><trkpt lat="45.36922881853061" lon="11.836535463568856"><ele>13.0</ele><time>2026-04-26T09:06:49Z</time></trkpt><trkpt lat="45.369230423206226" lon="11.836652532838178"><ele>12.999999999999998</ele><time>2026-04-26T09:06:52Z</time></trkpt><trkpt lat="45.36926279791188" lon="11.83676509429889"><ele>13.0</ele><time>2026-04-26T09:06:55Z</time></trkpt><trkpt lat="45.36928098410782" lon="11.83687216487197"><ele>13.0</ele><time>2026-04-26T09:06:58Z</time></trkpt><trkpt lat="45.369310304036524" lon="11.836973780734695"><ele>13.0</ele><time>2026-04-26T09:07:01Z</time></trkpt><trkpt lat="45.36933775799857" lon="11.837056087664713"><ele>13.0</ele><time>2026-04-26T09:07:04Z</time></trkpt><trkpt lat="45.36935783425205" lon="11.837162943119894"><ele>13.0</ele><time>2026-04-26T09:07:07Z</time></trkpt><trkpt lat="45.36938808693285" lon="11.837253938231036"><ele>13.0</ele><time>2026-04-26T09:07:10Z</time></trkpt><trkpt lat="45.36940640732561" lon="11.83735337775172"><ele>13.0</ele><time>2026-04-26T09:07:13Z</time></trkpt><trkpt lat="45.369440950374766" lon="11.837459856447731"><ele>13.0</ele><time>2026-04-26T09:07:16Z</time></trkpt><trkpt lat="45.36945091947262" lon="11.83757670256422"><ele>12.833333333333332</ele><time>2026-04-26T09:07:19Z</time></trkpt><trkpt lat="45.36947788505296" lon="11.837661691938411"><ele>12.666666666666666</ele><time>2026-04-26T09:07:22Z</time></trkpt><trkpt lat="45.369492881650594" lon="11.837779252529126"><ele>12.5</ele><time>2026-04-26T09:07:25Z</time></trkpt><trkpt lat="45.369511436365414" lon="11.837885559613936"><ele>12.333333333333332</ele><time>2026-04-26T09:07:28Z</time></trkpt><trkpt lat="45.369537005944714" lon="11.837971960849302"><ele>12.166666666666666</ele><time>2026-04-26T09:07:31Z</time></trkpt><trkpt lat="45.36955061347874" lon="11.838079950120168"><ele>12.0</ele><time>2026-04-26T09:07:34Z</time></trkpt><trkpt lat="45.36956658495702" lon="11.838195304477068"><ele>12.0</ele><time>2026-04-26T09:07:37Z</time></trkpt><trkpt lat="45.369595178003905" lon="11.838303871745733"><ele>12.0</ele><time>2026-04-26T09:07:40Z</time></trkpt><trkpt lat="45.36962448104789" lon="11.838405095944964"><ele>12.0</ele><time>2026-04-26T09:07:43Z</time></trkpt><trkpt lat="45.3696529137787" lon="11.838514730811244"><ele>12.0</ele><time>2026-04-26T09:07:46Z</time></trkpt><trkpt lat="45.369679469492866" lon="11.838607597904868"><ele>12.0</ele><time>2026-04-26T09:07:48.999Z</time></trkpt><trkpt lat="45.36968668537624" lon="11.83870560283276"><ele>12.0</ele><time>2026-04-26T09:07:51.999Z</time></trkpt><trkpt lat="45.369704481583405" lon="11.838812974565032"><ele>12.0</ele><time>2026-04-26T09:07:54.999Z</time></trkpt><trkpt lat="45.369720602972855" lon="11.838923278066295"><ele>12.0</ele><time>2026-04-26T09:07:57.999Z</time></trkpt><trkpt lat="45.36974681269203" lon="11.839033278028394"><ele>12.0</ele><time>2026-04-26T09:08:00.999Z</time></trkpt><trkpt lat="45.36976950301929" lon="11.839122473038353"><ele>12.0</ele><time>2026-04-26T09:08:03.999Z</time></trkpt><trkpt lat="45.369790912249115" lon="11.839225468194412"><ele>12.0</ele><time>2026-04-26T09:08:06.999Z</time></trkpt><trkpt lat="45.36981516186259" lon="11.839328467281149"><ele>12.0</ele><time>2026-04-26T09:08:09.999Z</time></trkpt><trkpt lat="45.36983453635856" lon="11.839424761987939"><ele>12.142857142857142</ele><time>2026-04-26T09:08:12.999Z</time></trkpt><trkpt lat="45.36985650720814" lon="11.839539495462764"><ele>12.285714285714285</ele><time>2026-04-26T09:08:15.999Z</time></trkpt><trkpt lat="45.36988082446691" lon="11.839633408787893"><ele>12.428571428571427</ele><time>2026-04-26T09:08:18.999Z</time></trkpt><trkpt lat="45.369906349639834" lon="11.839729982110672"><ele>12.571428571428571</ele><time>2026-04-26T09:08:21.999Z</time></trkpt><trkpt lat="45.36992474088451" lon="11.839837008201698"><ele>12.714285714285715</ele><time>2026-04-26T09:08:24.999Z</time></trkpt><trkpt lat="45.369950838954395" lon="11.839920903868796"><ele>12.857142857142856</ele><time>2026-04-26T09:08:27.999Z</time></trkpt><trkpt lat="45.36999323737664" lon="11.840008310613921"><ele>13.0</ele><time>2026-04-26T09:08:30.999Z</time></trkpt><trkpt lat="45.37000673275852" lon="11.84012538360774"><ele>12.999999999999998</ele><time>2026-04-26T09:08:33.999Z</time></trkpt><trkpt lat="45.3700417246727" lon="11.840217597020327"><ele>13.0</ele><time>2026-04-26T09:08:36.999Z</time></trkpt><trkpt lat="45.370076978926704" lon="11.84030412860158"><ele>13.0</ele><time>2026-04-26T09:08:39.999Z</time></trkpt><trkpt lat="45.37009925683141" lon="11.840421276116967"><ele>13.0</ele><time>2026-04-26T09:08:44.999Z</time></trkpt><trkpt lat="45.37013912246264" lon="11.840533241437564"><ele>12.999999999999998</ele><time>2026-04-26T09:08:50Z</time></trkpt><trkpt lat="45.37015651565724" lon="11.840634719500693"><ele>13.0</ele><time>2026-04-26T09:08:54Z</time></trkpt><trkpt lat="45.37019710242141" lon="11.840731695025145"><ele>13.0</ele><time>2026-04-26T09:08:58Z</time></trkpt><trkpt lat="45.370245927621674" lon="11.840810732638703"><ele>13.0</ele><time>2026-04-26T09:09:05Z</time></trkpt><trkpt lat="45.37030806699854" lon="11.840879684275302"><ele>13.0</ele><time>2026-04-26T09:09:09Z</time></trkpt><trkpt lat="45.370363718797044" lon="11.840933018548865"><ele>13.0</ele><time>2026-04-26T09:09:12Z</time></trkpt><trkpt lat="45.37040531055778" lon="11.8410106275334"><ele>13.0</ele><time>2026-04-26T09:09:14Z</time></trkpt><trkpt lat="45.37043230279878" lon="11.841105634201083"><ele>13.0</ele><time>2026-04-26T09:09:16Z</time></trkpt><trkpt lat="45.370460864276275" lon="11.841223922752356"><ele>13.0</ele><time>2026-04-26T09:09:19Z</time></trkpt><trkpt lat="45.37050700159326" lon="11.841295886453223"><ele>12.666666666666666</ele><time>2026-04-26T09:09:21Z</time></trkpt><trkpt lat="45.370546838854295" lon="11.841403345651024"><ele>12.333333333333332</ele><time>2026-04-26T09:09:24Z</time></trkpt><trkpt lat="45.37057428912807" lon="11.841515032177346"><ele>12.0</ele><time>2026-04-26T09:09:27Z</time></trkpt><trkpt lat="45.37061421242597" lon="11.841584497774107"><ele>11.666666666666666</ele><time>2026-04-26T09:09:29Z</time></trkpt><trkpt lat="45.370677786877664" lon="11.841655284457424"><ele>11.333333333333332</ele><time>2026-04-26T09:09:32Z</time></trkpt><trkpt lat="45.370741713480385" lon="11.841711506828432"><ele>11.0</ele><time>2026-04-26T09:09:35Z</time></trkpt><trkpt lat="45.37079179450177" lon="11.841795246171042"><ele>11.142857142857142</ele><time>2026-04-26T09:09:38Z</time></trkpt><trkpt lat="45.37084164805766" lon="11.841875988458298"><ele>11.285714285714285</ele><time>2026-04-26T09:09:41Z</time></trkpt><trkpt lat="45.37089815475082" lon="11.84194597334311"><ele>11.428571428571427</ele><time>2026-04-26T09:09:44Z</time></trkpt><trkpt lat="45.370944496499966" lon="11.842018005811406"><ele>11.571428571428571</ele><time>2026-04-26T09:09:47Z</time></trkpt><trkpt lat="45.3709885985368" lon="11.84209960626526"><ele>11.714285714285714</ele><time>2026-04-26T09:09:49.999Z</time></trkpt><trkpt lat="45.3710528843326" lon="11.842157317238867"><ele>11.857142857142856</ele><time>2026-04-26T09:09:52.999Z</time></trkpt><trkpt lat="45.37109184756814" lon="11.842254896397845"><ele>12.0</ele><time>2026-04-26T09:09:55.999Z</time></trkpt><trkpt lat="45.3711337846786" lon="11.842332272589472"><ele>12.0</ele><time>2026-04-26T09:09:58.999Z</time></trkpt><trkpt lat="45.3711922662522" lon="11.842405039982678"><ele>12.0</ele><time>2026-04-26T09:10:01.999Z</time></trkpt><trkpt lat="45.371231491235704" lon="11.842498630675845"><ele>12.0</ele><time>2026-04-26T09:10:04.999Z</time></trkpt><trkpt lat="45.37128113350589" lon="11.842562016744873"><ele>12.0</ele><time>2026-04-26T09:10:07.999Z</time></trkpt><trkpt lat="45.371320333225604" lon="11.842657619259896"><ele>12.0</ele><time>2026-04-26T09:10:10.999Z</time></trkpt><trkpt lat="45.37138672363949" lon="11.842718183521209"><ele>12.0</ele><time>2026-04-26T09:10:13.999Z</time></trkpt><trkpt lat="45.371444161740605" lon="11.842794539197403"><ele>11.714285714285714</ele><time>2026-04-26T09:10:16.999Z</time></trkpt><trkpt lat="45.37148623000394" lon="11.84286652274752"><ele>11.428571428571429</ele><time>2026-04-26T09:10:19.999Z</time></trkpt><trkpt lat="45.37154174210741" lon="11.842954716919529"><ele>11.142857142857142</ele><time>2026-04-26T09:10:22.999Z</time></trkpt><trkpt lat="45.37158955785997" lon="11.843025080166274"><ele>10.857142857142858</ele><time>2026-04-26T09:10:25.999Z</time></trkpt><trkpt lat="45.37164359240256" lon="11.843101850694692"><ele>10.571428571428571</ele><time>2026-04-26T09:10:28.999Z</time></trkpt><trkpt lat="45.371691941526436" lon="11.843174108500683"><ele>10.285714285714285</ele><time>2026-04-26T09:10:31.999Z</time></trkpt><trkpt lat="45.371745915266025" lon="11.843239411478132"><ele>10.0</ele><time>2026-04-26T09:10:34.999Z</time></trkpt><trkpt lat="45.37180079987003" lon="11.843337930346248"><ele>10.0</ele><time>2026-04-26T09:10:37.999Z</time></trkpt><trkpt lat="45.371854315312504" lon="11.843420925230799"><ele>10.0</ele><time>2026-04-26T09:10:40.999Z</time></trkpt><trkpt lat="45.37190361390659" lon="11.843508895720035"><ele>10.0</ele><time>2026-04-26T09:10:43.999Z</time></trkpt><trkpt lat="45.371958295360805" lon="11.843592031369056"><ele>10.0</ele><time>2026-04-26T09:10:46.999Z</time></trkpt><trkpt lat="45.37200510012639" lon="11.843679545007019"><ele>10.0</ele><time>2026-04-26T09:10:49.999Z</time></trkpt><trkpt lat="45.37206363534897" lon="11.843737109444547"><ele>10.0</ele><time>2026-04-26T09:10:53Z</time></trkpt><trkpt lat="45.3721120571984" lon="11.843806098111333"><ele>10.0</ele><time>2026-04-26T09:10:56Z</time></trkpt><trkpt lat="45.37217698516545" lon="11.843836646893978"><ele>10.0</ele><time>2026-04-26T09:11:00Z</time></trkpt><trkpt lat="45.37224611093648" lon="11.843913243732825"><ele>10.0</ele><time>2026-04-26T09:11:03Z</time></trkpt><trkpt lat="45.37228929671587" lon="11.843987759629147"><ele>10.0</ele><time>2026-04-26T09:11:05Z</time></trkpt><trkpt lat="45.37234778243997" lon="11.8440462825428"><ele>10.0</ele><time>2026-04-26T09:11:08Z</time></trkpt><trkpt lat="45.37241828271392" lon="11.843992334794123"><ele>10.0</ele><time>2026-04-26T09:11:12Z</time></trkpt><trkpt lat="45.372476146483784" lon="11.843955405040969"><ele>10.0</ele><time>2026-04-26T09:11:15Z</time></trkpt><trkpt lat="45.372381326889936" lon="11.843946987014306"><ele>10.0</ele><time>2026-04-26T09:11:22Z</time></trkpt><trkpt lat="45.372385045329395" lon="11.844057785159102"><ele>10.0</ele><time>2026-04-26T09:11:56Z</time></trkpt><trkpt lat="45.37243558619944" lon="11.84414263015248"><ele>10.0</ele><time>2026-04-26T09:12:00Z</time></trkpt><trkpt lat="45.372484160981294" lon="11.84420780199075"><ele>10.0</ele><time>2026-04-26T09:12:02.999Z</time></trkpt><trkpt lat="45.37250965197028" lon="11.844313352198112"><ele>10.0</ele><time>2026-04-26T09:12:06.999Z</time></trkpt><trkpt lat="45.37256717557175" lon="11.844392166827637"><ele>10.0</ele><time>2026-04-26T09:12:10.999Z</time></trkpt><trkpt lat="45.372623096983276" lon="11.844444345522351"><ele>10.0</ele><time>2026-04-26T09:12:13.999Z</time></trkpt><trkpt lat="45.372663884920804" lon="11.844532062116295"><ele>10.0</ele><time>2026-04-26T09:12:16.999Z</time></trkpt><trkpt lat="45.37271021679847" lon="11.844623097446151"><ele>10.0</ele><time>2026-04-26T09:12:19.999Z</time></trkpt><trkpt lat="45.37277788174658" lon="11.844710297546222"><ele>10.0</ele><time>2026-04-26T09:12:22.999Z</time></trkpt><trkpt lat="45.372842082037195" lon="11.8447794290218"><ele>10.0</ele><time>2026-04-26T09:12:25.999Z</time></trkpt><trkpt lat="45.372906140571445" lon="11.844851748437824"><ele>10.0</ele><time>2026-04-26T09:12:28.999Z</time></trkpt><trkpt lat="45.37294991989106" lon="11.84493544564143"><ele>10.0</ele><time>2026-04-26T09:12:31.999Z</time></trkpt><trkpt lat="45.373017929918156" lon="11.845017503629212"><ele>10.0</ele><time>2026-04-26T09:12:34.999Z</time></trkpt><trkpt lat="45.37307814106495" lon="11.845089021136893"><ele>10.0</ele><time>2026-04-26T09:12:37.999Z</time></trkpt><trkpt lat="45.3731369445787" lon="11.84515692889898"><ele>10.0</ele><time>2026-04-26T09:12:40.999Z</time></trkpt><trkpt lat="45.37318368488471" lon="11.84522542247404"><ele>10.0</ele><time>2026-04-26T09:12:43.999Z</time></trkpt><trkpt lat="45.37323939435213" lon="11.845301250274195"><ele>10.0</ele><time>2026-04-26T09:12:46.999Z</time></trkpt><trkpt lat="45.37330736259061" lon="11.845355100765293"><ele>10.0</ele><time>2026-04-26T09:12:49.999Z</time></trkpt><trkpt lat="45.37337440409717" lon="11.845424966182872"><ele>10.0</ele><time>2026-04-26T09:12:52.999Z</time></trkpt><trkpt lat="45.3734408110155" lon="11.845504855048565"><ele>10.0</ele><time>2026-04-26T09:12:55.999Z</time></trkpt><trkpt lat="45.373510760624335" lon="11.845546009961039"><ele>10.0</ele><time>2026-04-26T09:12:58Z</time></trkpt><trkpt lat="45.37357126859175" lon="11.845626348622124"><ele>10.0</ele><time>2026-04-26T09:13:01Z</time></trkpt><trkpt lat="45.37362481459148" lon="11.845696787348162"><ele>10.0</ele><time>2026-04-26T09:13:04Z</time></trkpt><trkpt lat="45.37368008150678" lon="11.845775087891141"><ele>10.0</ele><time>2026-04-26T09:13:07Z</time></trkpt><trkpt lat="45.37372650667319" lon="11.845855956641406"><ele>10.0</ele><time>2026-04-26T09:13:10Z</time></trkpt><trkpt lat="45.37378110739385" lon="11.845920873471947"><ele>10.0</ele><time>2026-04-26T09:13:13Z</time></trkpt><trkpt lat="45.37383761190024" lon="11.845986065499929"><ele>10.0</ele><time>2026-04-26T09:13:16Z</time></trkpt><trkpt lat="45.3738968540704" lon="11.846050397473011"><ele>10.0</ele><time>2026-04-26T09:13:19Z</time></trkpt><trkpt lat="45.373961848975725" lon="11.84611182921665"><ele>10.0</ele><time>2026-04-26T09:13:22Z</time></trkpt><trkpt lat="45.37401907827213" lon="11.84617993472731"><ele>10.0</ele><time>2026-04-26T09:13:25Z</time></trkpt><trkpt lat="45.37407390243774" lon="11.846225319791706"><ele>10.0</ele><time>2026-04-26T09:13:27Z</time></trkpt><trkpt lat="45.374125125963744" lon="11.846303451526282"><ele>10.166666666666668</ele><time>2026-04-26T09:13:30Z</time></trkpt><trkpt lat="45.37416405570864" lon="11.846389233512813"><ele>10.333333333333334</ele><time>2026-04-26T09:13:33Z</time></trkpt><trkpt lat="45.37423656187927" lon="11.846466375627026"><ele>10.5</ele><time>2026-04-26T09:13:36Z</time></trkpt><trkpt lat="45.37428885711962" lon="11.846542707194306"><ele>10.666666666666666</ele><time>2026-04-26T09:13:39Z</time></trkpt><trkpt lat="45.374333277105734" lon="11.846623153373265"><ele>10.833333333333332</ele><time>2026-04-26T09:13:42Z</time></trkpt><trkpt lat="45.374389351196015" lon="11.846698633555722"><ele>11.0</ele><time>2026-04-26T09:13:45Z</time></trkpt><trkpt lat="45.37445433491111" lon="11.846765759255385"><ele>10.833333333333332</ele><time>2026-04-26T09:13:48Z</time></trkpt><trkpt lat="45.37450967866521" lon="11.846838052631236"><ele>10.666666666666666</ele><time>2026-04-26T09:13:51Z</time></trkpt><trkpt lat="45.37456134512433" lon="11.846911000739544"><ele>10.5</ele><time>2026-04-26T09:13:54Z</time></trkpt><trkpt lat="45.374628363711814" lon="11.846965162817002"><ele>10.333333333333334</ele><time>2026-04-26T09:13:57Z</time></trkpt><trkpt lat="45.374695484835335" lon="11.847038835862366"><ele>10.166666666666668</ele><time>2026-04-26T09:14:00Z</time></trkpt><trkpt lat="45.37475952987758" lon="11.847103200492178"><ele>10.0</ele><time>2026-04-26T09:14:02.999Z</time></trkpt><trkpt lat="45.37480977179085" lon="11.847161944510436"><ele>10.333333333333334</ele><time>2026-04-26T09:14:06.999Z</time></trkpt><trkpt lat="45.37487819623863" lon="11.847254897928025"><ele>10.666666666666668</ele><time>2026-04-26T09:14:10.999Z</time></trkpt><trkpt lat="45.37494811585959" lon="11.847303211712552"><ele>11.0</ele><time>2026-04-26T09:14:13.999Z</time></trkpt><trkpt lat="45.375029818924766" lon="11.847380844864082"><ele>11.333333333333334</ele><time>2026-04-26T09:14:17.999Z</time></trkpt><trkpt lat="45.375116438632716" lon="11.847421407147722"><ele>11.666666666666666</ele><time>2026-04-26T09:14:20.999Z</time></trkpt><trkpt lat="45.375198166017086" lon="11.84745695675185"><ele>12.0</ele><time>2026-04-26T09:14:23.999Z</time></trkpt><trkpt lat="45.37523966013838" lon="11.847567890262628"><ele>12.0</ele><time>2026-04-26T09:14:26.999Z</time></trkpt><trkpt lat="45.37528875045316" lon="11.847638523733897"><ele>12.0</ele><time>2026-04-26T09:14:29.999Z</time></trkpt><trkpt lat="45.375347448648945" lon="11.847699667388753"><ele>12.0</ele><time>2026-04-26T09:14:32.999Z</time></trkpt><trkpt lat="45.37540840235505" lon="11.847769138752001"><ele>12.0</ele><time>2026-04-26T09:14:35.999Z</time></trkpt><trkpt lat="45.37548598756782" lon="11.847814220222766"><ele>12.0</ele><time>2026-04-26T09:14:38.999Z</time></trkpt><trkpt lat="45.37555141612132" lon="11.847892200485719"><ele>12.0</ele><time>2026-04-26T09:14:41.999Z</time></trkpt><trkpt lat="45.375609774766474" lon="11.847965901765097"><ele>11.833333333333334</ele><time>2026-04-26T09:14:44.999Z</time></trkpt><trkpt lat="45.37566899412059" lon="11.848046005915108"><ele>11.666666666666666</ele><time>2026-04-26T09:14:47.999Z</time></trkpt><trkpt lat="45.3757274350597" lon="11.84810995627449"><ele>11.5</ele><time>2026-04-26T09:14:50.999Z</time></trkpt><trkpt lat="45.375788299523805" lon="11.848171165285597"><ele>11.333333333333332</ele><time>2026-04-26T09:14:53.999Z</time></trkpt><trkpt lat="45.375840228092976" lon="11.848241011325234"><ele>11.166666666666666</ele><time>2026-04-26T09:14:56.999Z</time></trkpt><trkpt lat="45.37589611003083" lon="11.848283716142904"><ele>11.0</ele><time>2026-04-26T09:14:59.999Z</time></trkpt><trkpt lat="45.375986336561056" lon="11.848321972471119"><ele>11.0</ele><time>2026-04-26T09:15:02.999Z</time></trkpt><trkpt lat="45.376050038699205" lon="11.8483445463789"><ele>11.0</ele><time>2026-04-26T09:15:05Z</time></trkpt><trkpt lat="45.37611984032127" lon="11.84838033914552"><ele>11.0</ele><time>2026-04-26T09:15:08Z</time></trkpt><trkpt lat="45.376178138108386" lon="11.84845830770391"><ele>11.0</ele><time>2026-04-26T09:15:11Z</time></trkpt><trkpt lat="45.37624173473359" lon="11.84851713989904"><ele>11.0</ele><time>2026-04-26T09:15:14Z</time></trkpt><trkpt lat="45.37630245096029" lon="11.848585291076844"><ele>11.0</ele><time>2026-04-26T09:15:17Z</time></trkpt><trkpt lat="45.376363858919206" lon="11.84865006257914"><ele>11.0</ele><time>2026-04-26T09:15:20Z</time></trkpt><trkpt lat="45.37639201884984" lon="11.848755938396218"><ele>11.0</ele><time>2026-04-26T09:15:23Z</time></trkpt><trkpt lat="45.37644714280913" lon="11.848851410274074"><ele>11.0</ele><time>2026-04-26T09:15:26Z</time></trkpt><trkpt lat="45.37649566582458" lon="11.848931487895387"><ele>11.0</ele><time>2026-04-26T09:15:29Z</time></trkpt><trkpt lat="45.3765176095252" lon="11.849037381521283"><ele>11.0</ele><time>2026-04-26T09:15:32Z</time></trkpt><trkpt lat="45.37658733784481" lon="11.849102103276492"><ele>11.0</ele><time>2026-04-26T09:15:35Z</time></trkpt><trkpt lat="45.37665664704849" lon="11.84916210240572"><ele>11.0</ele><time>2026-04-26T09:15:38Z</time></trkpt><trkpt lat="45.37670222126507" lon="11.849236970296083"><ele>11.0</ele><time>2026-04-26T09:15:41Z</time></trkpt><trkpt lat="45.376757594446275" lon="11.8492830975898"><ele>11.0</ele><time>2026-04-26T09:15:43Z</time></trkpt><trkpt lat="45.376820814714385" lon="11.84934762714107"><ele>11.0</ele><time>2026-04-26T09:15:46Z</time></trkpt><trkpt lat="45.376866367301176" lon="11.849432097475209"><ele>11.0</ele><time>2026-04-26T09:15:49Z</time></trkpt><trkpt lat="45.37694681906398" lon="11.849490757920774"><ele>11.0</ele><time>2026-04-26T09:15:52Z</time></trkpt><trkpt lat="45.37700620631206" lon="11.849557839027776"><ele>11.0</ele><time>2026-04-26T09:15:55Z</time></trkpt><trkpt lat="45.37706441053018" lon="11.849631587333237"><ele>11.142857142857142</ele><time>2026-04-26T09:15:58Z</time></trkpt><trkpt lat="45.37711846327214" lon="11.849690460126526"><ele>11.285714285714285</ele><time>2026-04-26T09:16:01Z</time></trkpt><trkpt lat="45.377175342039095" lon="11.84975047802975"><ele>11.428571428571427</ele><time>2026-04-26T09:16:04Z</time></trkpt><trkpt lat="45.377234898737576" lon="11.849803559971651"><ele>11.571428571428571</ele><time>2026-04-26T09:16:07Z</time></trkpt><trkpt lat="45.377292472216865" lon="11.849874804216425"><ele>11.714285714285714</ele><time>2026-04-26T09:16:10Z</time></trkpt><trkpt lat="45.377358668694896" lon="11.849935185762998"><ele>11.857142857142856</ele><time>2026-04-26T09:16:13Z</time></trkpt><trkpt lat="45.37742396273478" lon="11.850006770745251"><ele>12.0</ele><time>2026-04-26T09:16:15.999Z</time></trkpt><trkpt lat="45.37748124712232" lon="11.850069638455466"><ele>11.857142857142856</ele><time>2026-04-26T09:16:18.999Z</time></trkpt><trkpt lat="45.37753325659791" lon="11.850124528837286"><ele>11.714285714285714</ele><time>2026-04-26T09:16:21.999Z</time></trkpt><trkpt lat="45.37758496760314" lon="11.850226693233806"><ele>11.571428571428571</ele><time>2026-04-26T09:16:24.999Z</time></trkpt><trkpt lat="45.377644797110186" lon="11.850276633797728"><ele>11.428571428571427</ele><time>2026-04-26T09:16:27.999Z</time></trkpt><trkpt lat="45.37771434283391" lon="11.850317669079322"><ele>11.285714285714285</ele><time>2026-04-26T09:16:29.999Z</time></trkpt><trkpt lat="45.377758212005155" lon="11.8503831748425"><ele>11.142857142857142</ele><time>2026-04-26T09:16:32.999Z</time></trkpt><trkpt lat="45.37781850608447" lon="11.850444269825495"><ele>11.0</ele><time>2026-04-26T09:16:35.999Z</time></trkpt><trkpt lat="45.37788214918688" lon="11.850503605613664"><ele>11.0</ele><time>2026-04-26T09:16:38.999Z</time></trkpt><trkpt lat="45.37793376407807" lon="11.850582905403252"><ele>11.0</ele><time>2026-04-26T09:16:41.999Z</time></trkpt><trkpt lat="45.377997928207016" lon="11.850648202041741"><ele>11.0</ele><time>2026-04-26T09:16:44.999Z</time></trkpt><trkpt lat="45.37806606069013" lon="11.850708434992931"><ele>11.0</ele><time>2026-04-26T09:16:47.999Z</time></trkpt><trkpt lat="45.37811705737245" lon="11.850761029713798"><ele>11.0</ele><time>2026-04-26T09:16:50.999Z</time></trkpt><trkpt lat="45.37819388103758" lon="11.850805279721476"><ele>11.0</ele><time>2026-04-26T09:16:53.999Z</time></trkpt><trkpt lat="45.37825643340953" lon="11.850860996747627"><ele>11.0</ele><time>2026-04-26T09:16:56.999Z</time></trkpt><trkpt lat="45.3783266685591" lon="11.85093307884599"><ele>11.0</ele><time>2026-04-26T09:16:59.999Z</time></trkpt><trkpt lat="45.37839260073809" lon="11.851003370051947"><ele>11.0</ele><time>2026-04-26T09:17:02.999Z</time></trkpt><trkpt lat="45.37844612089217" lon="11.851100859321406"><ele>11.0</ele><time>2026-04-26T09:17:05.999Z</time></trkpt><trkpt lat="45.37849047858827" lon="11.851171757429427"><ele>11.0</ele><time>2026-04-26T09:17:08.999Z</time></trkpt><trkpt lat="45.37854726980701" lon="11.851228595299036"><ele>11.0</ele><time>2026-04-26T09:17:12Z</time></trkpt><trkpt lat="45.37860235300353" lon="11.85131212148038"><ele>10.857142857142858</ele><time>2026-04-26T09:17:16Z</time></trkpt><trkpt lat="45.37864594479757" lon="11.851382304066545"><ele>10.714285714285714</ele><time>2026-04-26T09:17:19Z</time></trkpt><trkpt lat="45.37870520443795" lon="11.851454754147065"><ele>10.571428571428571</ele><time>2026-04-26T09:17:22Z</time></trkpt><trkpt lat="45.3787820798388" lon="11.85150686193986"><ele>10.428571428571429</ele><time>2026-04-26T09:17:25Z</time></trkpt><trkpt lat="45.378852726070726" lon="11.851551187227315"><ele>10.285714285714286</ele><time>2026-04-26T09:17:28Z</time></trkpt><trkpt lat="45.3789077132903" lon="11.851615660486962"><ele>10.142857142857142</ele><time>2026-04-26T09:17:31Z</time></trkpt><trkpt lat="45.37895720836796" lon="11.85168140794219"><ele>10.0</ele><time>2026-04-26T09:17:34Z</time></trkpt><trkpt lat="45.379027768741686" lon="11.851735127702714"><ele>10.333333333333334</ele><time>2026-04-26T09:17:37Z</time></trkpt><trkpt lat="45.37908117819852" lon="11.85180260063512"><ele>10.666666666666668</ele><time>2026-04-26T09:17:40Z</time></trkpt><trkpt lat="45.37912568462307" lon="11.851880490075432"><ele>11.0</ele><time>2026-04-26T09:17:43Z</time></trkpt><trkpt lat="45.37918071890569" lon="11.851948699505266"><ele>11.333333333333334</ele><time>2026-04-26T09:17:46Z</time></trkpt><trkpt lat="45.37924714924769" lon="11.852009363902308"><ele>11.666666666666666</ele><time>2026-04-26T09:17:49Z</time></trkpt><trkpt lat="45.379324440800055" lon="11.852070173618909"><ele>12.0</ele><time>2026-04-26T09:17:52Z</time></trkpt><trkpt lat="45.379357847304775" lon="11.852156856907737"><ele>12.0</ele><time>2026-04-26T09:17:55Z</time></trkpt><trkpt lat="45.3794273559329" lon="11.852207597187537"><ele>12.0</ele><time>2026-04-26T09:17:58Z</time></trkpt><trkpt lat="45.37948807423045" lon="11.85226401645333"><ele>12.0</ele><time>2026-04-26T09:18:01Z</time></trkpt><trkpt lat="45.379554399499604" lon="11.85233499095983"><ele>12.0</ele><time>2026-04-26T09:18:04Z</time></trkpt><trkpt lat="45.3796118318367" lon="11.852389268164002"><ele>12.0</ele><time>2026-04-26T09:18:07Z</time></trkpt><trkpt lat="45.37967018577197" lon="11.852465187878105"><ele>12.0</ele><time>2026-04-26T09:18:10Z</time></trkpt><trkpt lat="45.3797281282778" lon="11.852536733362998"><ele>12.0</ele><time>2026-04-26T09:18:12.999Z</time></trkpt><trkpt lat="45.379782681516865" lon="11.852604332624832"><ele>12.0</ele><time>2026-04-26T09:18:15.999Z</time></trkpt><trkpt lat="45.37984829322754" lon="11.852655759016294"><ele>12.0</ele><time>2026-04-26T09:18:18.999Z</time></trkpt><trkpt lat="45.379916870383724" lon="11.852685346911102"><ele>12.0</ele><time>2026-04-26T09:18:20.999Z</time></trkpt><trkpt lat="45.379971972946144" lon="11.852768429182248"><ele>12.0</ele><time>2026-04-26T09:18:23.999Z</time></trkpt><trkpt lat="45.38003396310356" lon="11.85283406503132"><ele>12.0</ele><time>2026-04-26T09:18:26.999Z</time></trkpt><trkpt lat="45.38009018118515" lon="11.852903161636153"><ele>12.0</ele><time>2026-04-26T09:18:29.999Z</time></trkpt><trkpt lat="45.380137323459046" lon="11.852980557160166"><ele>12.0</ele><time>2026-04-26T09:18:33.999Z</time></trkpt><trkpt lat="45.380203935714654" lon="11.85303569241082"><ele>12.0</ele><time>2026-04-26T09:18:36.999Z</time></trkpt><trkpt lat="45.38026458575986" lon="11.853105963962637"><ele>12.0</ele><time>2026-04-26T09:18:39.999Z</time></trkpt><trkpt lat="45.38031953070574" lon="11.853174651213177"><ele>12.0</ele><time>2026-04-26T09:18:42.999Z</time></trkpt><trkpt lat="45.38038240378502" lon="11.85320762683066"><ele>12.0</ele><time>2026-04-26T09:18:44.999Z</time></trkpt><trkpt lat="45.380477855206934" lon="11.853252739844967"><ele>12.0</ele><time>2026-04-26T09:18:47.999Z</time></trkpt><trkpt lat="45.380541942832295" lon="11.853289493594499"><ele>12.0</ele><time>2026-04-26T09:18:49.999Z</time></trkpt><trkpt lat="45.380611584539324" lon="11.853343672091562"><ele>12.0</ele><time>2026-04-26T09:18:52.999Z</time></trkpt><trkpt lat="45.38066034119177" lon="11.853436798423079"><ele>12.0</ele><time>2026-04-26T09:18:55.999Z</time></trkpt><trkpt lat="45.38069144532504" lon="11.853541734645969"><ele>12.0</ele><time>2026-04-26T09:18:58.999Z</time></trkpt><trkpt lat="45.380743311808594" lon="11.853608341917308"><ele>12.0</ele><time>2026-04-26T09:19:01.999Z</time></trkpt><trkpt lat="45.38080966200224" lon="11.853672517785942"><ele>12.0</ele><time>2026-04-26T09:19:04.999Z</time></trkpt><trkpt lat="45.38086204842255" lon="11.853752738834492"><ele>12.0</ele><time>2026-04-26T09:19:08.999Z</time></trkpt><trkpt lat="45.38091058433205" lon="11.853824606841933"><ele>12.0</ele><time>2026-04-26T09:19:11.999Z</time></trkpt><trkpt lat="45.38096049909186" lon="11.853895090297312"><ele>12.0</ele><time>2026-04-26T09:19:14.999Z</time></trkpt><trkpt lat="45.381035586738285" lon="11.853953924976315"><ele>12.0</ele><time>2026-04-26T09:19:18Z</time></trkpt><trkpt lat="45.38108171316919" lon="11.8540395145491"><ele>12.0</ele><time>2026-04-26T09:19:21Z</time></trkpt><trkpt lat="45.38112457877544" lon="11.854126478045101"><ele>12.0</ele><time>2026-04-26T09:19:24Z</time></trkpt><trkpt lat="45.38119962169148" lon="11.854156627506926"><ele>12.0</ele><time>2026-04-26T09:19:27Z</time></trkpt><trkpt lat="45.38127632688157" lon="11.854217694020784"><ele>12.0</ele><time>2026-04-26T09:19:30Z</time></trkpt><trkpt lat="45.38133803956035" lon="11.85429327190404"><ele>12.0</ele><time>2026-04-26T09:19:33Z</time></trkpt><trkpt lat="45.38139145746436" lon="11.854365428119356"><ele>12.0</ele><time>2026-04-26T09:19:36Z</time></trkpt><trkpt lat="45.38145359989669" lon="11.85441928880943"><ele>12.0</ele><time>2026-04-26T09:19:39Z</time></trkpt><trkpt lat="45.38151676930958" lon="11.854478179876851"><ele>12.166666666666666</ele><time>2026-04-26T09:19:42Z</time></trkpt><trkpt lat="45.38157012759367" lon="11.854540368030701"><ele>12.333333333333332</ele><time>2026-04-26T09:19:45Z</time></trkpt><trkpt lat="45.38163896185298" lon="11.854595052526651"><ele>12.5</ele><time>2026-04-26T09:19:48Z</time></trkpt><trkpt lat="45.38170501420583" lon="11.85466878063378"><ele>12.666666666666666</ele><time>2026-04-26T09:19:51Z</time></trkpt><trkpt lat="45.381778368085165" lon="11.854742704796655"><ele>12.833333333333332</ele><time>2026-04-26T09:19:54Z</time></trkpt><trkpt lat="45.3818206327926" lon="11.854827297461712"><ele>13.0</ele><time>2026-04-26T09:19:57Z</time></trkpt><trkpt lat="45.38188794879455" lon="11.854877962743064"><ele>13.0</ele><time>2026-04-26T09:20:00Z</time></trkpt><trkpt lat="45.3819382822681" lon="11.854943561941433"><ele>13.0</ele><time>2026-04-26T09:20:03Z</time></trkpt><trkpt lat="45.38198526521397" lon="11.855010486469107"><ele>13.0</ele><time>2026-04-26T09:20:06Z</time></trkpt><trkpt lat="45.38205008514611" lon="11.855062466262876"><ele>13.0</ele><time>2026-04-26T09:20:09Z</time></trkpt><trkpt lat="45.38210691981652" lon="11.855142655871187"><ele>13.0</ele><time>2026-04-26T09:20:12Z</time></trkpt><trkpt lat="45.38216583861226" lon="11.855210027654364"><ele>13.0</ele><time>2026-04-26T09:20:15Z</time></trkpt><trkpt lat="45.382227018930784" lon="11.855291977025965"><ele>13.0</ele><time>2026-04-26T09:20:18Z</time></trkpt><trkpt lat="45.38227264719438" lon="11.855377958279265"><ele>12.833333333333332</ele><time>2026-04-26T09:20:20.999Z</time></trkpt><trkpt lat="45.38233938506392" lon="11.855457694834424"><ele>12.666666666666666</ele><time>2026-04-26T09:20:24.999Z</time></trkpt><trkpt lat="45.38240463525483" lon="11.855506471604562"><ele>12.5</ele><time>2026-04-26T09:20:27.999Z</time></trkpt><trkpt lat="45.38246541150278" lon="11.855531371506709"><ele>12.333333333333332</ele><time>2026-04-26T09:20:31.999Z</time></trkpt><trkpt lat="45.38248577892555" lon="11.855617161553559"><ele>12.166666666666666</ele><time>2026-04-26T09:20:33.999Z</time></trkpt><trkpt lat="45.3825423570231" lon="11.855718226423047"><ele>12.0</ele><time>2026-04-26T09:20:36.999Z</time></trkpt><trkpt lat="45.3825887502831" lon="11.855799807435396"><ele>12.0</ele><time>2026-04-26T09:20:39.999Z</time></trkpt><trkpt lat="45.38265071093584" lon="11.85587718664707"><ele>12.0</ele><time>2026-04-26T09:20:42.999Z</time></trkpt><trkpt lat="45.382714795779656" lon="11.855957566463902"><ele>12.0</ele><time>2026-04-26T09:20:45.999Z</time></trkpt><trkpt lat="45.38277522751262" lon="11.856020990848547"><ele>12.0</ele><time>2026-04-26T09:20:48.999Z</time></trkpt><trkpt lat="45.38284129978123" lon="11.856058146694851"><ele>12.0</ele><time>2026-04-26T09:20:51.999Z</time></trkpt><trkpt lat="45.38289256269171" lon="11.85611960652755"><ele>12.0</ele><time>2026-04-26T09:20:53.999Z</time></trkpt><trkpt lat="45.382931703868486" lon="11.856217916321437"><ele>11.999999999999998</ele><time>2026-04-26T09:20:56.999Z</time></trkpt><trkpt lat="45.38298698446113" lon="11.856277029222937"><ele>12.0</ele><time>2026-04-26T09:20:59.999Z</time></trkpt><trkpt lat="45.38304880578548" lon="11.856360928243403"><ele>12.0</ele><time>2026-04-26T09:21:03.999Z</time></trkpt><trkpt lat="45.38310026379844" lon="11.856449803521603"><ele>12.0</ele><time>2026-04-26T09:21:07.999Z</time></trkpt><trkpt lat="45.38315010221335" lon="11.856522394068605"><ele>12.0</ele><time>2026-04-26T09:21:10.999Z</time></trkpt><trkpt lat="45.38319711092718" lon="11.856597562153917"><ele>11.999999999999998</ele><time>2026-04-26T09:21:13.999Z</time></trkpt><trkpt lat="45.383247010060195" lon="11.85666704210759"><ele>12.0</ele><time>2026-04-26T09:21:16.999Z</time></trkpt><trkpt lat="45.38331013985278" lon="11.856743038455773"><ele>12.0</ele><time>2026-04-26T09:21:19.999Z</time></trkpt><trkpt lat="45.38336859344356" lon="11.856803879937036"><ele>12.0</ele><time>2026-04-26T09:21:23Z</time></trkpt><trkpt lat="45.38342493281044" lon="11.856871940170091"><ele>12.0</ele><time>2026-04-26T09:21:26Z</time></trkpt><trkpt lat="45.38348305361272" lon="11.856932682935764"><ele>12.0</ele><time>2026-04-26T09:21:29Z</time></trkpt><trkpt lat="45.38354402555952" lon="11.856998971965703"><ele>12.0</ele><time>2026-04-26T09:21:32Z</time></trkpt><trkpt lat="45.38359759168085" lon="11.85706914176988"><ele>12.0</ele><time>2026-04-26T09:21:35Z</time></trkpt><trkpt lat="45.38367675002611" lon="11.857140101634325"><ele>12.0</ele><time>2026-04-26T09:21:38Z</time></trkpt><trkpt lat="45.38373495051054" lon="11.857180008040258"><ele>12.0</ele><time>2026-04-26T09:21:40Z</time></trkpt><trkpt lat="45.3837503786135" lon="11.857298367154526"><ele>12.0</ele><time>2026-04-26T09:21:44Z</time></trkpt><trkpt lat="45.38380618095339" lon="11.85739707330403"><ele>12.0</ele><time>2026-04-26T09:21:48Z</time></trkpt><trkpt lat="45.383885884334454" lon="11.857462002470244"><ele>12.0</ele><time>2026-04-26T09:21:51Z</time></trkpt><trkpt lat="45.3839527765923" lon="11.857487284250288"><ele>12.0</ele><time>2026-04-26T09:21:53Z</time></trkpt><trkpt lat="45.38399439515283" lon="11.857559152655712"><ele>12.428571428571427</ele><time>2026-04-26T09:21:56Z</time></trkpt><trkpt lat="45.38405197306699" lon="11.857612559183172"><ele>12.857142857142858</ele><time>2026-04-26T09:21:58Z</time></trkpt><trkpt lat="45.38412340306739" lon="11.857638762833352"><ele>13.285714285714285</ele><time>2026-04-26T09:22:00Z</time></trkpt><trkpt lat="45.38419238322111" lon="11.857684122611156"><ele>13.714285714285714</ele><time>2026-04-26T09:22:02Z</time></trkpt><trkpt lat="45.38422994171578" lon="11.857777786209697"><ele>14.142857142857142</ele><time>2026-04-26T09:22:05Z</time></trkpt><trkpt lat="45.38424680198363" lon="11.857875624473786"><ele>14.571428571428571</ele><time>2026-04-26T09:22:08Z</time></trkpt><trkpt lat="45.3842818141953" lon="11.857965975636844"><ele>15.0</ele><time>2026-04-26T09:22:11Z</time></trkpt><trkpt lat="45.38433396458228" lon="11.85806235554218"><ele>15.0</ele><time>2026-04-26T09:22:14Z</time></trkpt><trkpt lat="45.384343430365945" lon="11.858185127810852"><ele>15.0</ele><time>2026-04-26T09:22:17Z</time></trkpt><trkpt lat="45.38438410665064" lon="11.858270412161662"><ele>15.0</ele><time>2026-04-26T09:22:19.999Z</time></trkpt><trkpt lat="45.384430145760355" lon="11.858370138441247"><ele>15.0</ele><time>2026-04-26T09:22:22.999Z</time></trkpt><trkpt lat="45.384440422280164" lon="11.85846754326793"><ele>15.0</ele><time>2026-04-26T09:22:24.999Z</time></trkpt><trkpt lat="45.38446118350517" lon="11.858586205174536"><ele>15.0</ele><time>2026-04-26T09:22:27.999Z</time></trkpt><trkpt lat="45.38448570716616" lon="11.858698709899965"><ele>14.833333333333334</ele><time>2026-04-26T09:22:30.999Z</time></trkpt><trkpt lat="45.38450308035353" lon="11.858809891263506"><ele>14.666666666666668</ele><time>2026-04-26T09:22:33.999Z</time></trkpt><trkpt lat="45.38453248967227" lon="11.858912407493733"><ele>14.5</ele><time>2026-04-26T09:22:36.999Z</time></trkpt><trkpt lat="45.38454645344028" lon="11.859031004471877"><ele>14.333333333333334</ele><time>2026-04-26T09:22:39.999Z</time></trkpt><trkpt lat="45.384555311818865" lon="11.859142179579083"><ele>14.166666666666668</ele><time>2026-04-26T09:22:42.999Z</time></trkpt><trkpt lat="45.384564542253536" lon="11.859250531952203"><ele>14.0</ele><time>2026-04-26T09:22:45.999Z</time></trkpt><trkpt lat="45.384572146864514" lon="11.859367132962069"><ele>14.000000000000002</ele><time>2026-04-26T09:22:48.999Z</time></trkpt><trkpt lat="45.384598465226155" lon="11.859462602845305"><ele>14.0</ele><time>2026-04-26T09:22:51.999Z</time></trkpt><trkpt lat="45.384606703313935" lon="11.859573441737172"><ele>14.0</ele><time>2026-04-26T09:22:54.999Z</time></trkpt><trkpt lat="45.38460810332258" lon="11.85967966860451"><ele>14.0</ele><time>2026-04-26T09:22:57.999Z</time></trkpt><trkpt lat="45.38463123863908" lon="11.859786262228019"><ele>14.000000000000002</ele><time>2026-04-26T09:23:00.999Z</time></trkpt><trkpt lat="45.38465128974393" lon="11.859896512795173"><ele>14.0</ele><time>2026-04-26T09:23:04.999Z</time></trkpt><trkpt lat="45.3846583807123" lon="11.859993680158372"><ele>14.0</ele><time>2026-04-26T09:23:07.999Z</time></trkpt><trkpt lat="45.384676087795704" lon="11.86008821531527"><ele>14.0</ele><time>2026-04-26T09:23:10.999Z</time></trkpt><trkpt lat="45.38468885190022" lon="11.860185215944878"><ele>14.0</ele><time>2026-04-26T09:23:13.999Z</time></trkpt><trkpt lat="45.384703467132034" lon="11.860280289694888"><ele>14.0</ele><time>2026-04-26T09:23:16.999Z</time></trkpt><trkpt lat="45.384707206245075" lon="11.860404072383407"><ele>14.0</ele><time>2026-04-26T09:23:20.999Z</time></trkpt><trkpt lat="45.38472902252425" lon="11.860504604445177"><ele>14.0</ele><time>2026-04-26T09:23:23.999Z</time></trkpt><trkpt lat="45.3847428077171" lon="11.860602668304315"><ele>14.0</ele><time>2026-04-26T09:23:26.999Z</time></trkpt><trkpt lat="45.3847591032099" lon="11.860716515346102"><ele>13.833333333333334</ele><time>2026-04-26T09:23:30Z</time></trkpt><trkpt lat="45.38477921199789" lon="11.860814877134636"><ele>13.666666666666668</ele><time>2026-04-26T09:23:33Z</time></trkpt><trkpt lat="45.38478750195245" lon="11.860920795856893"><ele>13.5</ele><time>2026-04-26T09:23:36Z</time></trkpt><trkpt lat="45.38481731530271" lon="11.861005474275437"><ele>13.333333333333332</ele><time>2026-04-26T09:23:39Z</time></trkpt><trkpt lat="45.38483370321062" lon="11.861135418636362"><ele>13.166666666666666</ele><time>2026-04-26T09:23:43Z</time></trkpt><trkpt lat="45.38485316150222" lon="11.86123568193013"><ele>13.0</ele><time>2026-04-26T09:23:46Z</time></trkpt><trkpt lat="45.38488052629392" lon="11.861328546997207"><ele>13.0</ele><time>2026-04-26T09:23:49Z</time></trkpt><trkpt lat="45.384887573473264" lon="11.861421471346297"><ele>13.0</ele><time>2026-04-26T09:23:52Z</time></trkpt><trkpt lat="45.384909639583746" lon="11.861514391139002"><ele>13.0</ele><time>2026-04-26T09:23:55Z</time></trkpt><trkpt lat="45.38493550248249" lon="11.861612905102522"><ele>13.0</ele><time>2026-04-26T09:23:58Z</time></trkpt><trkpt lat="45.38497190384961" lon="11.861694229232047"><ele>13.0</ele><time>2026-04-26T09:24:01Z</time></trkpt><trkpt lat="45.384994210195735" lon="11.86178403658426"><ele>13.0</ele><time>2026-04-26T09:24:04Z</time></trkpt><trkpt lat="45.38500848162808" lon="11.861884656503255"><ele>13.0</ele><time>2026-04-26T09:24:07Z</time></trkpt><trkpt lat="45.38504169513426" lon="11.861968154491535"><ele>13.142857142857142</ele><time>2026-04-26T09:24:10Z</time></trkpt><trkpt lat="45.38508471800048" lon="11.862049468111907"><ele>13.285714285714286</ele><time>2026-04-26T09:24:13Z</time></trkpt><trkpt lat="45.38510966931905" lon="11.862148076064368"><ele>13.428571428571429</ele><time>2026-04-26T09:24:16Z</time></trkpt><trkpt lat="45.38515492668297" lon="11.86221465455678"><ele>13.571428571428571</ele><time>2026-04-26T09:24:19Z</time></trkpt><trkpt lat="45.385194513620306" lon="11.862293038975311"><ele>13.714285714285715</ele><time>2026-04-26T09:24:22Z</time></trkpt><trkpt lat="45.38522694959693" lon="11.862379694591029"><ele>13.857142857142858</ele><time>2026-04-26T09:24:25Z</time></trkpt><trkpt lat="45.385247024215495" lon="11.862470133025225"><ele>14.0</ele><time>2026-04-26T09:24:27.999Z</time></trkpt><trkpt lat="45.38529797378822" lon="11.86254596501503"><ele>14.0</ele><time>2026-04-26T09:24:30.999Z</time></trkpt><trkpt lat="45.38535256061789" lon="11.862594585297941"><ele>14.0</ele><time>2026-04-26T09:24:32.999Z</time></trkpt><trkpt lat="45.3853643893029" lon="11.862687799544313"><ele>14.0</ele><time>2026-04-26T09:24:35.999Z</time></trkpt><trkpt lat="45.385376965719736" lon="11.862775668002723"><ele>14.0</ele><time>2026-04-26T09:24:38.999Z</time></trkpt><trkpt lat="45.38541180454028" lon="11.862887471509321"><ele>14.0</ele><time>2026-04-26T09:24:42.999Z</time></trkpt><trkpt lat="45.38544376508568" lon="11.86297681509387"><ele>14.0</ele><time>2026-04-26T09:24:45.999Z</time></trkpt><trkpt lat="45.385476371644934" lon="11.863093952484068"><ele>14.0</ele><time>2026-04-26T09:24:48.999Z</time></trkpt><trkpt lat="45.385515805756754" lon="11.86318165725643"><ele>13.666666666666668</ele><time>2026-04-26T09:24:51.999Z</time></trkpt><trkpt lat="45.38556527888791" lon="11.863277210181753"><ele>13.333333333333334</ele><time>2026-04-26T09:24:54.999Z</time></trkpt><trkpt lat="45.385620861759755" lon="11.863366724779343"><ele>13.0</ele><time>2026-04-26T09:24:57.999Z</time></trkpt><trkpt lat="45.385691577474766" lon="11.86337625418524"><ele>12.666666666666668</ele><time>2026-04-26T09:25:00.999Z</time></trkpt><trkpt lat="45.38576937075905" lon="11.863391633308344"><ele>12.333333333333334</ele><time>2026-04-26T09:25:04.999Z</time></trkpt><trkpt lat="45.38584235067922" lon="11.863381634037165"><ele>12.0</ele><time>2026-04-26T09:25:07.999Z</time></trkpt><trkpt lat="45.38591046799271" lon="11.863367973053283"><ele>11.999999999999998</ele><time>2026-04-26T09:25:10.999Z</time></trkpt><trkpt lat="45.38597360922045" lon="11.863334118048332"><ele>12.0</ele><time>2026-04-26T09:25:14.999Z</time></trkpt><trkpt lat="45.38604546749932" lon="11.863317595786677"><ele>12.0</ele><time>2026-04-26T09:25:17.999Z</time></trkpt><trkpt lat="45.38612568207775" lon="11.863290871652612"><ele>12.0</ele><time>2026-04-26T09:25:20.999Z</time></trkpt><trkpt lat="45.38619855518776" lon="11.863271747936842"><ele>12.0</ele><time>2026-04-26T09:25:23.999Z</time></trkpt><trkpt lat="45.386256084819955" lon="11.86330852830402"><ele>11.999999999999998</ele><time>2026-04-26T09:25:25.999Z</time></trkpt><trkpt lat="45.386320320852214" lon="11.863378901805987"><ele>12.0</ele><time>2026-04-26T09:25:28.999Z</time></trkpt><trkpt lat="45.386362389225596" lon="11.863468927025405"><ele>12.166666666666666</ele><time>2026-04-26T09:25:31.999Z</time></trkpt><trkpt lat="45.38641104641269" lon="11.863562632542582"><ele>12.333333333333332</ele><time>2026-04-26T09:25:35Z</time></trkpt><trkpt lat="45.38646792824999" lon="11.863647537108655"><ele>12.5</ele><time>2026-04-26T09:25:38Z</time></trkpt><trkpt lat="45.38651315157287" lon="11.863732115926556"><ele>12.666666666666666</ele><time>2026-04-26T09:25:41Z</time></trkpt><trkpt lat="45.386568373108844" lon="11.863821202249074"><ele>12.833333333333332</ele><time>2026-04-26T09:25:44Z</time></trkpt><trkpt lat="45.386603410469085" lon="11.863910848223638"><ele>13.0</ele><time>2026-04-26T09:25:47Z</time></trkpt><trkpt lat="45.38665563213508" lon="11.864001344616668"><ele>13.0</ele><time>2026-04-26T09:25:50Z</time></trkpt><trkpt lat="45.38668616453981" lon="11.864101098427309"><ele>13.0</ele><time>2026-04-26T09:25:53Z</time></trkpt><trkpt lat="45.386727850978176" lon="11.864178707933636"><ele>13.0</ele><time>2026-04-26T09:25:56Z</time></trkpt><trkpt lat="45.38676206743127" lon="11.86426441236118"><ele>13.0</ele><time>2026-04-26T09:25:59Z</time></trkpt><trkpt lat="45.38679525627461" lon="11.864361962485273"><ele>13.0</ele><time>2026-04-26T09:26:02Z</time></trkpt><trkpt lat="45.386835781155725" lon="11.864446730554501"><ele>13.0</ele><time>2026-04-26T09:26:05Z</time></trkpt><trkpt lat="45.38686170930238" lon="11.864540078393837"><ele>13.0</ele><time>2026-04-26T09:26:08Z</time></trkpt><trkpt lat="45.38690884741355" lon="11.864622341646037"><ele>12.833333333333332</ele><time>2026-04-26T09:26:11Z</time></trkpt><trkpt lat="45.38694509011533" lon="11.864714016639002"><ele>12.666666666666666</ele><time>2026-04-26T09:26:14Z</time></trkpt><trkpt lat="45.38697899370776" lon="11.864806328662652"><ele>12.5</ele><time>2026-04-26T09:26:17Z</time></trkpt><trkpt lat="45.38703287058281" lon="11.864896617900769"><ele>12.333333333333332</ele><time>2026-04-26T09:26:20Z</time></trkpt><trkpt lat="45.3870778042182" lon="11.864997778550096"><ele>12.166666666666666</ele><time>2026-04-26T09:26:23Z</time></trkpt><trkpt lat="45.387115014417155" lon="11.865089748980493"><ele>12.0</ele><time>2026-04-26T09:26:26Z</time></trkpt><trkpt lat="45.387146685989066" lon="11.865189077872035"><ele>12.142857142857142</ele><time>2026-04-26T09:26:29Z</time></trkpt><trkpt lat="45.387186629944466" lon="11.865274597555135"><ele>12.285714285714285</ele><time>2026-04-26T09:26:32Z</time></trkpt><trkpt lat="45.38722810132713" lon="11.865359306740654"><ele>12.428571428571427</ele><time>2026-04-26T09:26:35Z</time></trkpt><trkpt lat="45.387267788806085" lon="11.86544362671107"><ele>12.571428571428571</ele><time>2026-04-26T09:26:37.999Z</time></trkpt><trkpt lat="45.38730528953626" lon="11.865529412725481"><ele>12.714285714285715</ele><time>2026-04-26T09:26:40.999Z</time></trkpt><trkpt lat="45.387353379900524" lon="11.865619370675024"><ele>12.857142857142856</ele><time>2026-04-26T09:26:43.999Z</time></trkpt><trkpt lat="45.38739072524141" lon="11.8657065889832"><ele>13.0</ele><time>2026-04-26T09:26:46.999Z</time></trkpt><trkpt lat="45.387426245734495" lon="11.865800567336665"><ele>12.999999999999998</ele><time>2026-04-26T09:26:49.999Z</time></trkpt><trkpt lat="45.38749333541414" lon="11.86586530532125"><ele>13.0</ele><time>2026-04-26T09:26:52.999Z</time></trkpt><trkpt lat="45.38753601561703" lon="11.865956792203397"><ele>13.0</ele><time>2026-04-26T09:26:55.999Z</time></trkpt><trkpt lat="45.38757080713777" lon="11.866049810733148"><ele>13.0</ele><time>2026-04-26T09:26:58.999Z</time></trkpt><trkpt lat="45.38761940451263" lon="11.866123326753911"><ele>12.999999999999998</ele><time>2026-04-26T09:27:01.999Z</time></trkpt><trkpt lat="45.387658758998896" lon="11.86621140456655"><ele>13.0</ele><time>2026-04-26T09:27:04.999Z</time></trkpt><trkpt lat="45.38772005771272" lon="11.866286834124512"><ele>12.833333333333332</ele><time>2026-04-26T09:27:07.999Z</time></trkpt><trkpt lat="45.38776578328641" lon="11.866369509506066"><ele>12.666666666666666</ele><time>2026-04-26T09:27:10.999Z</time></trkpt><trkpt lat="45.38780777199067" lon="11.866464799211634"><ele>12.5</ele><time>2026-04-26T09:27:13.999Z</time></trkpt><trkpt lat="45.387874829272924" lon="11.866537680625482"><ele>12.333333333333332</ele><time>2026-04-26T09:27:16.999Z</time></trkpt><trkpt lat="45.387919973631085" lon="11.86662750594226"><ele>12.166666666666666</ele><time>2026-04-26T09:27:19.999Z</time></trkpt><trkpt lat="45.38793991928276" lon="11.866728411314929"><ele>12.0</ele><time>2026-04-26T09:27:22.999Z</time></trkpt><trkpt lat="45.38800660236829" lon="11.866794959419613"><ele>12.166666666666666</ele><time>2026-04-26T09:27:25.999Z</time></trkpt><trkpt lat="45.38808697558688" lon="11.866832814373863"><ele>12.333333333333332</ele><time>2026-04-26T09:27:28.999Z</time></trkpt><trkpt lat="45.38815800806206" lon="11.86690152844863"><ele>12.5</ele><time>2026-04-26T09:27:31.999Z</time></trkpt><trkpt lat="45.38821560081802" lon="11.866938561558875"><ele>12.666666666666666</ele><time>2026-04-26T09:27:33.999Z</time></trkpt><trkpt lat="45.388279255323866" lon="11.866968619595305"><ele>12.833333333333332</ele><time>2026-04-26T09:27:36.999Z</time></trkpt><trkpt lat="45.38834674966975" lon="11.867046306676135"><ele>13.0</ele><time>2026-04-26T09:27:42Z</time></trkpt><trkpt lat="45.38843599499427" lon="11.867070013615441"><ele>12.999999999999998</ele><time>2026-04-26T09:27:45Z</time></trkpt><trkpt lat="45.388530733070134" lon="11.867078633717348"><ele>13.0</ele><time>2026-04-26T09:27:48Z</time></trkpt><trkpt lat="45.388592042309234" lon="11.867134519955544"><ele>13.0</ele><time>2026-04-26T09:27:51Z</time></trkpt><trkpt lat="45.38867831895067" lon="11.867147002731077"><ele>13.0</ele><time>2026-04-26T09:27:54Z</time></trkpt><trkpt lat="45.38875370673757" lon="11.867174378741664"><ele>12.999999999999998</ele><time>2026-04-26T09:27:57Z</time></trkpt><trkpt lat="45.38882079368635" lon="11.867196106852147"><ele>13.0</ele><time>2026-04-26T09:28:00Z</time></trkpt><trkpt lat="45.38889305504289" lon="11.867203347858712"><ele>13.166666666666666</ele><time>2026-04-26T09:28:03Z</time></trkpt><trkpt lat="45.38898112693539" lon="11.867218174665528"><ele>13.333333333333332</ele><time>2026-04-26T09:28:07Z</time></trkpt><trkpt lat="45.38905931778314" lon="11.867210837596224"><ele>13.5</ele><time>2026-04-26T09:28:10Z</time></trkpt><trkpt lat="45.38914199772109" lon="11.867197719225777"><ele>13.666666666666668</ele><time>2026-04-26T09:28:13Z</time></trkpt><trkpt lat="45.38921840113713" lon="11.867172691141796"><ele>13.833333333333334</ele><time>2026-04-26T09:28:16Z</time></trkpt><trkpt lat="45.38929252525325" lon="11.867151578014555"><ele>14.0</ele><time>2026-04-26T09:28:19Z</time></trkpt><trkpt lat="45.38937113795903" lon="11.867150479293414"><ele>14.000000000000002</ele><time>2026-04-26T09:28:23Z</time></trkpt><trkpt lat="45.38945667729576" lon="11.867129014075045"><ele>14.0</ele><time>2026-04-26T09:28:27Z</time></trkpt><trkpt lat="45.38954303518155" lon="11.867132475600249"><ele>14.0</ele><time>2026-04-26T09:28:30Z</time></trkpt><trkpt lat="45.389609556875016" lon="11.867129161201508"><ele>14.0</ele><time>2026-04-26T09:28:33Z</time></trkpt><trkpt lat="45.38969034398104" lon="11.867102820873866"><ele>14.000000000000002</ele><time>2026-04-26T09:28:36Z</time></trkpt><trkpt lat="45.38976284561707" lon="11.867094858669724"><ele>14.0</ele><time>2026-04-26T09:28:38.999Z</time></trkpt><trkpt lat="45.38983412389461" lon="11.867070574325512"><ele>14.000000000000002</ele><time>2026-04-26T09:28:41.999Z</time></trkpt><trkpt lat="45.389916604124544" lon="11.867057855403106"><ele>14.0</ele><time>2026-04-26T09:28:44.999Z</time></trkpt><trkpt lat="45.38998866363474" lon="11.867035225173472"><ele>14.0</ele><time>2026-04-26T09:28:47.999Z</time></trkpt><trkpt lat="45.3900625506552" lon="11.867023326749882"><ele>14.0</ele><time>2026-04-26T09:28:50.999Z</time></trkpt><trkpt lat="45.39014021960177" lon="11.867009254072233"><ele>14.000000000000002</ele><time>2026-04-26T09:28:53.999Z</time></trkpt><trkpt lat="45.39021437175825" lon="11.866999796591802"><ele>14.0</ele><time>2026-04-26T09:28:56.999Z</time></trkpt><trkpt lat="45.390304804023316" lon="11.866992237026254"><ele>14.0</ele><time>2026-04-26T09:29:00.999Z</time></trkpt><trkpt lat="45.390368899825674" lon="11.866978765730204"><ele>14.0</ele><time>2026-04-26T09:29:02.999Z</time></trkpt><trkpt lat="45.39043383313067" lon="11.866981331999305"><ele>14.0</ele><time>2026-04-26T09:29:05.999Z</time></trkpt><trkpt lat="45.39051943357807" lon="11.86696711014422"><ele>14.0</ele><time>2026-04-26T09:29:09.999Z</time></trkpt><trkpt lat="45.390586017946156" lon="11.866948047884756"><ele>14.0</ele><time>2026-04-26T09:29:12.999Z</time></trkpt><trkpt lat="45.39065583089245" lon="11.866938975170529"><ele>14.0</ele><time>2026-04-26T09:29:15.999Z</time></trkpt><trkpt lat="45.390723083213096" lon="11.8669297980228"><ele>14.0</ele><time>2026-04-26T09:29:18.999Z</time></trkpt><trkpt lat="45.390810066264834" lon="11.866923581507729"><ele>14.0</ele><time>2026-04-26T09:29:22.999Z</time></trkpt><trkpt lat="45.39088147917992" lon="11.866911768016521"><ele>14.0</ele><time>2026-04-26T09:29:25.999Z</time></trkpt><trkpt lat="45.39095187024016" lon="11.866893279332603"><ele>14.0</ele><time>2026-04-26T09:29:28.999Z</time></trkpt><trkpt lat="45.391030222222696" lon="11.866881218512393"><ele>14.0</ele><time>2026-04-26T09:29:31.999Z</time></trkpt><trkpt lat="45.3911011806738" lon="11.866862099272604"><ele>14.0</ele><time>2026-04-26T09:29:34.999Z</time></trkpt><trkpt lat="45.39117535144452" lon="11.866844513680505"><ele>14.0</ele><time>2026-04-26T09:29:37.999Z</time></trkpt><trkpt lat="45.39123929130488" lon="11.866828797881023"><ele>14.0</ele><time>2026-04-26T09:29:40.999Z</time></trkpt><trkpt lat="45.39130984109085" lon="11.866817923708433"><ele>14.142857142857142</ele><time>2026-04-26T09:29:43.999Z</time></trkpt><trkpt lat="45.39137950738428" lon="11.866805863755689"><ele>14.285714285714285</ele><time>2026-04-26T09:29:47Z</time></trkpt><trkpt lat="45.39145351218458" lon="11.866791692302431"><ele>14.428571428571429</ele><time>2026-04-26T09:29:50Z</time></trkpt><trkpt lat="45.39152115372171" lon="11.86676471428271"><ele>14.571428571428571</ele><time>2026-04-26T09:29:53Z</time></trkpt><trkpt lat="45.39159550296639" lon="11.866759269645433"><ele>14.714285714285714</ele><time>2026-04-26T09:29:56Z</time></trkpt><trkpt lat="45.39166986119951" lon="11.866732192585065"><ele>14.857142857142858</ele><time>2026-04-26T09:29:59Z</time></trkpt><trkpt lat="45.391744423761786" lon="11.866715187342482"><ele>15.0</ele><time>2026-04-26T09:30:02Z</time></trkpt><trkpt lat="45.391809308473476" lon="11.86670052026982"><ele>15.166666666666666</ele><time>2026-04-26T09:30:05Z</time></trkpt><trkpt lat="45.391882457529746" lon="11.866696535507607"><ele>15.333333333333332</ele><time>2026-04-26T09:30:08Z</time></trkpt><trkpt lat="45.39196675337584" lon="11.866685792876638"><ele>15.5</ele><time>2026-04-26T09:30:11Z</time></trkpt><trkpt lat="45.392050982791886" lon="11.866671524081758"><ele>15.666666666666666</ele><time>2026-04-26T09:30:15Z</time></trkpt><trkpt lat="45.392126234116866" lon="11.866664261273796"><ele>15.833333333333332</ele><time>2026-04-26T09:30:18Z</time></trkpt><trkpt lat="45.39219454257142" lon="11.866645281241103"><ele>16.0</ele><time>2026-04-26T09:30:21Z</time></trkpt><trkpt lat="45.39226321360373" lon="11.866622470573603"><ele>15.999999999999998</ele><time>2026-04-26T09:30:24Z</time></trkpt><trkpt lat="45.392338876798085" lon="11.866582090780392"><ele>16.0</ele><time>2026-04-26T09:30:27Z</time></trkpt><trkpt lat="45.39240957437762" lon="11.866539376897826"><ele>16.0</ele><time>2026-04-26T09:30:30Z</time></trkpt><trkpt lat="45.39249697697469" lon="11.866515616516521"><ele>16.0</ele><time>2026-04-26T09:30:34Z</time></trkpt><trkpt lat="45.39257787498199" lon="11.86650744592351"><ele>15.999999999999998</ele><time>2026-04-26T09:30:37Z</time></trkpt><trkpt lat="45.392642645021006" lon="11.866470916857503"><ele>16.0</ele><time>2026-04-26T09:30:40Z</time></trkpt><trkpt lat="45.39270583245328" lon="11.86644875205826"><ele>16.0</ele><time>2026-04-26T09:30:43Z</time></trkpt><trkpt lat="45.392772253952835" lon="11.866426808694973"><ele>15.999999999999998</ele><time>2026-04-26T09:30:45.999Z</time></trkpt><trkpt lat="45.39283583154604" lon="11.866395679226324"><ele>16.0</ele><time>2026-04-26T09:30:48.999Z</time></trkpt><trkpt lat="45.39291157016767" lon="11.866365074504474"><ele>16.0</ele><time>2026-04-26T09:30:51.999Z</time></trkpt><trkpt lat="45.39297908993158" lon="11.866337194504249"><ele>15.999999999999998</ele><time>2026-04-26T09:30:54.999Z</time></trkpt><trkpt lat="45.39305350723798" lon="11.866307242453273"><ele>16.0</ele><time>2026-04-26T09:30:57.999Z</time></trkpt><trkpt lat="45.393128512789104" lon="11.866292352341377"><ele>16.0</ele><time>2026-04-26T09:31:00.999Z</time></trkpt><trkpt lat="45.393206628401956" lon="11.866244517872387"><ele>16.0</ele><time>2026-04-26T09:31:04.999Z</time></trkpt><trkpt lat="45.39328262032997" lon="11.866221399055478"><ele>15.999999999999998</ele><time>2026-04-26T09:31:07.999Z</time></trkpt><trkpt lat="45.39335869727258" lon="11.866190739334565"><ele>16.0</ele><time>2026-04-26T09:31:10.999Z</time></trkpt><trkpt lat="45.3934256813181" lon="11.866170909929235"><ele>16.0</ele><time>2026-04-26T09:31:13.999Z</time></trkpt><trkpt lat="45.39348587935776" lon="11.866131421801215"><ele>15.999999999999998</ele><time>2026-04-26T09:31:16.999Z</time></trkpt><trkpt lat="45.39355033230667" lon="11.866101798991746"><ele>16.0</ele><time>2026-04-26T09:31:19.999Z</time></trkpt><trkpt lat="45.3936174298183" lon="11.866081328127109"><ele>16.0</ele><time>2026-04-26T09:31:22.999Z</time></trkpt><trkpt lat="45.39367860527518" lon="11.86606017156865"><ele>16.0</ele><time>2026-04-26T09:31:25.999Z</time></trkpt><trkpt lat="45.39373809990946" lon="11.866024797637262"><ele>15.999999999999998</ele><time>2026-04-26T09:31:28.999Z</time></trkpt><trkpt lat="45.393808758323445" lon="11.865993629591742"><ele>16.0</ele><time>2026-04-26T09:31:31.999Z</time></trkpt><trkpt lat="45.39387708223999" lon="11.865945869035226"><ele>16.0</ele><time>2026-04-26T09:31:34.999Z</time></trkpt><trkpt lat="45.393949518816925" lon="11.865912320413814"><ele>15.999999999999998</ele><time>2026-04-26T09:31:37.999Z</time></trkpt><trkpt lat="45.394010024536584" lon="11.865883882461139"><ele>16.0</ele><time>2026-04-26T09:31:40.999Z</time></trkpt><trkpt lat="45.39408988575989" lon="11.865872469974214"><ele>16.0</ele><time>2026-04-26T09:31:43.999Z</time></trkpt><trkpt lat="45.39416833663605" lon="11.8658338348038"><ele>15.857142857142856</ele><time>2026-04-26T09:31:46.999Z</time></trkpt><trkpt lat="45.39424269664858" lon="11.865807379203568"><ele>15.714285714285712</ele><time>2026-04-26T09:31:49.999Z</time></trkpt><trkpt lat="45.39431360213668" lon="11.865785113337617"><ele>15.571428571428571</ele><time>2026-04-26T09:31:53Z</time></trkpt><trkpt lat="45.394384091720795" lon="11.865763989800268"><ele>15.428571428571427</ele><time>2026-04-26T09:31:56Z</time></trkpt><trkpt lat="45.39444219654512" lon="11.865722268154723"><ele>15.285714285714285</ele><time>2026-04-26T09:31:59Z</time></trkpt><trkpt lat="45.39451440687486" lon="11.86570070367221"><ele>15.142857142857142</ele><time>2026-04-26T09:32:02Z</time></trkpt><trkpt lat="45.39458301650406" lon="11.865679213648232"><ele>15.0</ele><time>2026-04-26T09:32:05Z</time></trkpt><trkpt lat="45.39465662041779" lon="11.86564028962259"><ele>14.857142857142858</ele><time>2026-04-26T09:32:08Z</time></trkpt><trkpt lat="45.39473623730789" lon="11.865620776454115"><ele>14.714285714285714</ele><time>2026-04-26T09:32:12Z</time></trkpt><trkpt lat="45.39481207264659" lon="11.865578503570244"><ele>14.571428571428571</ele><time>2026-04-26T09:32:15Z</time></trkpt><trkpt lat="45.39487666877294" lon="11.865549113353365"><ele>14.428571428571429</ele><time>2026-04-26T09:32:18Z</time></trkpt><trkpt lat="45.394943054094995" lon="11.865527088617071"><ele>14.285714285714285</ele><time>2026-04-26T09:32:21Z</time></trkpt><trkpt lat="45.395009038522325" lon="11.865512370996784"><ele>14.142857142857142</ele><time>2026-04-26T09:32:24Z</time></trkpt><trkpt lat="45.395077525843654" lon="11.86548432314825"><ele>14.0</ele><time>2026-04-26T09:32:27Z</time></trkpt><trkpt lat="45.39515647317568" lon="11.865458722533159"><ele>14.000000000000002</ele><time>2026-04-26T09:32:30Z</time></trkpt><trkpt lat="45.3952274154494" lon="11.865439754267651"><ele>14.0</ele><time>2026-04-26T09:32:33Z</time></trkpt><trkpt lat="45.39529744607368" lon="11.865417634021721"><ele>14.0</ele><time>2026-04-26T09:32:36Z</time></trkpt><trkpt lat="45.39537181587579" lon="11.86539385739064"><ele>14.0</ele><time>2026-04-26T09:32:39Z</time></trkpt><trkpt lat="45.39543516265628" lon="11.865365358000131"><ele>14.000000000000002</ele><time>2026-04-26T09:32:42Z</time></trkpt><trkpt lat="45.395514670843866" lon="11.865328995198253"><ele>14.0</ele><time>2026-04-26T09:32:45Z</time></trkpt><trkpt lat="45.395601180179426" lon="11.865310466979366"><ele>14.0</ele><time>2026-04-26T09:32:49Z</time></trkpt><trkpt lat="45.39566354829652" lon="11.865284322015198"><ele>14.0</ele><time>2026-04-26T09:32:51.999Z</time></trkpt><trkpt lat="45.39573456851577" lon="11.865265576710549"><ele>14.0</ele><time>2026-04-26T09:32:54.999Z</time></trkpt><trkpt lat="45.395805108713624" lon="11.865247460478907"><ele>14.0</ele><time>2026-04-26T09:32:57.999Z</time></trkpt><trkpt lat="45.39587234130935" lon="11.865226948295282"><ele>14.0</ele><time>2026-04-26T09:33:00.999Z</time></trkpt><trkpt lat="45.39595375574851" lon="11.86519581703724"><ele>14.0</ele><time>2026-04-26T09:33:03.999Z</time></trkpt><trkpt lat="45.3960263645586" lon="11.865177282421653"><ele>14.0</ele><time>2026-04-26T09:33:06.999Z</time></trkpt><trkpt lat="45.396098056371706" lon="11.86514827819001"><ele>14.0</ele><time>2026-04-26T09:33:09.999Z</time></trkpt><trkpt lat="45.39616920516951" lon="11.86513860446371"><ele>14.0</ele><time>2026-04-26T09:33:12.999Z</time></trkpt><trkpt lat="45.39624968280421" lon="11.8651064737036"><ele>14.0</ele><time>2026-04-26T09:33:15.999Z</time></trkpt><trkpt lat="45.39631750841773" lon="11.865087736299452"><ele>14.0</ele><time>2026-04-26T09:33:18.999Z</time></trkpt><trkpt lat="45.39638047302075" lon="11.865074683765494"><ele>14.0</ele><time>2026-04-26T09:33:21.999Z</time></trkpt><trkpt lat="45.39645665449994" lon="11.865040772274797"><ele>14.0</ele><time>2026-04-26T09:33:24.999Z</time></trkpt><trkpt lat="45.396531787334446" lon="11.86501413535594"><ele>14.0</ele><time>2026-04-26T09:33:27.999Z</time></trkpt><trkpt lat="45.39659592804793" lon="11.864999507401453"><ele>14.285714285714285</ele><time>2026-04-26T09:33:30.999Z</time></trkpt><trkpt lat="45.39666658656604" lon="11.864970663857036"><ele>14.571428571428571</ele><time>2026-04-26T09:33:33.999Z</time></trkpt><trkpt lat="45.39673544707147" lon="11.864985136546652"><ele>14.857142857142858</ele><time>2026-04-26T09:33:36.999Z</time></trkpt><trkpt lat="45.39680319148953" lon="11.86493310852981"><ele>15.142857142857142</ele><time>2026-04-26T09:33:39.999Z</time></trkpt><trkpt lat="45.39686845228926" lon="11.864904285546382"><ele>15.428571428571427</ele><time>2026-04-26T09:33:41.999Z</time></trkpt><trkpt lat="45.396935608937234" lon="11.864881774592096"><ele>15.714285714285714</ele><time>2026-04-26T09:33:44.999Z</time></trkpt><trkpt lat="45.397010364202096" lon="11.864851468913496"><ele>16.0</ele><time>2026-04-26T09:33:47.999Z</time></trkpt><trkpt lat="45.39707906006767" lon="11.864819228063004"><ele>16.0</ele><time>2026-04-26T09:33:50.999Z</time></trkpt><trkpt lat="45.3971562313755" lon="11.864798063524555"><ele>15.999999999999998</ele><time>2026-04-26T09:33:53.999Z</time></trkpt><trkpt lat="45.3972241468139" lon="11.864778247640475"><ele>16.0</ele><time>2026-04-26T09:33:56.999Z</time></trkpt><trkpt lat="45.39728699978483" lon="11.864761458729141"><ele>16.0</ele><time>2026-04-26T09:34:00Z</time></trkpt><trkpt lat="45.39734838848011" lon="11.864741430666843"><ele>15.999999999999998</ele><time>2026-04-26T09:34:03Z</time></trkpt><trkpt lat="45.397427370755835" lon="11.864717909327977"><ele>16.0</ele><time>2026-04-26T09:34:06Z</time></trkpt><trkpt lat="45.39750886762911" lon="11.86471380222002"><ele>16.0</ele><time>2026-04-26T09:34:09Z</time></trkpt><trkpt lat="45.39758654016008" lon="11.864705372608254"><ele>15.857142857142856</ele><time>2026-04-26T09:34:12Z</time></trkpt><trkpt lat="45.39765544885541" lon="11.8646941754746"><ele>15.714285714285712</ele><time>2026-04-26T09:34:15Z</time></trkpt><trkpt lat="45.397734540593085" lon="11.864664259330928"><ele>15.571428571428571</ele><time>2026-04-26T09:34:18Z</time></trkpt><trkpt lat="45.39780621197248" lon="11.864647531424284"><ele>15.428571428571427</ele><time>2026-04-26T09:34:21Z</time></trkpt><trkpt lat="45.397876097668274" lon="11.864622591349685"><ele>15.285714285714285</ele><time>2026-04-26T09:34:24Z</time></trkpt><trkpt lat="45.39794108885194" lon="11.86459919555117"><ele>15.142857142857142</ele><time>2026-04-26T09:34:27Z</time></trkpt><trkpt lat="45.398011494527225" lon="11.864579840734052"><ele>15.0</ele><time>2026-04-26T09:34:30Z</time></trkpt><trkpt lat="45.39807718597048" lon="11.864560062561349"><ele>15.0</ele><time>2026-04-26T09:34:33Z</time></trkpt><trkpt lat="45.3981496138109" lon="11.864560714848741"><ele>15.0</ele><time>2026-04-26T09:34:36Z</time></trkpt><trkpt lat="45.39821780001141" lon="11.864541454689299"><ele>15.0</ele><time>2026-04-26T09:34:39Z</time></trkpt><trkpt lat="45.39829179144583" lon="11.864533445840182"><ele>15.0</ele><time>2026-04-26T09:34:42Z</time></trkpt><trkpt lat="45.39837058539774" lon="11.864536245530156"><ele>15.0</ele><time>2026-04-26T09:34:45Z</time></trkpt><trkpt lat="45.39844649546006" lon="11.864531016357644"><ele>15.0</ele><time>2026-04-26T09:34:48Z</time></trkpt><trkpt lat="45.39852270228062" lon="11.864529686402468"><ele>15.0</ele><time>2026-04-26T09:34:51Z</time></trkpt><trkpt lat="45.398590252934305" lon="11.864528179274087"><ele>15.0</ele><time>2026-04-26T09:34:54Z</time></trkpt><trkpt lat="45.39867982571657" lon="11.86451667050484"><ele>15.0</ele><time>2026-04-26T09:34:56.999Z</time></trkpt><trkpt lat="45.398767691010086" lon="11.864491293150039"><ele>15.0</ele><time>2026-04-26T09:34:59.999Z</time></trkpt><trkpt lat="45.39883619654812" lon="11.864482254059213"><ele>15.0</ele><time>2026-04-26T09:35:02.999Z</time></trkpt><trkpt lat="45.39890666610866" lon="11.864417679217977"><ele>15.0</ele><time>2026-04-26T09:35:05.999Z</time></trkpt><trkpt lat="45.398966327931284" lon="11.864364175433112"><ele>15.0</ele><time>2026-04-26T09:35:08.999Z</time></trkpt><trkpt lat="45.39901944577834" lon="11.864308078462162"><ele>14.833333333333334</ele><time>2026-04-26T09:35:11.999Z</time></trkpt><trkpt lat="45.399038337921304" lon="11.864194475842076"><ele>14.666666666666668</ele><time>2026-04-26T09:35:14.999Z</time></trkpt><trkpt lat="45.39907602284681" lon="11.864100951985995"><ele>14.5</ele><time>2026-04-26T09:35:17.999Z</time></trkpt><trkpt lat="45.399136086483516" lon="11.864016654527129"><ele>14.333333333333334</ele><time>2026-04-26T09:35:21.999Z</time></trkpt><trkpt lat="45.39920383006656" lon="11.863955756330366"><ele>14.166666666666668</ele><time>2026-04-26T09:35:24.999Z</time></trkpt><trkpt lat="45.39927074866446" lon="11.863908626845394"><ele>14.0</ele><time>2026-04-26T09:35:27.999Z</time></trkpt><trkpt lat="45.39934167653067" lon="11.863833140556258"><ele>14.000000000000002</ele><time>2026-04-26T09:35:30.999Z</time></trkpt><trkpt lat="45.3994221258326" lon="11.86381009324215"><ele>14.0</ele><time>2026-04-26T09:35:33.999Z</time></trkpt><trkpt lat="45.39949527465328" lon="11.863762909134124"><ele>14.0</ele><time>2026-04-26T09:35:36.999Z</time></trkpt><trkpt lat="45.3995610258929" lon="11.863723920128175"><ele>14.0</ele><time>2026-04-26T09:35:39.999Z</time></trkpt><trkpt lat="45.39962489084205" lon="11.863693970134536"><ele>14.000000000000002</ele><time>2026-04-26T09:35:42.999Z</time></trkpt><trkpt lat="45.39969172595822" lon="11.86370454296243"><ele>14.0</ele><time>2026-04-26T09:35:46.999Z</time></trkpt><trkpt lat="45.399780234287434" lon="11.863698334298777"><ele>13.857142857142858</ele><time>2026-04-26T09:35:49.999Z</time></trkpt><trkpt lat="45.39985862858867" lon="11.863706827005123"><ele>13.714285714285715</ele><time>2026-04-26T09:35:52.999Z</time></trkpt><trkpt lat="45.39992896645854" lon="11.863696031396662"><ele>13.571428571428571</ele><time>2026-04-26T09:35:55.999Z</time></trkpt><trkpt lat="45.39999610060722" lon="11.863703364144516"><ele>13.428571428571429</ele><time>2026-04-26T09:35:58.999Z</time></trkpt><trkpt lat="45.40007240225781" lon="11.863702596477593"><ele>13.285714285714286</ele><time>2026-04-26T09:36:01.999Z</time></trkpt><trkpt lat="45.40014433210484" lon="11.863702591571803"><ele>13.142857142857142</ele><time>2026-04-26T09:36:05Z</time></trkpt><trkpt lat="45.40022541261415" lon="11.863705796331473"><ele>13.0</ele><time>2026-04-26T09:36:09Z</time></trkpt><trkpt lat="45.40029284029404" lon="11.863708335405622"><ele>13.0</ele><time>2026-04-26T09:36:12Z</time></trkpt><trkpt lat="45.40036361924904" lon="11.863728017479753"><ele>13.0</ele><time>2026-04-26T09:36:17Z</time></trkpt><trkpt lat="45.400434594858616" lon="11.863724889189216"><ele>13.0</ele><time>2026-04-26T09:36:19Z</time></trkpt><trkpt lat="45.40050321816143" lon="11.863706593208763"><ele>13.0</ele><time>2026-04-26T09:36:21Z</time></trkpt><trkpt lat="45.400581135847126" lon="11.863709439783694"><ele>13.0</ele><time>2026-04-26T09:36:24Z</time></trkpt><trkpt lat="45.40066135030388" lon="11.86370411140076"><ele>13.0</ele><time>2026-04-26T09:36:27Z</time></trkpt><trkpt lat="45.400736360738286" lon="11.863710087258061"><ele>13.0</ele><time>2026-04-26T09:36:31Z</time></trkpt><trkpt lat="45.40079934191631" lon="11.863713172342536"><ele>13.0</ele><time>2026-04-26T09:36:36Z</time></trkpt><trkpt lat="45.40086689431987" lon="11.863731975579205"><ele>13.0</ele><time>2026-04-26T09:36:42Z</time></trkpt><trkpt lat="45.400931563804235" lon="11.86372634579169"><ele>13.0</ele><time>2026-04-26T09:36:47Z</time></trkpt><trkpt lat="45.40100479959382" lon="11.86373288876725"><ele>13.0</ele><time>2026-04-26T09:36:51Z</time></trkpt><trkpt lat="45.40106845189584" lon="11.863739416717314"><ele>13.0</ele><time>2026-04-26T09:36:55Z</time></trkpt><trkpt lat="45.40114765681558" lon="11.863749408253733"><ele>13.0</ele><time>2026-04-26T09:37:00Z</time></trkpt><trkpt lat="45.40120661348749" lon="11.863709310945842"><ele>13.0</ele><time>2026-04-26T09:37:03.999Z</time></trkpt><trkpt lat="45.401275376607494" lon="11.86372033176444"><ele>13.0</ele><time>2026-04-26T09:37:09.999Z</time></trkpt><trkpt lat="45.40134230662595" lon="11.863742873669578"><ele>13.0</ele><time>2026-04-26T09:37:14.999Z</time></trkpt><trkpt lat="45.40140229622365" lon="11.863702072582138"><ele>13.0</ele><time>2026-04-26T09:37:17.999Z</time></trkpt><trkpt lat="45.401473725787234" lon="11.863692976558239"><ele>13.0</ele><time>2026-04-26T09:37:22.999Z</time></trkpt><trkpt lat="45.40153453112376" lon="11.863725812955884"><ele>13.0</ele><time>2026-04-26T09:37:26.999Z</time></trkpt><trkpt lat="45.40160057490452" lon="11.863736542829095"><ele>13.0</ele><time>2026-04-26T09:37:32.999Z</time></trkpt><trkpt lat="45.40166837779822" lon="11.863735163457077"><ele>13.0</ele><time>2026-04-26T09:37:37.999Z</time></trkpt><trkpt lat="45.40174287068903" lon="11.863755273274112"><ele>13.0</ele><time>2026-04-26T09:37:42.999Z</time></trkpt><trkpt lat="45.401806315983045" lon="11.863738389142336"><ele>13.0</ele><time>2026-04-26T09:37:45.999Z</time></trkpt><trkpt lat="45.401875214425225" lon="11.863733422008991"><ele>13.0</ele><time>2026-04-26T09:37:50.999Z</time></trkpt><trkpt lat="45.40194400638731" lon="11.863726544444207"><ele>13.0</ele><time>2026-04-26T09:37:54.999Z</time></trkpt><trkpt lat="45.4020188624068" lon="11.863723159837104"><ele>13.0</ele><time>2026-04-26T09:37:59.999Z</time></trkpt><trkpt lat="45.402100515890425" lon="11.863721878497895"><ele>13.0</ele><time>2026-04-26T09:38:04.999Z</time></trkpt><trkpt lat="45.40216315316166" lon="11.863738410973786"><ele>13.0</ele><time>2026-04-26T09:38:08.999Z</time></trkpt><trkpt lat="45.402236361302826" lon="11.86374538580916"><ele>13.166666666666666</ele><time>2026-04-26T09:38:13Z</time></trkpt><trkpt lat="45.40230661425449" lon="11.86371079522756"><ele>13.333333333333332</ele><time>2026-04-26T09:38:17Z</time></trkpt><trkpt lat="45.40237372881496" lon="11.863738418588142"><ele>13.5</ele><time>2026-04-26T09:38:20Z</time></trkpt><trkpt lat="45.402454413460255" lon="11.863714022850036"><ele>13.666666666666668</ele><time>2026-04-26T09:38:23Z</time></trkpt><trkpt lat="45.40254000101518" lon="11.863679182025734"><ele>13.833333333333334</ele><time>2026-04-26T09:38:26Z</time></trkpt><trkpt lat="45.4026143632201" lon="11.863640633129261"><ele>14.0</ele><time>2026-04-26T09:38:29Z</time></trkpt><trkpt lat="45.402683057320715" lon="11.863566256045933"><ele>14.000000000000002</ele><time>2026-04-26T09:38:32Z</time></trkpt><trkpt lat="45.40275486972612" lon="11.863543635965252"><ele>14.0</ele><time>2026-04-26T09:38:35Z</time></trkpt><trkpt lat="45.40282538103374" lon="11.863479837625036"><ele>14.0</ele><time>2026-04-26T09:38:38Z</time></trkpt><trkpt lat="45.40287151473258" lon="11.863395029849437"><ele>14.0</ele><time>2026-04-26T09:38:41Z</time></trkpt><trkpt lat="45.402933493477406" lon="11.863331949620564"><ele>14.000000000000002</ele><time>2026-04-26T09:38:44Z</time></trkpt><trkpt lat="45.40298907518713" lon="11.863289713850124"><ele>14.0</ele><time>2026-04-26T09:38:46Z</time></trkpt><trkpt lat="45.40307048111038" lon="11.863310460966382"><ele>14.166666666666668</ele><time>2026-04-26T09:38:48Z</time></trkpt><trkpt lat="45.40315752244692" lon="11.86332389897972"><ele>14.333333333333334</ele><time>2026-04-26T09:38:51Z</time></trkpt><trkpt lat="45.40323214051946" lon="11.86329880137276"><ele>14.5</ele><time>2026-04-26T09:38:54Z</time></trkpt><trkpt lat="45.40328825352025" lon="11.863253530783098"><ele>14.666666666666668</ele><time>2026-04-26T09:38:57Z</time></trkpt><trkpt lat="45.4033434607034" lon="11.863199241054573"><ele>14.833333333333334</ele><time>2026-04-26T09:39:00Z</time></trkpt><trkpt lat="45.4034331274432" lon="11.86319563815482"><ele>15.0</ele><time>2026-04-26T09:39:02.999Z</time></trkpt><trkpt lat="45.403509713652156" lon="11.863162095510104"><ele>15.0</ele><time>2026-04-26T09:39:05.999Z</time></trkpt><trkpt lat="45.40360067249267" lon="11.863140689347611"><ele>15.0</ele><time>2026-04-26T09:39:07.999Z</time></trkpt><trkpt lat="45.403666123325294" lon="11.863173347747002"><ele>15.0</ele><time>2026-04-26T09:39:09.999Z</time></trkpt><trkpt lat="45.403726179250576" lon="11.863207553662129"><ele>15.0</ele><time>2026-04-26T09:39:11.999Z</time></trkpt><trkpt lat="45.40379438382677" lon="11.863273152621048"><ele>15.0</ele><time>2026-04-26T09:39:15.999Z</time></trkpt><trkpt lat="45.403858408847796" lon="11.863281280995551"><ele>15.0</ele><time>2026-04-26T09:39:17.999Z</time></trkpt><trkpt lat="45.40392416507493" lon="11.863293849294458"><ele>15.0</ele><time>2026-04-26T09:39:19.999Z</time></trkpt><trkpt lat="45.40401262085681" lon="11.863302772111306"><ele>14.666666666666666</ele><time>2026-04-26T09:39:22.999Z</time></trkpt><trkpt lat="45.404087830332685" lon="11.86338260561921"><ele>14.333333333333332</ele><time>2026-04-26T09:39:25.999Z</time></trkpt><trkpt lat="45.40414370567473" lon="11.863472003438433"><ele>14.0</ele><time>2026-04-26T09:39:28.999Z</time></trkpt><trkpt lat="45.404191087628355" lon="11.863558161875968"><ele>13.666666666666666</ele><time>2026-04-26T09:39:31.999Z</time></trkpt><trkpt lat="45.40423151057476" lon="11.863650614715842"><ele>13.333333333333332</ele><time>2026-04-26T09:39:34.999Z</time></trkpt><trkpt lat="45.40427494686842" lon="11.863751357038222"><ele>13.0</ele><time>2026-04-26T09:39:37.999Z</time></trkpt><trkpt lat="45.404316384529864" lon="11.863823679641023"><ele>12.999999999999998</ele><time>2026-04-26T09:39:40.999Z</time></trkpt><trkpt lat="45.40436718331645" lon="11.863918027418794"><ele>13.0</ele><time>2026-04-26T09:39:43.999Z</time></trkpt><trkpt lat="45.40442195487693" lon="11.864002566288688"><ele>13.0</ele><time>2026-04-26T09:39:46.999Z</time></trkpt><trkpt lat="45.40447947616966" lon="11.864091134951366"><ele>13.0</ele><time>2026-04-26T09:39:49.999Z</time></trkpt><trkpt lat="45.40451864111975" lon="11.86418215068481"><ele>12.999999999999998</ele><time>2026-04-26T09:39:52.999Z</time></trkpt><trkpt lat="45.40455707043745" lon="11.86425751047496"><ele>13.0</ele><time>2026-04-26T09:39:54.999Z</time></trkpt><trkpt lat="45.40460049029113" lon="11.864347059913797"><ele>12.999999999999998</ele><time>2026-04-26T09:39:57.999Z</time></trkpt><trkpt lat="45.40463920220021" lon="11.864441170263737"><ele>13.0</ele><time>2026-04-26T09:40:00.999Z</time></trkpt><trkpt lat="45.40467097724001" lon="11.864544579703423"><ele>13.0</ele><time>2026-04-26T09:40:03.999Z</time></trkpt><trkpt lat="45.40470012580743" lon="11.864657437690076"><ele>13.0</ele><time>2026-04-26T09:40:06.999Z</time></trkpt><trkpt lat="45.404734841646246" lon="11.864758088852764"><ele>12.999999999999998</ele><time>2026-04-26T09:40:09.999Z</time></trkpt><trkpt lat="45.404774911399095" lon="11.864855182277639"><ele>13.0</ele><time>2026-04-26T09:40:12.999Z</time></trkpt><trkpt lat="45.404779577527556" lon="11.864983715689622"><ele>13.166666666666666</ele><time>2026-04-26T09:40:16Z</time></trkpt><trkpt lat="45.40481306912001" lon="11.865070789086676"><ele>13.333333333333332</ele><time>2026-04-26T09:40:19Z</time></trkpt><trkpt lat="45.404804761756836" lon="11.865176050495803"><ele>13.5</ele><time>2026-04-26T09:40:21Z</time></trkpt><trkpt lat="45.4048256882514" lon="11.865268190442478"><ele>13.666666666666668</ele><time>2026-04-26T09:40:24Z</time></trkpt><trkpt lat="45.404880651989934" lon="11.865355932860902"><ele>13.833333333333334</ele><time>2026-04-26T09:40:27Z</time></trkpt><trkpt lat="45.404956178497144" lon="11.865410266446665"><ele>14.0</ele><time>2026-04-26T09:40:30Z</time></trkpt><trkpt lat="45.40511338409749" lon="11.865394658358866"><ele>14.333333333333334</ele><time>2026-04-26T09:40:32Z</time></trkpt><trkpt lat="45.40511874804304" lon="11.865490278822044"><ele>14.666666666666668</ele><time>2026-04-26T09:40:37Z</time></trkpt><trkpt lat="45.4051477028472" lon="11.86559927203144"><ele>15.0</ele><time>2026-04-26T09:40:39Z</time></trkpt><trkpt lat="45.40518845383435" lon="11.865698671087383"><ele>15.333333333333332</ele><time>2026-04-26T09:40:42Z</time></trkpt><trkpt lat="45.405244916461236" lon="11.865781822456196"><ele>15.666666666666666</ele><time>2026-04-26T09:40:45Z</time></trkpt><trkpt lat="45.40528008045479" lon="11.865859034311292"><ele>16.0</ele><time>2026-04-26T09:40:48Z</time></trkpt><trkpt lat="45.40530202318581" lon="11.86597565879129"><ele>16.333333333333332</ele><time>2026-04-26T09:40:51Z</time></trkpt><trkpt lat="45.40533377208085" lon="11.86607367783044"><ele>16.666666666666664</ele><time>2026-04-26T09:40:54Z</time></trkpt><trkpt lat="45.40534881998628" lon="11.866176400840022"><ele>17.0</ele><time>2026-04-26T09:40:57Z</time></trkpt><trkpt lat="45.405367882075396" lon="11.866262191727973"><ele>17.333333333333332</ele><time>2026-04-26T09:41:00Z</time></trkpt><trkpt lat="45.405382995477844" lon="11.866359707746488"><ele>17.666666666666668</ele><time>2026-04-26T09:41:03Z</time></trkpt><trkpt lat="45.40539956692733" lon="11.866506024138658"><ele>18.0</ele><time>2026-04-26T09:41:05Z</time></trkpt><trkpt lat="45.405418199685826" lon="11.866607012384865"><ele>18.0</ele><time>2026-04-26T09:41:08.999Z</time></trkpt><trkpt lat="45.40543033875209" lon="11.866705941450334"><ele>18.0</ele><time>2026-04-26T09:41:11.999Z</time></trkpt><trkpt lat="45.40548014845122" lon="11.86682028666015"><ele>18.0</ele><time>2026-04-26T09:41:14.999Z</time></trkpt><trkpt lat="45.40548813705609" lon="11.866922340626717"><ele>18.0</ele><time>2026-04-26T09:41:17.999Z</time></trkpt><trkpt lat="45.40547227775639" lon="11.867010176092435"><ele>18.0</ele><time>2026-04-26T09:41:21.999Z</time></trkpt><trkpt lat="45.4054878169392" lon="11.86711089426594"><ele>18.0</ele><time>2026-04-26T09:41:24.999Z</time></trkpt><trkpt lat="45.405472794336184" lon="11.86724618360488"><ele>17.666666666666668</ele><time>2026-04-26T09:41:28.999Z</time></trkpt><trkpt lat="45.405449186712005" lon="11.86737567326478"><ele>17.333333333333332</ele><time>2026-04-26T09:41:31.999Z</time></trkpt><trkpt lat="45.40547754277762" lon="11.867468799192277"><ele>17.0</ele><time>2026-04-26T09:41:33.999Z</time></trkpt><trkpt lat="45.40548305785333" lon="11.867560993162206"><ele>16.666666666666664</ele><time>2026-04-26T09:41:36.999Z</time></trkpt><trkpt lat="45.40549231764094" lon="11.867659178282334"><ele>16.333333333333332</ele><time>2026-04-26T09:41:39.999Z</time></trkpt><trkpt lat="45.40544398663915" lon="11.867741579453646"><ele>16.0</ele><time>2026-04-26T09:41:42.999Z</time></trkpt><trkpt lat="45.40542464750095" lon="11.867856165935116"><ele>15.999999999999998</ele><time>2026-04-26T09:41:46.999Z</time></trkpt><trkpt lat="45.405460182388516" lon="11.867934241926283"><ele>16.0</ele><time>2026-04-26T09:41:49.999Z</time></trkpt><trkpt lat="45.40549663532792" lon="11.868034865528932"><ele>16.0</ele><time>2026-04-26T09:41:52.999Z</time></trkpt><trkpt lat="45.40546828820527" lon="11.868160763278867"><ele>16.0</ele><time>2026-04-26T09:41:55.999Z</time></trkpt><trkpt lat="45.40546501858118" lon="11.868269857526121"><ele>15.999999999999998</ele><time>2026-04-26T09:41:58.999Z</time></trkpt><trkpt lat="45.40547118997954" lon="11.868374285186814"><ele>16.0</ele><time>2026-04-26T09:42:01.999Z</time></trkpt><trkpt lat="45.405472105488194" lon="11.868495813773123"><ele>16.714285714285715</ele><time>2026-04-26T09:42:04.999Z</time></trkpt><trkpt lat="45.40549649758174" lon="11.868596181384913"><ele>17.428571428571427</ele><time>2026-04-26T09:42:07.999Z</time></trkpt><trkpt lat="45.40555045080481" lon="11.86866109813403"><ele>18.142857142857142</ele><time>2026-04-26T09:42:09.999Z</time></trkpt><trkpt lat="45.40559037813118" lon="11.868759523791006"><ele>18.857142857142858</ele><time>2026-04-26T09:42:12.999Z</time></trkpt><trkpt lat="45.40562416497303" lon="11.868852191944368"><ele>19.57142857142857</ele><time>2026-04-26T09:42:15.999Z</time></trkpt><trkpt lat="45.40564003828698" lon="11.868945227699404"><ele>20.285714285714285</ele><time>2026-04-26T09:42:18.999Z</time></trkpt><trkpt lat="45.40568342696854" lon="11.869031488183763"><ele>21.0</ele><time>2026-04-26T09:42:22Z</time></trkpt><trkpt lat="45.40561180001062" lon="11.869122566010665"><ele>21.0</ele><time>2026-04-26T09:42:23Z</time></trkpt><trkpt lat="45.40561645334342" lon="11.86923065281546"><ele>21.0</ele><time>2026-04-26T09:42:25Z</time></trkpt><trkpt lat="45.40563532172766" lon="11.869337731067784"><ele>21.0</ele><time>2026-04-26T09:42:27Z</time></trkpt><trkpt lat="45.405613712805796" lon="11.869431815438958"><ele>21.0</ele><time>2026-04-26T09:42:31Z</time></trkpt><trkpt lat="45.405630965745566" lon="11.869525618909874"><ele>21.0</ele><time>2026-04-26T09:42:34Z</time></trkpt><trkpt lat="45.40565945150577" lon="11.869618906826046"><ele>21.0</ele><time>2026-04-26T09:42:36Z</time></trkpt><trkpt lat="45.40568861877732" lon="11.869707918301984"><ele>21.0</ele><time>2026-04-26T09:42:39Z</time></trkpt><trkpt lat="45.40570432089407" lon="11.869812328592298"><ele>21.166666666666668</ele><time>2026-04-26T09:42:42Z</time></trkpt><trkpt lat="45.40571809885958" lon="11.869907011460821"><ele>21.333333333333332</ele><time>2026-04-26T09:42:44Z</time></trkpt><trkpt lat="45.40574592254756" lon="11.870027470841302"><ele>21.5</ele><time>2026-04-26T09:42:48Z</time></trkpt><trkpt lat="45.405754673891" lon="11.87014193051836"><ele>21.666666666666664</ele><time>2026-04-26T09:42:52Z</time></trkpt><trkpt lat="45.40579783850377" lon="11.870241965433422"><ele>21.833333333333332</ele><time>2026-04-26T09:42:55Z</time></trkpt><trkpt lat="45.405823790397825" lon="11.870331145340753"><ele>22.0</ele><time>2026-04-26T09:43:01Z</time></trkpt><trkpt lat="45.40576258950295" lon="11.870483016544176"><ele>22.0</ele><time>2026-04-26T09:43:02Z</time></trkpt><trkpt lat="45.405811922130084" lon="11.870675119909988"><ele>22.0</ele><time>2026-04-26T09:43:04Z</time></trkpt><trkpt lat="45.40576002113386" lon="11.870738234951135"><ele>22.0</ele><time>2026-04-26T09:43:08Z</time></trkpt><trkpt lat="45.40575395955863" lon="11.870840238115928"><ele>22.0</ele><time>2026-04-26T09:43:10Z</time></trkpt><trkpt lat="45.405721006775636" lon="11.870928625795434"><ele>22.0</ele><time>2026-04-26T09:43:13Z</time></trkpt><trkpt lat="45.40571262311791" lon="11.871037807253625"><ele>22.0</ele><time>2026-04-26T09:43:16Z</time></trkpt><trkpt lat="45.405847597085746" lon="11.871152680718744"><ele>22.0</ele><time>2026-04-26T09:43:19Z</time></trkpt><trkpt lat="45.40588988042953" lon="11.871230732617732"><ele>22.0</ele><time>2026-04-26T09:43:20.999Z</time></trkpt><trkpt lat="45.40587821234128" lon="11.871319227505639"><ele>22.0</ele><time>2026-04-26T09:43:23.999Z</time></trkpt><trkpt lat="45.40586090855268" lon="11.871431282166325"><ele>22.0</ele><time>2026-04-26T09:43:26.999Z</time></trkpt><trkpt lat="45.405880237429905" lon="11.871528435792916"><ele>22.0</ele><time>2026-04-26T09:43:29.999Z</time></trkpt><trkpt lat="45.4059113180874" lon="11.871634648824644"><ele>22.0</ele><time>2026-04-26T09:43:32.999Z</time></trkpt><trkpt lat="45.40591568037233" lon="11.871756948519522"><ele>21.833333333333332</ele><time>2026-04-26T09:43:35.999Z</time></trkpt><trkpt lat="45.40592754187967" lon="11.871885806671234"><ele>21.666666666666664</ele><time>2026-04-26T09:43:38.999Z</time></trkpt><trkpt lat="45.40590332877541" lon="11.871984127971029"><ele>21.5</ele><time>2026-04-26T09:43:41.999Z</time></trkpt><trkpt lat="45.405934370023246" lon="11.872075242086025"><ele>21.333333333333332</ele><time>2026-04-26T09:43:44.999Z</time></trkpt><trkpt lat="45.405913458199" lon="11.872172904251356"><ele>21.166666666666668</ele><time>2026-04-26T09:43:46.999Z</time></trkpt><trkpt lat="45.405921947209116" lon="11.87228689748014"><ele>21.0</ele><time>2026-04-26T09:43:49.999Z</time></trkpt><trkpt lat="45.405981581559075" lon="11.872378681582212"><ele>21.0</ele><time>2026-04-26T09:43:52.999Z</time></trkpt><trkpt lat="45.406029745534994" lon="11.872473609711339"><ele>21.0</ele><time>2026-04-26T09:43:56.999Z</time></trkpt><trkpt lat="45.40606545337038" lon="11.872548101570446"><ele>21.0</ele><time>2026-04-26T09:43:59.999Z</time></trkpt><trkpt lat="45.40624962069617" lon="11.87255535914833"><ele>21.0</ele><time>2026-04-26T09:44:07.999Z</time></trkpt><trkpt lat="45.4063148404042" lon="11.87256693262734"><ele>21.0</ele><time>2026-04-26T09:44:10.999Z</time></trkpt><trkpt lat="45.40638405026665" lon="11.87256182687146"><ele>21.0</ele><time>2026-04-26T09:44:12.999Z</time></trkpt><trkpt lat="45.406469314810344" lon="11.872582550033746"><ele>21.0</ele><time>2026-04-26T09:44:15.999Z</time></trkpt><trkpt lat="45.40653636194387" lon="11.872603823855476"><ele>21.0</ele><time>2026-04-26T09:44:19.999Z</time></trkpt><trkpt lat="45.406614401690675" lon="11.872604855895466"><ele>21.0</ele><time>2026-04-26T09:44:23.999Z</time></trkpt><trkpt lat="45.406662681063345" lon="11.872667487943165"><ele>21.0</ele><time>2026-04-26T09:44:28Z</time></trkpt><trkpt lat="45.40674875075763" lon="11.872634770297429"><ele>21.0</ele><time>2026-04-26T09:44:32Z</time></trkpt><trkpt lat="45.40681400587606" lon="11.872599989942621"><ele>21.0</ele><time>2026-04-26T09:44:34Z</time></trkpt><trkpt lat="45.40686302163408" lon="11.872525796112065"><ele>21.0</ele><time>2026-04-26T09:44:40Z</time></trkpt><trkpt lat="45.406928540168835" lon="11.872490025710661"><ele>21.0</ele><time>2026-04-26T09:44:43Z</time></trkpt><trkpt lat="45.40704100188983" lon="11.872623101193927"><ele>21.0</ele><time>2026-04-26T09:44:44Z</time></trkpt><trkpt lat="45.4068139526271" lon="11.872946611012923"><ele>21.5</ele><time>2026-04-26T09:44:46Z</time></trkpt><trkpt lat="45.40692999815062" lon="11.872903948944717"><ele>22.0</ele><time>2026-04-26T09:44:49Z</time></trkpt><trkpt lat="45.40711182223799" lon="11.872867264832779"><ele>22.5</ele><time>2026-04-26T09:44:54Z</time></trkpt><trkpt lat="45.4072172822767" lon="11.872849845044318"><ele>23.0</ele><time>2026-04-26T09:44:55Z</time></trkpt><trkpt lat="45.407302445419354" lon="11.8728409104711"><ele>23.4</ele><time>2026-04-26T09:44:56Z</time></trkpt><trkpt lat="45.40737935958792" lon="11.872816090100555"><ele>23.799999999999997</ele><time>2026-04-26T09:44:58Z</time></trkpt><trkpt lat="45.407508685160515" lon="11.872888941209292"><ele>24.2</ele><time>2026-04-26T09:45:01Z</time></trkpt><trkpt lat="45.40757311762629" lon="11.872880155384632"><ele>24.6</ele><time>2026-04-26T09:45:03Z</time></trkpt><trkpt lat="45.407670712617005" lon="11.872861409072355"><ele>25.0</ele><time>2026-04-26T09:45:06Z</time></trkpt><trkpt lat="45.40774563308397" lon="11.872890450860405"><ele>25.000000000000004</ele><time>2026-04-26T09:45:08Z</time></trkpt><trkpt lat="45.40783533609039" lon="11.872864811938413"><ele>25.0</ele><time>2026-04-26T09:45:11Z</time></trkpt><trkpt lat="45.407901812149156" lon="11.8729034751729"><ele>25.0</ele><time>2026-04-26T09:45:13Z</time></trkpt><trkpt lat="45.407925928352746" lon="11.873048096848105"><ele>25.0</ele><time>2026-04-26T09:45:15Z</time></trkpt><trkpt lat="45.40790676409664" lon="11.87313647521235"><ele>25.000000000000004</ele><time>2026-04-26T09:45:17Z</time></trkpt><trkpt lat="45.407868750435995" lon="11.873247587583483"><ele>25.0</ele><time>2026-04-26T09:45:20Z</time></trkpt><trkpt lat="45.40783063155377" lon="11.873334940964908"><ele>25.000000000000004</ele><time>2026-04-26T09:45:23Z</time></trkpt><trkpt lat="45.4078282652406" lon="11.87343389762694"><ele>25.0</ele><time>2026-04-26T09:45:26Z</time></trkpt><trkpt lat="45.40781850071258" lon="11.873542057556936"><ele>25.0</ele><time>2026-04-26T09:45:28.999Z</time></trkpt><trkpt lat="45.407799250658215" lon="11.873654363112909"><ele>25.0</ele><time>2026-04-26T09:45:31.999Z</time></trkpt><trkpt lat="45.40778657941302" lon="11.873762649908832"><ele>25.000000000000004</ele><time>2026-04-26T09:45:34.999Z</time></trkpt><trkpt lat="45.407773908669704" lon="11.873863008552103"><ele>25.0</ele><time>2026-04-26T09:45:37.999Z</time></trkpt><trkpt lat="45.4077589644857" lon="11.873973911866246"><ele>25.166666666666668</ele><time>2026-04-26T09:45:40.999Z</time></trkpt><trkpt lat="45.40774239794083" lon="11.874088510448917"><ele>25.333333333333336</ele><time>2026-04-26T09:45:43.999Z</time></trkpt><trkpt lat="45.40775393054528" lon="11.87419204129319"><ele>25.5</ele><time>2026-04-26T09:45:46.999Z</time></trkpt><trkpt lat="45.40775435967054" lon="11.874298408949146"><ele>25.666666666666664</ele><time>2026-04-26T09:45:49.999Z</time></trkpt><trkpt lat="45.407768342366694" lon="11.874415747635659"><ele>25.833333333333332</ele><time>2026-04-26T09:45:52.999Z</time></trkpt><trkpt lat="45.40775765539963" lon="11.87453707848181"><ele>26.0</ele><time>2026-04-26T09:45:55.999Z</time></trkpt><trkpt lat="45.40776723131173" lon="11.874668837952754"><ele>26.142857142857142</ele><time>2026-04-26T09:45:58.999Z</time></trkpt><trkpt lat="45.40777216741003" lon="11.874764712334557"><ele>26.28571428571429</ele><time>2026-04-26T09:46:00.999Z</time></trkpt><trkpt lat="45.40777759441776" lon="11.874879156039503"><ele>26.42857142857143</ele><time>2026-04-26T09:46:03.999Z</time></trkpt><trkpt lat="45.40776546314311" lon="11.874976937879968"><ele>26.57142857142857</ele><time>2026-04-26T09:46:06.999Z</time></trkpt><trkpt lat="45.4077633478923" lon="11.875080438349794"><ele>26.714285714285715</ele><time>2026-04-26T09:46:09.999Z</time></trkpt><trkpt lat="45.40777807148544" lon="11.875187530938375"><ele>26.857142857142858</ele><time>2026-04-26T09:46:12.999Z</time></trkpt><trkpt lat="45.40778614612338" lon="11.875278758867347"><ele>27.0</ele><time>2026-04-26T09:46:15.999Z</time></trkpt><trkpt lat="45.40779616777675" lon="11.875387447949423"><ele>26.857142857142858</ele><time>2026-04-26T09:46:18.999Z</time></trkpt><trkpt lat="45.40780216733031" lon="11.875492644324845"><ele>26.714285714285715</ele><time>2026-04-26T09:46:21.999Z</time></trkpt><trkpt lat="45.4077569223401" lon="11.875597971507643"><ele>26.57142857142857</ele><time>2026-04-26T09:46:24.999Z</time></trkpt><trkpt lat="45.40775408087528" lon="11.875692719523775"><ele>26.42857142857143</ele><time>2026-04-26T09:46:27.999Z</time></trkpt><trkpt lat="45.407755633988145" lon="11.875792075916266"><ele>26.28571428571429</ele><time>2026-04-26T09:46:30.999Z</time></trkpt><trkpt lat="45.40773533717811" lon="11.875883408188486"><ele>26.142857142857142</ele><time>2026-04-26T09:46:34Z</time></trkpt><trkpt lat="45.40768519291525" lon="11.875939302757416"><ele>26.0</ele><time>2026-04-26T09:46:36Z</time></trkpt><trkpt lat="45.40759457866002" lon="11.875991194314631"><ele>25.999999999999996</ele><time>2026-04-26T09:46:38Z</time></trkpt><trkpt lat="45.407511752394804" lon="11.875962885755834"><ele>26.0</ele><time>2026-04-26T09:46:41Z</time></trkpt><trkpt lat="45.407443303942564" lon="11.875981904721195"><ele>26.0</ele><time>2026-04-26T09:46:44Z</time></trkpt><trkpt lat="45.407375310479395" lon="11.876071320138095"><ele>26.0</ele><time>2026-04-26T09:46:48Z</time></trkpt><trkpt lat="45.40736835180386" lon="11.876193429755089"><ele>25.999999999999996</ele><time>2026-04-26T09:46:50Z</time></trkpt><trkpt lat="45.40735618871533" lon="11.876313934374307"><ele>26.0</ele><time>2026-04-26T09:46:53Z</time></trkpt><trkpt lat="45.40737714365598" lon="11.876402433550819"><ele>25.999999999999996</ele><time>2026-04-26T09:46:54Z</time></trkpt><trkpt lat="45.40737431394703" lon="11.876500562700357"><ele>26.0</ele><time>2026-04-26T09:46:56Z</time></trkpt><trkpt lat="45.407395497220094" lon="11.876637375230567"><ele>26.0</ele><time>2026-04-26T09:46:59Z</time></trkpt><trkpt lat="45.40739692652762" lon="11.876781648985077"><ele>26.0</ele><time>2026-04-26T09:47:02Z</time></trkpt><trkpt lat="45.407459966460095" lon="11.87685166316604"><ele>25.999999999999996</ele><time>2026-04-26T09:47:05Z</time></trkpt><trkpt lat="45.407458329403234" lon="11.876991183332985"><ele>26.0</ele><time>2026-04-26T09:47:08Z</time></trkpt><trkpt lat="45.40735393004029" lon="11.877004036194105"><ele>25.999999999999996</ele><time>2026-04-26T09:47:11Z</time></trkpt><trkpt lat="45.40726056403823" lon="11.877022443372173"><ele>26.0</ele><time>2026-04-26T09:47:13Z</time></trkpt><trkpt lat="45.40718435019958" lon="11.877036528153475"><ele>26.0</ele><time>2026-04-26T09:47:17Z</time></trkpt><trkpt lat="45.40710921786689" lon="11.877014806279906"><ele>26.0</ele><time>2026-04-26T09:47:22Z</time></trkpt><trkpt lat="45.407041909726935" lon="11.877000648688961"><ele>25.999999999999996</ele><time>2026-04-26T09:47:24Z</time></trkpt><trkpt lat="45.406936320959176" lon="11.876953881656187"><ele>26.0</ele><time>2026-04-26T09:47:26Z</time></trkpt><trkpt lat="45.40686231120999" lon="11.876971097341979"><ele>25.999999999999996</ele><time>2026-04-26T09:47:28Z</time></trkpt><trkpt lat="45.40679291001337" lon="11.876813755133288"><ele>26.0</ele><time>2026-04-26T09:47:30Z</time></trkpt><trkpt lat="45.40673777571152" lon="11.876750725519477"><ele>26.0</ele><time>2026-04-26T09:47:31.999Z</time></trkpt><trkpt lat="45.406668724667185" lon="11.876771592431314"><ele>26.0</ele><time>2026-04-26T09:47:33.999Z</time></trkpt><trkpt lat="45.406613368853435" lon="11.876696636806692"><ele>25.999999999999996</ele><time>2026-04-26T09:47:35.999Z</time></trkpt><trkpt lat="45.406550453245664" lon="11.876642679533305"><ele>26.0</ele><time>2026-04-26T09:47:38.999Z</time></trkpt><trkpt lat="45.40646115110387" lon="11.876783847794657"><ele>26.0</ele><time>2026-04-26T09:47:41.999Z</time></trkpt><trkpt lat="45.40645900670579" lon="11.876892845065496"><ele>26.0</ele><time>2026-04-26T09:47:43.999Z</time></trkpt><trkpt lat="45.40635383574348" lon="11.876962210448427"><ele>26.0</ele><time>2026-04-26T09:47:45.999Z</time></trkpt><trkpt lat="45.40636489292893" lon="11.877084124825227"><ele>26.0</ele><time>2026-04-26T09:47:47.999Z</time></trkpt><trkpt lat="45.406321393123406" lon="11.877228883127454"><ele>26.0</ele><time>2026-04-26T09:47:50.999Z</time></trkpt><trkpt lat="45.406335209087224" lon="11.877341253068817"><ele>25.499999999999996</ele><time>2026-04-26T09:47:53.999Z</time></trkpt><trkpt lat="45.406316807768945" lon="11.87744312096896"><ele>25.0</ele><time>2026-04-26T09:47:55.999Z</time></trkpt><trkpt lat="45.40631479829371" lon="11.877540822846445"><ele>24.5</ele><time>2026-04-26T09:47:57.999Z</time></trkpt><trkpt lat="45.40626493160989" lon="11.877667333149091"><ele>24.0</ele><time>2026-04-26T09:48:00.999Z</time></trkpt><trkpt lat="45.406213742619926" lon="11.877721352736105"><ele>23.5</ele><time>2026-04-26T09:48:02.999Z</time></trkpt><trkpt lat="45.40617268235716" lon="11.877838170949476"><ele>23.0</ele><time>2026-04-26T09:48:06.999Z</time></trkpt><trkpt lat="45.40614595157834" lon="11.87792033533414"><ele>23.0</ele><time>2026-04-26T09:48:09.999Z</time></trkpt><trkpt lat="45.4060866784767" lon="11.878005181051188"><ele>23.0</ele><time>2026-04-26T09:48:13.999Z</time></trkpt><trkpt lat="45.40607692633029" lon="11.878096040887819"><ele>23.0</ele><time>2026-04-26T09:48:15.999Z</time></trkpt><trkpt lat="45.406051206047046" lon="11.87818119517149"><ele>23.0</ele><time>2026-04-26T09:48:17.999Z</time></trkpt><trkpt lat="45.40606005798864" lon="11.878317236625495"><ele>23.0</ele><time>2026-04-26T09:48:20.999Z</time></trkpt><trkpt lat="45.40602591424489" lon="11.878424311091873"><ele>23.0</ele><time>2026-04-26T09:48:24.999Z</time></trkpt><trkpt lat="45.40604750383496" lon="11.878538995492747"><ele>22.799999999999997</ele><time>2026-04-26T09:48:27.999Z</time></trkpt><trkpt lat="45.40605622431073" lon="11.878660251856266"><ele>22.6</ele><time>2026-04-26T09:48:30.999Z</time></trkpt><trkpt lat="45.40606951081057" lon="11.87876618610997"><ele>22.4</ele><time>2026-04-26T09:48:34.999Z</time></trkpt><trkpt lat="45.40609460637125" lon="11.878878884600308"><ele>22.200000000000003</ele><time>2026-04-26T09:48:36.999Z</time></trkpt><trkpt lat="45.40597928995621" lon="11.878954821655983"><ele>22.0</ele><time>2026-04-26T09:48:37.999Z</time></trkpt><trkpt lat="45.40600543829927" lon="11.879081282174832"><ele>22.0</ele><time>2026-04-26T09:48:41Z</time></trkpt><trkpt lat="45.405959504398396" lon="11.879192491185435"><ele>22.0</ele><time>2026-04-26T09:48:44Z</time></trkpt><trkpt lat="45.40593318259057" lon="11.8793059556961"><ele>22.0</ele><time>2026-04-26T09:48:47Z</time></trkpt><trkpt lat="45.4058893799596" lon="11.879395083324662"><ele>22.0</ele><time>2026-04-26T09:48:51Z</time></trkpt><trkpt lat="45.40582866532199" lon="11.87936864470804"><ele>22.0</ele><time>2026-04-26T09:48:52Z</time></trkpt><trkpt lat="45.40575134360851" lon="11.879444687797212"><ele>22.0</ele><time>2026-04-26T09:48:55Z</time></trkpt><trkpt lat="45.405703729605925" lon="11.87950619492339"><ele>21.8</ele><time>2026-04-26T09:48:58Z</time></trkpt><trkpt lat="45.40567410670766" lon="11.879395648116496"><ele>21.6</ele><time>2026-04-26T09:48:59Z</time></trkpt><trkpt lat="45.40559348354339" lon="11.879384963363936"><ele>21.400000000000002</ele><time>2026-04-26T09:49:02Z</time></trkpt><trkpt lat="45.40545228621809" lon="11.87938668976985"><ele>21.200000000000003</ele><time>2026-04-26T09:49:05Z</time></trkpt><trkpt lat="45.405337405836036" lon="11.879299033098635"><ele>21.0</ele><time>2026-04-26T09:49:08Z</time></trkpt><trkpt lat="45.405272698711215" lon="11.879221062650819"><ele>21.0</ele><time>2026-04-26T09:49:11Z</time></trkpt><trkpt lat="45.405187506337064" lon="11.87920031924987"><ele>21.0</ele><time>2026-04-26T09:49:13Z</time></trkpt><trkpt lat="45.40511600085394" lon="11.879157328078886"><ele>21.0</ele><time>2026-04-26T09:49:17Z</time></trkpt><trkpt lat="45.405051302799954" lon="11.879192257026785"><ele>21.0</ele><time>2026-04-26T09:49:20Z</time></trkpt><trkpt lat="45.404979154015" lon="11.879200861559514"><ele>21.0</ele><time>2026-04-26T09:49:22Z</time></trkpt><trkpt lat="45.4048991613579" lon="11.87919680166912"><ele>21.0</ele><time>2026-04-26T09:49:25Z</time></trkpt><trkpt lat="45.404835455513364" lon="11.879202040050359"><ele>21.0</ele><time>2026-04-26T09:49:28Z</time></trkpt><trkpt lat="45.40476636937984" lon="11.879211685299248"><ele>21.0</ele><time>2026-04-26T09:49:31.999Z</time></trkpt><trkpt lat="45.40467038295465" lon="11.879192286069287"><ele>21.0</ele><time>2026-04-26T09:49:36.999Z</time></trkpt><trkpt lat="45.404597032502565" lon="11.879181843690525"><ele>21.0</ele><time>2026-04-26T09:49:38.999Z</time></trkpt><trkpt lat="45.40452045176744" lon="11.879174086151515"><ele>21.0</ele><time>2026-04-26T09:49:41.999Z</time></trkpt><trkpt lat="45.40444911612464" lon="11.879157128639777"><ele>21.0</ele><time>2026-04-26T09:49:44.999Z</time></trkpt><trkpt lat="45.40438392914479" lon="11.879144523904563"><ele>21.0</ele><time>2026-04-26T09:49:47.999Z</time></trkpt><trkpt lat="45.404313973008165" lon="11.87911406734862"><ele>20.5</ele><time>2026-04-26T09:49:51.999Z</time></trkpt><trkpt lat="45.404230201950575" lon="11.879118128995406"><ele>20.0</ele><time>2026-04-26T09:49:54.999Z</time></trkpt><trkpt lat="45.40415286195777" lon="11.87912197890417"><ele>19.5</ele><time>2026-04-26T09:49:57.999Z</time></trkpt><trkpt lat="45.404070157898786" lon="11.8791640271403"><ele>19.0</ele><time>2026-04-26T09:50:00.999Z</time></trkpt><trkpt lat="45.40385990224804" lon="11.879155553373002"><ele>19.142857142857142</ele><time>2026-04-26T09:50:10.999Z</time></trkpt><trkpt lat="45.40378618272523" lon="11.879147118596645"><ele>19.28571428571429</ele><time>2026-04-26T09:50:13.999Z</time></trkpt><trkpt lat="45.40372302940684" lon="11.879142935217036"><ele>19.42857142857143</ele><time>2026-04-26T09:50:17.999Z</time></trkpt><trkpt lat="45.403651688356604" lon="11.879178834398992"><ele>19.57142857142857</ele><time>2026-04-26T09:50:20.999Z</time></trkpt><trkpt lat="45.40358824385468" lon="11.879147024557481"><ele>19.714285714285715</ele><time>2026-04-26T09:50:22.999Z</time></trkpt><trkpt lat="45.40352705439609" lon="11.879123427080266"><ele>19.857142857142858</ele><time>2026-04-26T09:50:25.999Z</time></trkpt><trkpt lat="45.40345711071801" lon="11.879128108225785"><ele>20.0</ele><time>2026-04-26T09:50:28.999Z</time></trkpt><trkpt lat="45.403385435572815" lon="11.879167363122146"><ele>20.0</ele><time>2026-04-26T09:50:32.999Z</time></trkpt><trkpt lat="45.40330629558416" lon="11.87914968561496"><ele>20.0</ele><time>2026-04-26T09:50:34.999Z</time></trkpt><trkpt lat="45.40323002012723" lon="11.879126420272412"><ele>20.0</ele><time>2026-04-26T09:50:36.999Z</time></trkpt><trkpt lat="45.403157076473576" lon="11.879095211850846"><ele>20.0</ele><time>2026-04-26T09:50:38.999Z</time></trkpt><trkpt lat="45.40307637644255" lon="11.879078122412247"><ele>20.0</ele><time>2026-04-26T09:50:41.999Z</time></trkpt><trkpt lat="45.40302961383583" lon="11.879162923804842"><ele>20.0</ele><time>2026-04-26T09:50:44.999Z</time></trkpt><trkpt lat="45.40298957727838" lon="11.879241557373893"><ele>19.857142857142858</ele><time>2026-04-26T09:50:48Z</time></trkpt><trkpt lat="45.40293095199807" lon="11.879283006408366"><ele>19.714285714285715</ele><time>2026-04-26T09:50:51Z</time></trkpt><trkpt lat="45.40294091095708" lon="11.879374423382329"><ele>19.57142857142857</ele><time>2026-04-26T09:50:53Z</time></trkpt><trkpt lat="45.402882833548375" lon="11.879416530001468"><ele>19.42857142857143</ele><time>2026-04-26T09:50:55Z</time></trkpt><trkpt lat="45.40281038716035" lon="11.879436483102738"><ele>19.28571428571429</ele><time>2026-04-26T09:50:58Z</time></trkpt><trkpt lat="45.402741000012725" lon="11.879423637963622"><ele>19.142857142857142</ele><time>2026-04-26T09:51:01Z</time></trkpt><trkpt lat="45.40265496722922" lon="11.879430930798149"><ele>19.0</ele><time>2026-04-26T09:51:04Z</time></trkpt><trkpt lat="45.402596366090485" lon="11.879478616834586"><ele>19.0</ele><time>2026-04-26T09:51:06Z</time></trkpt><trkpt lat="45.402561104630486" lon="11.879593107094236"><ele>19.0</ele><time>2026-04-26T09:51:09Z</time></trkpt><trkpt lat="45.40248597563712" lon="11.87957602328757"><ele>19.0</ele><time>2026-04-26T09:51:11Z</time></trkpt><trkpt lat="45.40243224269927" lon="11.879657554001556"><ele>19.0</ele><time>2026-04-26T09:51:15Z</time></trkpt><trkpt lat="45.40235887571297" lon="11.879685841664571"><ele>19.0</ele><time>2026-04-26T09:51:18Z</time></trkpt><trkpt lat="45.40227920645035" lon="11.879722999600675"><ele>19.0</ele><time>2026-04-26T09:51:21Z</time></trkpt><trkpt lat="45.40221554250029" lon="11.879699163608707"><ele>19.0</ele><time>2026-04-26T09:51:23Z</time></trkpt><trkpt lat="45.40213929399276" lon="11.879689273045255"><ele>19.0</ele><time>2026-04-26T09:51:25Z</time></trkpt><trkpt lat="45.4020793276535" lon="11.879772603237788"><ele>19.0</ele><time>2026-04-26T09:51:28Z</time></trkpt><trkpt lat="45.40203029904902" lon="11.879843608394125"><ele>19.0</ele><time>2026-04-26T09:51:30Z</time></trkpt><trkpt lat="45.401973167886005" lon="11.87993273764781"><ele>19.0</ele><time>2026-04-26T09:51:33Z</time></trkpt><trkpt lat="45.40189889016714" lon="11.879944372036249"><ele>19.0</ele><time>2026-04-26T09:51:35Z</time></trkpt><trkpt lat="45.40182984538373" lon="11.879889198981536"><ele>19.0</ele><time>2026-04-26T09:51:38Z</time></trkpt><trkpt lat="45.401769064910575" lon="11.87980951084475"><ele>19.0</ele><time>2026-04-26T09:51:42Z</time></trkpt><trkpt lat="45.40169880390791" lon="11.879753815241651"><ele>19.0</ele><time>2026-04-26T09:51:44.999Z</time></trkpt><trkpt lat="45.40164342430038" lon="11.879690231808107"><ele>19.0</ele><time>2026-04-26T09:51:46.999Z</time></trkpt><trkpt lat="45.40157261922238" lon="11.879644496311553"><ele>19.0</ele><time>2026-04-26T09:51:49.999Z</time></trkpt><trkpt lat="45.4014933768453" lon="11.879600180403864"><ele>19.0</ele><time>2026-04-26T09:51:52.999Z</time></trkpt><trkpt lat="45.40142442448518" lon="11.879557367157021"><ele>19.0</ele><time>2026-04-26T09:51:55.999Z</time></trkpt><trkpt lat="45.40135732000391" lon="11.879557185499968"><ele>19.0</ele><time>2026-04-26T09:51:58.999Z</time></trkpt><trkpt lat="45.40127131628225" lon="11.879568578105117"><ele>19.0</ele><time>2026-04-26T09:52:01.999Z</time></trkpt><trkpt lat="45.40120175163733" lon="11.879570042774168"><ele>19.0</ele><time>2026-04-26T09:52:04.999Z</time></trkpt><trkpt lat="45.401133408635886" lon="11.879581681884428"><ele>19.0</ele><time>2026-04-26T09:52:07.999Z</time></trkpt><trkpt lat="45.40106608608016" lon="11.87960526092837"><ele>19.0</ele><time>2026-04-26T09:52:10.999Z</time></trkpt><trkpt lat="45.40098873605948" lon="11.879583955620104"><ele>19.0</ele><time>2026-04-26T09:52:13.999Z</time></trkpt><trkpt lat="45.4009234450686" lon="11.879530757125051"><ele>18.8</ele><time>2026-04-26T09:52:15.999Z</time></trkpt><trkpt lat="45.40086216607715" lon="11.879444423459798"><ele>18.599999999999998</ele><time>2026-04-26T09:52:18.999Z</time></trkpt><trkpt lat="45.40082990508918" lon="11.879359208966713"><ele>18.4</ele><time>2026-04-26T09:52:20.999Z</time></trkpt><trkpt lat="45.40078947862729" lon="11.87925371396931"><ele>18.2</ele><time>2026-04-26T09:52:23.999Z</time></trkpt><trkpt lat="45.40065603460886" lon="11.8792003420604"><ele>18.0</ele><time>2026-04-26T09:52:26.999Z</time></trkpt><trkpt lat="45.40063190004192" lon="11.879095823789978"><ele>17.833333333333332</ele><time>2026-04-26T09:52:29.999Z</time></trkpt><trkpt lat="45.40055177175434" lon="11.879058071001136"><ele>17.666666666666668</ele><time>2026-04-26T09:52:32.999Z</time></trkpt><trkpt lat="45.400465500712315" lon="11.879022649827128"><ele>17.5</ele><time>2026-04-26T09:52:35.999Z</time></trkpt><trkpt lat="45.400407563675486" lon="11.878959470043416"><ele>17.333333333333336</ele><time>2026-04-26T09:52:38.999Z</time></trkpt><trkpt lat="45.400368216941345" lon="11.878869608310712"><ele>17.166666666666668</ele><time>2026-04-26T09:52:41.999Z</time></trkpt><trkpt lat="45.4003001142187" lon="11.878806368620378"><ele>17.0</ele><time>2026-04-26T09:52:44.999Z</time></trkpt><trkpt lat="45.400271737349684" lon="11.878722068659652"><ele>16.999999999999996</ele><time>2026-04-26T09:52:46.999Z</time></trkpt><trkpt lat="45.400270646082646" lon="11.878611568917858"><ele>17.0</ele><time>2026-04-26T09:52:48.999Z</time></trkpt><trkpt lat="45.4002640510631" lon="11.878499581542803"><ele>17.0</ele><time>2026-04-26T09:52:52Z</time></trkpt><trkpt lat="45.4002147222648" lon="11.878430076657187"><ele>17.0</ele><time>2026-04-26T09:52:55Z</time></trkpt><trkpt lat="45.40017066497964" lon="11.87834401932017"><ele>17.0</ele><time>2026-04-26T09:52:59Z</time></trkpt><trkpt lat="45.40011754931638" lon="11.878267156427908"><ele>16.999999999999996</ele><time>2026-04-26T09:53:02Z</time></trkpt><trkpt lat="45.40004967576065" lon="11.878243769496985"><ele>17.0</ele><time>2026-04-26T09:53:04Z</time></trkpt><trkpt lat="45.39997377044968" lon="11.878181079268938"><ele>17.142857142857142</ele><time>2026-04-26T09:53:06Z</time></trkpt><trkpt lat="45.39991599272484" lon="11.87813171292466"><ele>17.285714285714285</ele><time>2026-04-26T09:53:09Z</time></trkpt><trkpt lat="45.399857788031305" lon="11.87807156780321"><ele>17.42857142857143</ele><time>2026-04-26T09:53:12Z</time></trkpt><trkpt lat="45.39985389616961" lon="11.87797206982219"><ele>17.57142857142857</ele><time>2026-04-26T09:53:15Z</time></trkpt><trkpt lat="45.39978062207826" lon="11.878003141460555"><ele>17.714285714285715</ele><time>2026-04-26T09:53:16Z</time></trkpt><trkpt lat="45.39972097327948" lon="11.877933968569334"><ele>17.857142857142858</ele><time>2026-04-26T09:53:19Z</time></trkpt><trkpt lat="45.39972846427213" lon="11.877825051409754"><ele>18.0</ele><time>2026-04-26T09:53:21Z</time></trkpt><trkpt lat="45.39971351383007" lon="11.877709598325396"><ele>18.000000000000004</ele><time>2026-04-26T09:53:24Z</time></trkpt><trkpt lat="45.39967895594292" lon="11.877622380607036"><ele>18.0</ele><time>2026-04-26T09:53:27Z</time></trkpt><trkpt lat="45.39967484376421" lon="11.877515165107283"><ele>18.0</ele><time>2026-04-26T09:53:30Z</time></trkpt><trkpt lat="45.39963820069884" lon="11.877432098650203"><ele>18.0</ele><time>2026-04-26T09:53:34Z</time></trkpt><trkpt lat="45.39961314764059" lon="11.877324377141324"><ele>18.0</ele><time>2026-04-26T09:53:38Z</time></trkpt><trkpt lat="45.39965687971369" lon="11.87724838288668"><ele>18.000000000000004</ele><time>2026-04-26T09:53:40Z</time></trkpt><trkpt lat="45.39969516586683" lon="11.877144669741533"><ele>18.0</ele><time>2026-04-26T09:53:43Z</time></trkpt><trkpt lat="45.39975532469753" lon="11.877076475845728"><ele>17.666666666666668</ele><time>2026-04-26T09:53:45.999Z</time></trkpt><trkpt lat="45.3998119012264" lon="11.876987858687277"><ele>17.333333333333332</ele><time>2026-04-26T09:53:48.999Z</time></trkpt><trkpt lat="45.399803169713145" lon="11.876898190634366"><ele>17.0</ele><time>2026-04-26T09:53:50.999Z</time></trkpt><trkpt lat="45.39984174169484" lon="11.876796376923297"><ele>16.666666666666664</ele><time>2026-04-26T09:53:53.999Z</time></trkpt><trkpt lat="45.39987595095916" lon="11.876711858304343"><ele>16.333333333333332</ele><time>2026-04-26T09:53:56.999Z</time></trkpt><trkpt lat="45.39993398018802" lon="11.87662153370675"><ele>16.0</ele><time>2026-04-26T09:53:59.999Z</time></trkpt><trkpt lat="45.39997336542039" lon="11.876532204522988"><ele>15.666666666666666</ele><time>2026-04-26T09:54:03.999Z</time></trkpt><trkpt lat="45.40000792306975" lon="11.876418882839037"><ele>15.333333333333332</ele><time>2026-04-26T09:54:06.999Z</time></trkpt><trkpt lat="45.400003076280285" lon="11.87630191603983"><ele>15.0</ele><time>2026-04-26T09:54:09.999Z</time></trkpt><trkpt lat="45.40004649018265" lon="11.876220783601594"><ele>14.666666666666668</ele><time>2026-04-26T09:54:12.999Z</time></trkpt><trkpt lat="45.40006666786271" lon="11.876084206930386"><ele>14.333333333333334</ele><time>2026-04-26T09:54:15.999Z</time></trkpt><trkpt lat="45.40004035500295" lon="11.875999181844513"><ele>14.0</ele><time>2026-04-26T09:54:17.999Z</time></trkpt><trkpt lat="45.39998880993893" lon="11.875938677436743"><ele>14.166666666666668</ele><time>2026-04-26T09:54:19.999Z</time></trkpt><trkpt lat="45.39992727886462" lon="11.875870097444173"><ele>14.333333333333334</ele><time>2026-04-26T09:54:22.999Z</time></trkpt><trkpt lat="45.39985399493266" lon="11.8758386167564"><ele>14.5</ele><time>2026-04-26T09:54:25.999Z</time></trkpt><trkpt lat="45.39979823708701" lon="11.875758898428728"><ele>14.666666666666668</ele><time>2026-04-26T09:54:28.999Z</time></trkpt><trkpt lat="45.399720602249644" lon="11.87573031446573"><ele>14.833333333333334</ele><time>2026-04-26T09:54:31.999Z</time></trkpt><trkpt lat="45.399653010942856" lon="11.875671461894834"><ele>15.0</ele><time>2026-04-26T09:54:34.999Z</time></trkpt><trkpt lat="45.39958314008059" lon="11.875640987091971"><ele>14.5</ele><time>2026-04-26T09:54:37.999Z</time></trkpt><trkpt lat="45.39952231557458" lon="11.875571349685705"><ele>14.0</ele><time>2026-04-26T09:54:40.999Z</time></trkpt><trkpt lat="45.39943079096243" lon="11.875556233268979"><ele>13.5</ele><time>2026-04-26T09:54:43.999Z</time></trkpt><trkpt lat="45.399358001092295" lon="11.87551206159688"><ele>13.0</ele><time>2026-04-26T09:54:46.999Z</time></trkpt><trkpt lat="45.399275821954106" lon="11.875480791622854"><ele>12.5</ele><time>2026-04-26T09:54:49.999Z</time></trkpt><trkpt lat="45.39920423036717" lon="11.875442640777333"><ele>12.0</ele><time>2026-04-26T09:54:51.999Z</time></trkpt><trkpt lat="45.399138243707746" lon="11.875416402544726"><ele>12.0</ele><time>2026-04-26T09:54:53.999Z</time></trkpt><trkpt lat="45.39906816225174" lon="11.87536673459229"><ele>12.0</ele><time>2026-04-26T09:54:56.999Z</time></trkpt><trkpt lat="45.39899293890701" lon="11.87530730667034"><ele>12.0</ele><time>2026-04-26T09:55:00Z</time></trkpt><trkpt lat="45.398916130255074" lon="11.87525248536199"><ele>12.0</ele><time>2026-04-26T09:55:03Z</time></trkpt><trkpt lat="45.398852542354284" lon="11.875214369716836"><ele>12.0</ele><time>2026-04-26T09:55:05Z</time></trkpt><trkpt lat="45.398778634977596" lon="11.87523294502201"><ele>12.0</ele><time>2026-04-26T09:55:07Z</time></trkpt><trkpt lat="45.39870353254677" lon="11.875191476338168"><ele>11.999999999999998</ele><time>2026-04-26T09:55:10Z</time></trkpt><trkpt lat="45.39863017911455" lon="11.875190224566959"><ele>12.0</ele><time>2026-04-26T09:55:14Z</time></trkpt><trkpt lat="45.39856557108055" lon="11.875205338398311"><ele>12.0</ele><time>2026-04-26T09:55:19Z</time></trkpt><trkpt lat="45.39849771154303" lon="11.875196014426809"><ele>12.0</ele><time>2026-04-26T09:55:29Z</time></trkpt><trkpt lat="45.39847182745716" lon="11.875111235429836"><ele>12.0</ele><time>2026-04-26T09:55:42Z</time></trkpt><trkpt lat="45.3984040882708" lon="11.8751236222225"><ele>11.999999999999998</ele><time>2026-04-26T09:56:01.999Z</time></trkpt><trkpt lat="45.398337459066994" lon="11.875082540377424"><ele>12.0</ele><time>2026-04-26T09:56:18.999Z</time></trkpt><trkpt lat="45.39827037285555" lon="11.875068533608198"><ele>11.571428571428571</ele><time>2026-04-26T09:56:26.999Z</time></trkpt><trkpt lat="45.39821444055656" lon="11.875122632262329"><ele>11.142857142857142</ele><time>2026-04-26T09:56:31.999Z</time></trkpt><trkpt lat="45.39814848718032" lon="11.875178389391062"><ele>10.714285714285715</ele><time>2026-04-26T09:56:46.999Z</time></trkpt><trkpt lat="45.39808847948308" lon="11.875241300576137"><ele>10.285714285714285</ele><time>2026-04-26T09:56:56.999Z</time></trkpt><trkpt lat="45.398018613350324" lon="11.875240631536544"><ele>9.857142857142858</ele><time>2026-04-26T09:57:09Z</time></trkpt><trkpt lat="45.397972348718724" lon="11.875302410383192"><ele>9.428571428571429</ele><time>2026-04-26T09:59:23Z</time></trkpt><trkpt lat="45.39790065960442" lon="11.875320557558972"><ele>9.0</ele><time>2026-04-26T09:59:48Z</time></trkpt><trkpt lat="45.39786144573494" lon="11.875397741996398"><ele>9.000000000000002</ele><time>2026-04-26T10:00:01.999Z</time></trkpt><trkpt lat="45.39781091268471" lon="11.875484481905266"><ele>9.0</ele><time>2026-04-26T10:01:34Z</time></trkpt><trkpt lat="45.397752016594374" lon="11.875544055769627"><ele>9.0</ele><time>2026-04-26T10:03:56Z</time></trkpt><trkpt lat="45.39768722590679" lon="11.875555801545348"><ele>9.0</ele><time>2026-04-26T10:04:04Z</time></trkpt><trkpt lat="45.397674452243315" lon="11.875656366750373"><ele>9.0</ele><time>2026-04-26T10:04:26.999Z</time></trkpt><trkpt lat="45.39766149215298" lon="11.875749504265066"><ele>9.000000000000002</ele><time>2026-04-26T10:04:36.999Z</time></trkpt><trkpt lat="45.397615978846034" lon="11.875837266900634"><ele>9.0</ele><time>2026-04-26T10:04:46.999Z</time></trkpt><trkpt lat="45.397591567168824" lon="11.875921597687542"><ele>9.0</ele><time>2026-04-26T10:04:59.999Z</time></trkpt><trkpt lat="45.39756206362678" lon="11.87600079865461"><ele>8.0</ele><time>2026-04-26T10:05:06.999Z</time></trkpt><trkpt lat="45.39752783717558" lon="11.876095302673232"><ele>8.0</ele><time>2026-04-26T10:05:16.999Z</time></trkpt><trkpt lat="45.39748849762459" lon="11.876171578727071"><ele>8.0</ele><time>2026-04-26T10:05:25.999Z</time></trkpt></trkseg></trk></gpx>